<?xml version="1.0" encoding="utf-8"?>
<gpx xmlns:xsi="http://www.w3.org/2001/XMLSchema-instance" xmlns:xsd="http://www.w3.org/2001/XMLSchema" version="1.1" creator="Shapelink.com" xmlns="http://www.topografix.com/GPX/1/1" xmlns:gpxtpx="http://www.garmin.com/xmlschemas/TrackPointExtension/v1">
  <metadata>
    <name>Sykling 58.86 km, 2012-07-18</name>
    <desc></desc>
    <author><name>Mikael Blom</name></author> 
    <time>2012-07-18T16:38:54Z</time>
  </metadata>
  <trk>
    <name>Sykling 58.86 km, 2012-07-18</name>
    <trkseg>
      <trkpt lat="59.978851" lon="17.7392995">
        <ele>32.8223</ele>
        <time>2012-07-18T16:38:54Z</time>
      </trkpt>
      <trkpt lat="59.9785898" lon="17.7392422">
        <ele>31.8607</ele>
        <time>2012-07-18T16:39:02Z</time>
      </trkpt>
      <trkpt lat="59.9784155" lon="17.7392127">
        <ele>32.3416</ele>
        <time>2012-07-18T16:39:08Z</time>
      </trkpt>
      <trkpt lat="59.9783901" lon="17.7392119">
        <ele>32.8223</ele>
        <time>2012-07-18T16:39:09Z</time>
      </trkpt>
      <trkpt lat="59.9782252" lon="17.7391237">
        <ele>34.2642</ele>
        <time>2012-07-18T16:39:14Z</time>
      </trkpt>
      <trkpt lat="59.9779835" lon="17.7389946">
        <ele>33.7834</ele>
        <time>2012-07-18T16:39:19Z</time>
      </trkpt>
      <trkpt lat="59.9778699" lon="17.7389342">
        <ele>32.8223</ele>
        <time>2012-07-18T16:39:21Z</time>
      </trkpt>
      <trkpt lat="59.9774379" lon="17.7389322">
        <ele>29.4575</ele>
        <time>2012-07-18T16:39:27Z</time>
      </trkpt>
      <trkpt lat="59.9773606" lon="17.7389529">
        <ele>28.0155</ele>
        <time>2012-07-18T16:39:28Z</time>
      </trkpt>
      <trkpt lat="59.9770446" lon="17.7391226">
        <ele>27.5349</ele>
        <time>2012-07-18T16:39:32Z</time>
      </trkpt>
      <trkpt lat="59.9766217" lon="17.7393186">
        <ele>26.5736</ele>
        <time>2012-07-18T16:39:37Z</time>
      </trkpt>
      <trkpt lat="59.9763433" lon="17.7396081">
        <ele>24.651</ele>
        <time>2012-07-18T16:39:41Z</time>
      </trkpt>
      <trkpt lat="59.9760947" lon="17.7394958">
        <ele>23.209</ele>
        <time>2012-07-18T16:39:45Z</time>
      </trkpt>
      <trkpt lat="59.9760337" lon="17.7393958">
        <ele>22.7283</ele>
        <time>2012-07-18T16:39:46Z</time>
      </trkpt>
      <trkpt lat="59.9755773" lon="17.738554">
        <ele>17.9218</ele>
        <time>2012-07-18T16:39:53Z</time>
      </trkpt>
      <trkpt lat="59.9751519" lon="17.7378021">
        <ele>17.9218</ele>
        <time>2012-07-18T16:40:00Z</time>
      </trkpt>
      <trkpt lat="59.9748478" lon="17.7372455">
        <ele>15.5184</ele>
        <time>2012-07-18T16:40:05Z</time>
      </trkpt>
      <trkpt lat="59.9745388" lon="17.7364566">
        <ele>16.4797</ele>
        <time>2012-07-18T16:40:11Z</time>
      </trkpt>
      <trkpt lat="59.9743589" lon="17.735618">
        <ele>18.4023</ele>
        <time>2012-07-18T16:40:17Z</time>
      </trkpt>
      <trkpt lat="59.9742705" lon="17.7347057">
        <ele>19.3638</ele>
        <time>2012-07-18T16:40:23Z</time>
      </trkpt>
      <trkpt lat="59.9742667" lon="17.7343964">
        <ele>19.8444</ele>
        <time>2012-07-18T16:40:25Z</time>
      </trkpt>
      <trkpt lat="59.9743315" lon="17.7328777">
        <ele>21.767</ele>
        <time>2012-07-18T16:40:35Z</time>
      </trkpt>
      <trkpt lat="59.9743264" lon="17.7318525">
        <ele>22.7283</ele>
        <time>2012-07-18T16:40:42Z</time>
      </trkpt>
      <trkpt lat="59.9743641" lon="17.7306895">
        <ele>23.6896</ele>
        <time>2012-07-18T16:40:50Z</time>
      </trkpt>
      <trkpt lat="59.9744512" lon="17.7295815">
        <ele>24.1703</ele>
        <time>2012-07-18T16:40:58Z</time>
      </trkpt>
      <trkpt lat="59.9744411" lon="17.728735">
        <ele>23.6896</ele>
        <time>2012-07-18T16:41:04Z</time>
      </trkpt>
      <trkpt lat="59.9744053" lon="17.7274706">
        <ele>25.1317</ele>
        <time>2012-07-18T16:41:13Z</time>
      </trkpt>
      <trkpt lat="59.9743966" lon="17.7271106">
        <ele>25.6123</ele>
        <time>2012-07-18T16:41:16Z</time>
      </trkpt>
      <trkpt lat="59.974389" lon="17.7263619">
        <ele>26.5736</ele>
        <time>2012-07-18T16:41:23Z</time>
      </trkpt>
      <trkpt lat="59.974346" lon="17.7256629">
        <ele>24.651</ele>
        <time>2012-07-18T16:41:29Z</time>
      </trkpt>
      <trkpt lat="59.9742382" lon="17.7248055">
        <ele>23.209</ele>
        <time>2012-07-18T16:41:36Z</time>
      </trkpt>
      <trkpt lat="59.9740093" lon="17.7233828">
        <ele>22.7283</ele>
        <time>2012-07-18T16:41:47Z</time>
      </trkpt>
      <trkpt lat="59.9738419" lon="17.7225884">
        <ele>21.767</ele>
        <time>2012-07-18T16:41:53Z</time>
      </trkpt>
      <trkpt lat="59.9735818" lon="17.7217689">
        <ele>21.767</ele>
        <time>2012-07-18T16:42:00Z</time>
      </trkpt>
      <trkpt lat="59.9732099" lon="17.7209856">
        <ele>19.8444</ele>
        <time>2012-07-18T16:42:08Z</time>
      </trkpt>
      <trkpt lat="59.9727671" lon="17.7203734">
        <ele>17.9218</ele>
        <time>2012-07-18T16:42:16Z</time>
      </trkpt>
      <trkpt lat="59.9722087" lon="17.7198357">
        <ele>16.4797</ele>
        <time>2012-07-18T16:42:25Z</time>
      </trkpt>
      <trkpt lat="59.9716569" lon="17.719323">
        <ele>15.999</ele>
        <time>2012-07-18T16:42:34Z</time>
      </trkpt>
      <trkpt lat="59.9711443" lon="17.7188642">
        <ele>16.4797</ele>
        <time>2012-07-18T16:42:42Z</time>
      </trkpt>
      <trkpt lat="59.9705566" lon="17.7183276">
        <ele>16.9604</ele>
        <time>2012-07-18T16:42:51Z</time>
      </trkpt>
      <trkpt lat="59.9698458" lon="17.7176847">
        <ele>17.4412</ele>
        <time>2012-07-18T16:43:02Z</time>
      </trkpt>
      <trkpt lat="59.9692908" lon="17.717327">
        <ele>18.4023</ele>
        <time>2012-07-18T16:43:11Z</time>
      </trkpt>
      <trkpt lat="59.9687023" lon="17.7170929">
        <ele>18.8831</ele>
        <time>2012-07-18T16:43:21Z</time>
      </trkpt>
      <trkpt lat="59.9682462" lon="17.7167965">
        <ele>18.4023</ele>
        <time>2012-07-18T16:43:28Z</time>
      </trkpt>
      <trkpt lat="59.967917" lon="17.7163126">
        <ele>16.4797</ele>
        <time>2012-07-18T16:43:33Z</time>
      </trkpt>
      <trkpt lat="59.9678512" lon="17.7161765">
        <ele>15.999</ele>
        <time>2012-07-18T16:43:34Z</time>
      </trkpt>
      <trkpt lat="59.9676025" lon="17.715335">
        <ele>14.0764</ele>
        <time>2012-07-18T16:43:39Z</time>
      </trkpt>
      <trkpt lat="59.9673679" lon="17.7140339">
        <ele>13.5958</ele>
        <time>2012-07-18T16:43:46Z</time>
      </trkpt>
      <trkpt lat="59.9672886" lon="17.7134999">
        <ele>16.4797</ele>
        <time>2012-07-18T16:43:50Z</time>
      </trkpt>
      <trkpt lat="59.9671918" lon="17.7129814">
        <ele>19.3638</ele>
        <time>2012-07-18T16:43:55Z</time>
      </trkpt>
      <trkpt lat="59.9670176" lon="17.7123634">
        <ele>21.767</ele>
        <time>2012-07-18T16:44:02Z</time>
      </trkpt>
      <trkpt lat="59.9668158" lon="17.7118438">
        <ele>22.7283</ele>
        <time>2012-07-18T16:44:08Z</time>
      </trkpt>
      <trkpt lat="59.9665482" lon="17.7110378">
        <ele>23.6896</ele>
        <time>2012-07-18T16:44:16Z</time>
      </trkpt>
      <trkpt lat="59.9663355" lon="17.7102195">
        <ele>23.6896</ele>
        <time>2012-07-18T16:44:23Z</time>
      </trkpt>
      <trkpt lat="59.9660402" lon="17.7091751">
        <ele>23.6896</ele>
        <time>2012-07-18T16:44:31Z</time>
      </trkpt>
      <trkpt lat="59.9657733" lon="17.7084425">
        <ele>24.1703</ele>
        <time>2012-07-18T16:44:37Z</time>
      </trkpt>
      <trkpt lat="59.9655346" lon="17.7080972">
        <ele>24.651</ele>
        <time>2012-07-18T16:44:41Z</time>
      </trkpt>
      <trkpt lat="59.9648814" lon="17.7075436">
        <ele>23.6896</ele>
        <time>2012-07-18T16:44:50Z</time>
      </trkpt>
      <trkpt lat="59.9643011" lon="17.7072113">
        <ele>24.651</ele>
        <time>2012-07-18T16:44:58Z</time>
      </trkpt>
      <trkpt lat="59.9637133" lon="17.7070889">
        <ele>25.1317</ele>
        <time>2012-07-18T16:45:06Z</time>
      </trkpt>
      <trkpt lat="59.9631454" lon="17.7070595">
        <ele>26.5736</ele>
        <time>2012-07-18T16:45:14Z</time>
      </trkpt>
      <trkpt lat="59.9626006" lon="17.707016">
        <ele>27.0543</ele>
        <time>2012-07-18T16:45:22Z</time>
      </trkpt>
      <trkpt lat="59.962106" lon="17.7067911">
        <ele>26.5736</ele>
        <time>2012-07-18T16:45:30Z</time>
      </trkpt>
      <trkpt lat="59.9616361" lon="17.706403">
        <ele>25.6123</ele>
        <time>2012-07-18T16:45:38Z</time>
      </trkpt>
      <trkpt lat="59.9613699" lon="17.7059855">
        <ele>25.1317</ele>
        <time>2012-07-18T16:45:43Z</time>
      </trkpt>
      <trkpt lat="59.9609987" lon="17.7053307">
        <ele>26.0929</ele>
        <time>2012-07-18T16:45:50Z</time>
      </trkpt>
      <trkpt lat="59.9605922" lon="17.7047705">
        <ele>26.0929</ele>
        <time>2012-07-18T16:45:57Z</time>
      </trkpt>
      <trkpt lat="59.9602255" lon="17.7043394">
        <ele>26.0929</ele>
        <time>2012-07-18T16:46:03Z</time>
      </trkpt>
      <trkpt lat="59.9599856" lon="17.7038545">
        <ele>26.5736</ele>
        <time>2012-07-18T16:46:08Z</time>
      </trkpt>
      <trkpt lat="59.9597615" lon="17.7030948">
        <ele>27.0543</ele>
        <time>2012-07-18T16:46:15Z</time>
      </trkpt>
      <trkpt lat="59.9595729" lon="17.7024431">
        <ele>26.5736</ele>
        <time>2012-07-18T16:46:21Z</time>
      </trkpt>
      <trkpt lat="59.9593712" lon="17.701697">
        <ele>26.5736</ele>
        <time>2012-07-18T16:46:27Z</time>
      </trkpt>
      <trkpt lat="59.9592593" lon="17.7010226">
        <ele>25.1317</ele>
        <time>2012-07-18T16:46:32Z</time>
      </trkpt>
      <trkpt lat="59.9591642" lon="17.7001711">
        <ele>24.651</ele>
        <time>2012-07-18T16:46:38Z</time>
      </trkpt>
      <trkpt lat="59.9590746" lon="17.6990117">
        <ele>25.1317</ele>
        <time>2012-07-18T16:46:46Z</time>
      </trkpt>
      <trkpt lat="59.9590512" lon="17.6979974">
        <ele>25.6123</ele>
        <time>2012-07-18T16:46:53Z</time>
      </trkpt>
      <trkpt lat="59.9589439" lon="17.6972185">
        <ele>24.651</ele>
        <time>2012-07-18T16:46:58Z</time>
      </trkpt>
      <trkpt lat="59.9588086" lon="17.6965924">
        <ele>24.651</ele>
        <time>2012-07-18T16:47:02Z</time>
      </trkpt>
      <trkpt lat="59.9584379" lon="17.6956058">
        <ele>24.1703</ele>
        <time>2012-07-18T16:47:09Z</time>
      </trkpt>
      <trkpt lat="59.9579774" lon="17.6943599">
        <ele>24.1703</ele>
        <time>2012-07-18T16:47:18Z</time>
      </trkpt>
      <trkpt lat="59.9576714" lon="17.6934465">
        <ele>24.1703</ele>
        <time>2012-07-18T16:47:25Z</time>
      </trkpt>
      <trkpt lat="59.9573138" lon="17.6924274">
        <ele>24.651</ele>
        <time>2012-07-18T16:47:33Z</time>
      </trkpt>
      <trkpt lat="59.9569842" lon="17.6914527">
        <ele>26.0929</ele>
        <time>2012-07-18T16:47:41Z</time>
      </trkpt>
      <trkpt lat="59.9567715" lon="17.6908359">
        <ele>27.0543</ele>
        <time>2012-07-18T16:47:47Z</time>
      </trkpt>
      <trkpt lat="59.9566" lon="17.6903499">
        <ele>28.0155</ele>
        <time>2012-07-18T16:47:52Z</time>
      </trkpt>
      <trkpt lat="59.9564284" lon="17.6899903">
        <ele>27.5349</ele>
        <time>2012-07-18T16:47:56Z</time>
      </trkpt>
      <trkpt lat="59.9562097" lon="17.6893206">
        <ele>26.5736</ele>
        <time>2012-07-18T16:48:02Z</time>
      </trkpt>
      <trkpt lat="59.9561447" lon="17.6890456">
        <ele>26.5736</ele>
        <time>2012-07-18T16:48:04Z</time>
      </trkpt>
      <trkpt lat="59.9560628" lon="17.6884692">
        <ele>26.0929</ele>
        <time>2012-07-18T16:48:08Z</time>
      </trkpt>
      <trkpt lat="59.9558736" lon="17.6872617">
        <ele>25.6123</ele>
        <time>2012-07-18T16:48:16Z</time>
      </trkpt>
      <trkpt lat="59.955682" lon="17.6859188">
        <ele>25.1317</ele>
        <time>2012-07-18T16:48:25Z</time>
      </trkpt>
      <trkpt lat="59.9555021" lon="17.6846939">
        <ele>24.651</ele>
        <time>2012-07-18T16:48:33Z</time>
      </trkpt>
      <trkpt lat="59.9553032" lon="17.6836492">
        <ele>24.651</ele>
        <time>2012-07-18T16:48:40Z</time>
      </trkpt>
      <trkpt lat="59.9550106" lon="17.6825254">
        <ele>25.1317</ele>
        <time>2012-07-18T16:48:48Z</time>
      </trkpt>
      <trkpt lat="59.954918" lon="17.6822456">
        <ele>24.651</ele>
        <time>2012-07-18T16:48:50Z</time>
      </trkpt>
      <trkpt lat="59.9546666" lon="17.6817949">
        <ele>23.6896</ele>
        <time>2012-07-18T16:48:54Z</time>
      </trkpt>
      <trkpt lat="59.9546158" lon="17.6816699">
        <ele>23.6896</ele>
        <time>2012-07-18T16:48:55Z</time>
      </trkpt>
      <trkpt lat="59.9542658" lon="17.6805897">
        <ele>23.209</ele>
        <time>2012-07-18T16:49:03Z</time>
      </trkpt>
      <trkpt lat="59.9538318" lon="17.6792979">
        <ele>23.6896</ele>
        <time>2012-07-18T16:49:13Z</time>
      </trkpt>
      <trkpt lat="59.9535091" lon="17.6783193">
        <ele>23.6896</ele>
        <time>2012-07-18T16:49:21Z</time>
      </trkpt>
      <trkpt lat="59.9531742" lon="17.6773667">
        <ele>21.767</ele>
        <time>2012-07-18T16:49:29Z</time>
      </trkpt>
      <trkpt lat="59.9528439" lon="17.6765457">
        <ele>22.2476</ele>
        <time>2012-07-18T16:49:36Z</time>
      </trkpt>
      <trkpt lat="59.9526381" lon="17.675971">
        <ele>22.7283</ele>
        <time>2012-07-18T16:49:41Z</time>
      </trkpt>
      <trkpt lat="59.9524155" lon="17.6753876">
        <ele>24.651</ele>
        <time>2012-07-18T16:49:47Z</time>
      </trkpt>
      <trkpt lat="59.9523352" lon="17.6751386">
        <ele>25.1317</ele>
        <time>2012-07-18T16:49:50Z</time>
      </trkpt>
      <trkpt lat="59.9522382" lon="17.6745554">
        <ele>23.6896</ele>
        <time>2012-07-18T16:49:56Z</time>
      </trkpt>
      <trkpt lat="59.9520472" lon="17.6735463">
        <ele>22.2476</ele>
        <time>2012-07-18T16:50:04Z</time>
      </trkpt>
      <trkpt lat="59.9519028" lon="17.672535">
        <ele>20.8057</ele>
        <time>2012-07-18T16:50:11Z</time>
      </trkpt>
      <trkpt lat="59.9518535" lon="17.6720528">
        <ele>19.8444</ele>
        <time>2012-07-18T16:50:14Z</time>
      </trkpt>
      <trkpt lat="59.9518348" lon="17.6715542">
        <ele>19.3638</ele>
        <time>2012-07-18T16:50:17Z</time>
      </trkpt>
      <trkpt lat="59.9517489" lon="17.6708352">
        <ele>17.9218</ele>
        <time>2012-07-18T16:50:21Z</time>
      </trkpt>
      <trkpt lat="59.9517597" lon="17.6704508">
        <ele>17.9218</ele>
        <time>2012-07-18T16:50:23Z</time>
      </trkpt>
      <trkpt lat="59.9518317" lon="17.6692059">
        <ele>16.9604</ele>
        <time>2012-07-18T16:50:30Z</time>
      </trkpt>
      <trkpt lat="59.9518375" lon="17.6690436">
        <ele>16.9604</ele>
        <time>2012-07-18T16:50:31Z</time>
      </trkpt>
      <trkpt lat="59.9517716" lon="17.6684271">
        <ele>16.4797</ele>
        <time>2012-07-18T16:50:35Z</time>
      </trkpt>
      <trkpt lat="59.9516147" lon="17.6680847">
        <ele>16.9604</ele>
        <time>2012-07-18T16:50:38Z</time>
      </trkpt>
      <trkpt lat="59.951377" lon="17.6680342">
        <ele>16.4797</ele>
        <time>2012-07-18T16:50:41Z</time>
      </trkpt>
      <trkpt lat="59.9507009" lon="17.6682014">
        <ele>17.4412</ele>
        <time>2012-07-18T16:50:50Z</time>
      </trkpt>
      <trkpt lat="59.9501052" lon="17.6681611">
        <ele>18.4023</ele>
        <time>2012-07-18T16:50:58Z</time>
      </trkpt>
      <trkpt lat="59.9495178" lon="17.667906">
        <ele>18.8831</ele>
        <time>2012-07-18T16:51:06Z</time>
      </trkpt>
      <trkpt lat="59.9487936" lon="17.6674909">
        <ele>19.3638</ele>
        <time>2012-07-18T16:51:16Z</time>
      </trkpt>
      <trkpt lat="59.9481921" lon="17.6671504">
        <ele>19.8444</ele>
        <time>2012-07-18T16:51:24Z</time>
      </trkpt>
      <trkpt lat="59.9474828" lon="17.6667814">
        <ele>20.8057</ele>
        <time>2012-07-18T16:51:34Z</time>
      </trkpt>
      <trkpt lat="59.9467506" lon="17.6664637">
        <ele>21.767</ele>
        <time>2012-07-18T16:51:44Z</time>
      </trkpt>
      <trkpt lat="59.9465967" lon="17.6664454">
        <ele>21.767</ele>
        <time>2012-07-18T16:51:46Z</time>
      </trkpt>
      <trkpt lat="59.9462921" lon="17.6663163">
        <ele>22.7283</ele>
        <time>2012-07-18T16:51:50Z</time>
      </trkpt>
      <trkpt lat="59.9458532" lon="17.6660925">
        <ele>22.2476</ele>
        <time>2012-07-18T16:51:56Z</time>
      </trkpt>
      <trkpt lat="59.9451178" lon="17.665807">
        <ele>22.7283</ele>
        <time>2012-07-18T16:52:06Z</time>
      </trkpt>
      <trkpt lat="59.9445283" lon="17.6655807">
        <ele>23.209</ele>
        <time>2012-07-18T16:52:14Z</time>
      </trkpt>
      <trkpt lat="59.9438859" lon="17.6652923">
        <ele>24.1703</ele>
        <time>2012-07-18T16:52:23Z</time>
      </trkpt>
      <trkpt lat="59.9433043" lon="17.6648908">
        <ele>24.651</ele>
        <time>2012-07-18T16:52:32Z</time>
      </trkpt>
      <trkpt lat="59.9427764" lon="17.664392">
        <ele>25.1317</ele>
        <time>2012-07-18T16:52:41Z</time>
      </trkpt>
      <trkpt lat="59.942296" lon="17.6637953">
        <ele>25.6123</ele>
        <time>2012-07-18T16:52:50Z</time>
      </trkpt>
      <trkpt lat="59.941875" lon="17.6631364">
        <ele>25.6123</ele>
        <time>2012-07-18T16:52:58Z</time>
      </trkpt>
      <trkpt lat="59.9414726" lon="17.6624483">
        <ele>26.0929</ele>
        <time>2012-07-18T16:53:06Z</time>
      </trkpt>
      <trkpt lat="59.9410875" lon="17.6621204">
        <ele>27.0543</ele>
        <time>2012-07-18T16:53:12Z</time>
      </trkpt>
      <trkpt lat="59.9407256" lon="17.6620062">
        <ele>27.5349</ele>
        <time>2012-07-18T16:53:17Z</time>
      </trkpt>
      <trkpt lat="59.9404692" lon="17.6616852">
        <ele>27.5349</ele>
        <time>2012-07-18T16:53:21Z</time>
      </trkpt>
      <trkpt lat="59.9404141" lon="17.6612133">
        <ele>26.5736</ele>
        <time>2012-07-18T16:53:24Z</time>
      </trkpt>
      <trkpt lat="59.9404655" lon="17.6607489">
        <ele>25.6123</ele>
        <time>2012-07-18T16:53:27Z</time>
      </trkpt>
      <trkpt lat="59.9405375" lon="17.6601033">
        <ele>26.0929</ele>
        <time>2012-07-18T16:53:32Z</time>
      </trkpt>
      <trkpt lat="59.9405052" lon="17.6599061">
        <ele>27.0543</ele>
        <time>2012-07-18T16:53:34Z</time>
      </trkpt>
      <trkpt lat="59.9404447" lon="17.6595021">
        <ele>25.1317</ele>
        <time>2012-07-18T16:53:37Z</time>
      </trkpt>
      <trkpt lat="59.9401951" lon="17.6583883">
        <ele>24.1703</ele>
        <time>2012-07-18T16:53:45Z</time>
      </trkpt>
      <trkpt lat="59.9399696" lon="17.6573537">
        <ele>25.1317</ele>
        <time>2012-07-18T16:53:53Z</time>
      </trkpt>
      <trkpt lat="59.9397678" lon="17.6563758">
        <ele>25.1317</ele>
        <time>2012-07-18T16:54:01Z</time>
      </trkpt>
      <trkpt lat="59.9395156" lon="17.6551563">
        <ele>25.6123</ele>
        <time>2012-07-18T16:54:11Z</time>
      </trkpt>
      <trkpt lat="59.9392755" lon="17.653963">
        <ele>26.0929</ele>
        <time>2012-07-18T16:54:20Z</time>
      </trkpt>
      <trkpt lat="59.9389833" lon="17.6527239">
        <ele>24.651</ele>
        <time>2012-07-18T16:54:29Z</time>
      </trkpt>
      <trkpt lat="59.938728" lon="17.6518254">
        <ele>24.651</ele>
        <time>2012-07-18T16:54:36Z</time>
      </trkpt>
      <trkpt lat="59.9384432" lon="17.6509879">
        <ele>25.6123</ele>
        <time>2012-07-18T16:54:43Z</time>
      </trkpt>
      <trkpt lat="59.9381785" lon="17.6503238">
        <ele>26.0929</ele>
        <time>2012-07-18T16:54:49Z</time>
      </trkpt>
      <trkpt lat="59.9378418" lon="17.6494638">
        <ele>26.5736</ele>
        <time>2012-07-18T16:54:57Z</time>
      </trkpt>
      <trkpt lat="59.9378066" lon="17.6493558">
        <ele>27.0543</ele>
        <time>2012-07-18T16:54:58Z</time>
      </trkpt>
      <trkpt lat="59.9376287" lon="17.6488368">
        <ele>27.5349</ele>
        <time>2012-07-18T16:55:03Z</time>
      </trkpt>
      <trkpt lat="59.9374757" lon="17.648477">
        <ele>28.0155</ele>
        <time>2012-07-18T16:55:07Z</time>
      </trkpt>
      <trkpt lat="59.9372763" lon="17.6481442">
        <ele>27.5349</ele>
        <time>2012-07-18T16:55:11Z</time>
      </trkpt>
      <trkpt lat="59.9368901" lon="17.6476809">
        <ele>27.0543</ele>
        <time>2012-07-18T16:55:18Z</time>
      </trkpt>
      <trkpt lat="59.936508" lon="17.6471678">
        <ele>26.0929</ele>
        <time>2012-07-18T16:55:25Z</time>
      </trkpt>
      <trkpt lat="59.93609" lon="17.6466153">
        <ele>27.5349</ele>
        <time>2012-07-18T16:55:33Z</time>
      </trkpt>
      <trkpt lat="59.9357796" lon="17.6462264">
        <ele>28.0155</ele>
        <time>2012-07-18T16:55:39Z</time>
      </trkpt>
      <trkpt lat="59.9354803" lon="17.6458779">
        <ele>27.5349</ele>
        <time>2012-07-18T16:55:44Z</time>
      </trkpt>
      <trkpt lat="59.9351316" lon="17.6454561">
        <ele>27.0543</ele>
        <time>2012-07-18T16:55:50Z</time>
      </trkpt>
      <trkpt lat="59.9347954" lon="17.6450867">
        <ele>26.5736</ele>
        <time>2012-07-18T16:55:56Z</time>
      </trkpt>
      <trkpt lat="59.9345727" lon="17.6448081">
        <ele>25.1317</ele>
        <time>2012-07-18T16:56:00Z</time>
      </trkpt>
      <trkpt lat="59.9344067" lon="17.6445253">
        <ele>23.6896</ele>
        <time>2012-07-18T16:56:03Z</time>
      </trkpt>
      <trkpt lat="59.9339231" lon="17.6438968">
        <ele>22.2476</ele>
        <time>2012-07-18T16:56:10Z</time>
      </trkpt>
      <trkpt lat="59.933439" lon="17.6433648">
        <ele>20.325</ele>
        <time>2012-07-18T16:56:16Z</time>
      </trkpt>
      <trkpt lat="59.9331213" lon="17.6428656">
        <ele>18.4023</ele>
        <time>2012-07-18T16:56:20Z</time>
      </trkpt>
      <trkpt lat="59.9329513" lon="17.642642">
        <ele>17.9218</ele>
        <time>2012-07-18T16:56:22Z</time>
      </trkpt>
      <trkpt lat="59.9326436" lon="17.6421496">
        <ele>17.4412</ele>
        <time>2012-07-18T16:56:26Z</time>
      </trkpt>
      <trkpt lat="59.9320758" lon="17.64161">
        <ele>17.9218</ele>
        <time>2012-07-18T16:56:33Z</time>
      </trkpt>
      <trkpt lat="59.9320027" lon="17.6415462">
        <ele>17.4412</ele>
        <time>2012-07-18T16:56:34Z</time>
      </trkpt>
      <trkpt lat="59.9313801" lon="17.6411085">
        <ele>16.4797</ele>
        <time>2012-07-18T16:56:42Z</time>
      </trkpt>
      <trkpt lat="59.9309641" lon="17.6408143">
        <ele>15.0377</ele>
        <time>2012-07-18T16:56:47Z</time>
      </trkpt>
      <trkpt lat="59.9305045" lon="17.6407843">
        <ele>15.0377</ele>
        <time>2012-07-18T16:56:52Z</time>
      </trkpt>
      <trkpt lat="59.9299317" lon="17.6407703">
        <ele>14.557</ele>
        <time>2012-07-18T16:56:58Z</time>
      </trkpt>
      <trkpt lat="59.9294785" lon="17.640835">
        <ele>15.0377</ele>
        <time>2012-07-18T16:57:03Z</time>
      </trkpt>
      <trkpt lat="59.9288398" lon="17.6408893">
        <ele>15.5184</ele>
        <time>2012-07-18T16:57:10Z</time>
      </trkpt>
      <trkpt lat="59.9282312" lon="17.6409965">
        <ele>15.5184</ele>
        <time>2012-07-18T16:57:17Z</time>
      </trkpt>
      <trkpt lat="59.927395" lon="17.6410829">
        <ele>15.0377</ele>
        <time>2012-07-18T16:57:27Z</time>
      </trkpt>
      <trkpt lat="59.9265906" lon="17.6411567">
        <ele>15.5184</ele>
        <time>2012-07-18T16:57:37Z</time>
      </trkpt>
      <trkpt lat="59.9258709" lon="17.6412506">
        <ele>15.999</ele>
        <time>2012-07-18T16:57:46Z</time>
      </trkpt>
      <trkpt lat="59.925202" lon="17.6413157">
        <ele>16.9604</ele>
        <time>2012-07-18T16:57:55Z</time>
      </trkpt>
      <trkpt lat="59.9245832" lon="17.6413956">
        <ele>17.9218</ele>
        <time>2012-07-18T16:58:04Z</time>
      </trkpt>
      <trkpt lat="59.9240411" lon="17.6414516">
        <ele>18.4023</ele>
        <time>2012-07-18T16:58:12Z</time>
      </trkpt>
      <trkpt lat="59.9235784" lon="17.6415172">
        <ele>19.3638</ele>
        <time>2012-07-18T16:58:19Z</time>
      </trkpt>
      <trkpt lat="59.9231106" lon="17.6415908">
        <ele>20.325</ele>
        <time>2012-07-18T16:58:27Z</time>
      </trkpt>
      <trkpt lat="59.922586" lon="17.6416467">
        <ele>21.767</ele>
        <time>2012-07-18T16:58:36Z</time>
      </trkpt>
      <trkpt lat="59.9220706" lon="17.6417043">
        <ele>22.2476</ele>
        <time>2012-07-18T16:58:44Z</time>
      </trkpt>
      <trkpt lat="59.9214415" lon="17.6417768">
        <ele>25.1317</ele>
        <time>2012-07-18T16:58:54Z</time>
      </trkpt>
      <trkpt lat="59.9210122" lon="17.6418093">
        <ele>24.1703</ele>
        <time>2012-07-18T16:59:00Z</time>
      </trkpt>
      <trkpt lat="59.9204039" lon="17.6418223">
        <ele>23.6896</ele>
        <time>2012-07-18T16:59:08Z</time>
      </trkpt>
      <trkpt lat="59.919815" lon="17.6418897">
        <ele>23.209</ele>
        <time>2012-07-18T16:59:16Z</time>
      </trkpt>
      <trkpt lat="59.9192389" lon="17.6419833">
        <ele>23.209</ele>
        <time>2012-07-18T16:59:24Z</time>
      </trkpt>
      <trkpt lat="59.9186464" lon="17.6420532">
        <ele>22.7283</ele>
        <time>2012-07-18T16:59:32Z</time>
      </trkpt>
      <trkpt lat="59.9181389" lon="17.6421166">
        <ele>21.767</ele>
        <time>2012-07-18T16:59:39Z</time>
      </trkpt>
      <trkpt lat="59.917568" lon="17.6421452">
        <ele>21.2864</ele>
        <time>2012-07-18T16:59:46Z</time>
      </trkpt>
      <trkpt lat="59.917237" lon="17.6421488">
        <ele>20.8057</ele>
        <time>2012-07-18T16:59:50Z</time>
      </trkpt>
      <trkpt lat="59.9169161" lon="17.6422324">
        <ele>20.8057</ele>
        <time>2012-07-18T16:59:54Z</time>
      </trkpt>
      <trkpt lat="59.9163392" lon="17.6423108">
        <ele>21.2864</ele>
        <time>2012-07-18T17:00:02Z</time>
      </trkpt>
      <trkpt lat="59.9157725" lon="17.6423311">
        <ele>20.325</ele>
        <time>2012-07-18T17:00:10Z</time>
      </trkpt>
      <trkpt lat="59.9154068" lon="17.642388">
        <ele>21.2864</ele>
        <time>2012-07-18T17:00:15Z</time>
      </trkpt>
      <trkpt lat="59.9151466" lon="17.6425481">
        <ele>21.767</ele>
        <time>2012-07-18T17:00:19Z</time>
      </trkpt>
      <trkpt lat="59.9146921" lon="17.6426469">
        <ele>20.8057</ele>
        <time>2012-07-18T17:00:27Z</time>
      </trkpt>
      <trkpt lat="59.9141406" lon="17.6427558">
        <ele>21.767</ele>
        <time>2012-07-18T17:00:37Z</time>
      </trkpt>
      <trkpt lat="59.9137538" lon="17.6427882">
        <ele>21.2864</ele>
        <time>2012-07-18T17:00:45Z</time>
      </trkpt>
      <trkpt lat="59.9133462" lon="17.6428822">
        <ele>24.651</ele>
        <time>2012-07-18T17:00:53Z</time>
      </trkpt>
      <trkpt lat="59.9129442" lon="17.6429458">
        <ele>24.651</ele>
        <time>2012-07-18T17:01:00Z</time>
      </trkpt>
      <trkpt lat="59.912823" lon="17.6429588">
        <ele>23.209</ele>
        <time>2012-07-18T17:01:02Z</time>
      </trkpt>
      <trkpt lat="59.9125632" lon="17.642891">
        <ele>22.7283</ele>
        <time>2012-07-18T17:01:06Z</time>
      </trkpt>
      <trkpt lat="59.9124905" lon="17.6428992">
        <ele>22.7283</ele>
        <time>2012-07-18T17:01:07Z</time>
      </trkpt>
      <trkpt lat="59.911979" lon="17.6430464">
        <ele>23.6896</ele>
        <time>2012-07-18T17:01:15Z</time>
      </trkpt>
      <trkpt lat="59.9114762" lon="17.6431468">
        <ele>22.2476</ele>
        <time>2012-07-18T17:01:23Z</time>
      </trkpt>
      <trkpt lat="59.910969" lon="17.6432544">
        <ele>20.8057</ele>
        <time>2012-07-18T17:01:31Z</time>
      </trkpt>
      <trkpt lat="59.9104795" lon="17.6434058">
        <ele>19.8444</ele>
        <time>2012-07-18T17:01:38Z</time>
      </trkpt>
      <trkpt lat="59.9101415" lon="17.6434627">
        <ele>18.4023</ele>
        <time>2012-07-18T17:01:43Z</time>
      </trkpt>
      <trkpt lat="59.9099188" lon="17.6433976">
        <ele>16.9604</ele>
        <time>2012-07-18T17:01:46Z</time>
      </trkpt>
      <trkpt lat="59.9095372" lon="17.6434487">
        <ele>17.9218</ele>
        <time>2012-07-18T17:01:51Z</time>
      </trkpt>
      <trkpt lat="59.9088712" lon="17.6435644">
        <ele>18.8831</ele>
        <time>2012-07-18T17:02:00Z</time>
      </trkpt>
      <trkpt lat="59.9082708" lon="17.6435759">
        <ele>19.8444</ele>
        <time>2012-07-18T17:02:08Z</time>
      </trkpt>
      <trkpt lat="59.9076056" lon="17.6434666">
        <ele>19.8444</ele>
        <time>2012-07-18T17:02:17Z</time>
      </trkpt>
      <trkpt lat="59.9068265" lon="17.6432908">
        <ele>20.325</ele>
        <time>2012-07-18T17:02:27Z</time>
      </trkpt>
      <trkpt lat="59.9061757" lon="17.6430525">
        <ele>19.8444</ele>
        <time>2012-07-18T17:02:35Z</time>
      </trkpt>
      <trkpt lat="59.9055982" lon="17.6428017">
        <ele>17.4412</ele>
        <time>2012-07-18T17:02:42Z</time>
      </trkpt>
      <trkpt lat="59.9054477" lon="17.6427853">
        <ele>17.4412</ele>
        <time>2012-07-18T17:02:44Z</time>
      </trkpt>
      <trkpt lat="59.9049245" lon="17.6425503">
        <ele>16.9604</ele>
        <time>2012-07-18T17:02:51Z</time>
      </trkpt>
      <trkpt lat="59.9046912" lon="17.642373">
        <ele>16.4797</ele>
        <time>2012-07-18T17:02:54Z</time>
      </trkpt>
      <trkpt lat="59.9039796" lon="17.6419781">
        <ele>16.9604</ele>
        <time>2012-07-18T17:03:03Z</time>
      </trkpt>
      <trkpt lat="59.903747" lon="17.6418746">
        <ele>17.9218</ele>
        <time>2012-07-18T17:03:06Z</time>
      </trkpt>
      <trkpt lat="59.9034159" lon="17.6417709">
        <ele>18.8831</ele>
        <time>2012-07-18T17:03:11Z</time>
      </trkpt>
      <trkpt lat="59.9033505" lon="17.6417322">
        <ele>19.3638</ele>
        <time>2012-07-18T17:03:12Z</time>
      </trkpt>
      <trkpt lat="59.9027948" lon="17.6414359">
        <ele>18.8831</ele>
        <time>2012-07-18T17:03:20Z</time>
      </trkpt>
      <trkpt lat="59.9022552" lon="17.6410716">
        <ele>18.4023</ele>
        <time>2012-07-18T17:03:28Z</time>
      </trkpt>
      <trkpt lat="59.9016785" lon="17.6405937">
        <ele>17.9218</ele>
        <time>2012-07-18T17:03:37Z</time>
      </trkpt>
      <trkpt lat="59.9009425" lon="17.6398871">
        <ele>18.4023</ele>
        <time>2012-07-18T17:03:49Z</time>
      </trkpt>
      <trkpt lat="59.90038" lon="17.6393163">
        <ele>19.8444</ele>
        <time>2012-07-18T17:03:58Z</time>
      </trkpt>
      <trkpt lat="59.8999624" lon="17.638906">
        <ele>20.8057</ele>
        <time>2012-07-18T17:04:05Z</time>
      </trkpt>
      <trkpt lat="59.8994608" lon="17.6384329">
        <ele>21.767</ele>
        <time>2012-07-18T17:04:14Z</time>
      </trkpt>
      <trkpt lat="59.8990569" lon="17.638069">
        <ele>21.767</ele>
        <time>2012-07-18T17:04:22Z</time>
      </trkpt>
      <trkpt lat="59.8986783" lon="17.6377322">
        <ele>21.2864</ele>
        <time>2012-07-18T17:04:30Z</time>
      </trkpt>
      <trkpt lat="59.8983778" lon="17.6374524">
        <ele>20.325</ele>
        <time>2012-07-18T17:04:36Z</time>
      </trkpt>
      <trkpt lat="59.8979804" lon="17.6371215">
        <ele>19.8444</ele>
        <time>2012-07-18T17:04:44Z</time>
      </trkpt>
      <trkpt lat="59.89788" lon="17.6370355">
        <ele>19.8444</ele>
        <time>2012-07-18T17:04:46Z</time>
      </trkpt>
      <trkpt lat="59.8976639" lon="17.6369298">
        <ele>21.767</ele>
        <time>2012-07-18T17:04:51Z</time>
      </trkpt>
      <trkpt lat="59.897634" lon="17.6368998">
        <ele>21.2864</ele>
        <time>2012-07-18T17:04:52Z</time>
      </trkpt>
      <trkpt lat="59.8974567" lon="17.6367431">
        <ele>21.767</ele>
        <time>2012-07-18T17:04:57Z</time>
      </trkpt>
      <trkpt lat="59.8974029" lon="17.6365081">
        <ele>21.767</ele>
        <time>2012-07-18T17:05:01Z</time>
      </trkpt>
      <trkpt lat="59.8974263" lon="17.6364246">
        <ele>21.767</ele>
        <time>2012-07-18T17:05:02Z</time>
      </trkpt>
      <trkpt lat="59.8976632" lon="17.6356377">
        <ele>21.2864</ele>
        <time>2012-07-18T17:05:11Z</time>
      </trkpt>
      <trkpt lat="59.8977606" lon="17.6353966">
        <ele>20.8057</ele>
        <time>2012-07-18T17:05:14Z</time>
      </trkpt>
      <trkpt lat="59.897829" lon="17.6352685">
        <ele>19.3638</ele>
        <time>2012-07-18T17:05:17Z</time>
      </trkpt>
      <trkpt lat="59.8978571" lon="17.6352147">
        <ele>18.8831</ele>
        <time>2012-07-18T17:05:19Z</time>
      </trkpt>
      <trkpt lat="59.8979702" lon="17.635049">
        <ele>17.4412</ele>
        <time>2012-07-18T17:05:24Z</time>
      </trkpt>
      <trkpt lat="59.8979949" lon="17.6349815">
        <ele>16.9604</ele>
        <time>2012-07-18T17:05:25Z</time>
      </trkpt>
      <trkpt lat="59.8980694" lon="17.6346399">
        <ele>18.4023</ele>
        <time>2012-07-18T17:05:30Z</time>
      </trkpt>
      <trkpt lat="59.898109" lon="17.6342997">
        <ele>19.3638</ele>
        <time>2012-07-18T17:05:36Z</time>
      </trkpt>
      <trkpt lat="59.8981727" lon="17.6336909">
        <ele>18.8831</ele>
        <time>2012-07-18T17:05:45Z</time>
      </trkpt>
      <trkpt lat="59.8982137" lon="17.6333139">
        <ele>18.8831</ele>
        <time>2012-07-18T17:05:51Z</time>
      </trkpt>
      <trkpt lat="59.8982659" lon="17.6329851">
        <ele>19.8444</ele>
        <time>2012-07-18T17:05:57Z</time>
      </trkpt>
      <trkpt lat="59.8983341" lon="17.6327406">
        <ele>21.2864</ele>
        <time>2012-07-18T17:06:02Z</time>
      </trkpt>
      <trkpt lat="59.8979571" lon="17.6350766">
        <ele>19.3638</ele>
        <time>2012-07-18T17:18:46Z</time>
      </trkpt>
      <trkpt lat="59.8979792" lon="17.6350179">
        <ele>17.9218</ele>
        <time>2012-07-18T17:18:47Z</time>
      </trkpt>
      <trkpt lat="59.8980695" lon="17.6347117">
        <ele>19.3638</ele>
        <time>2012-07-18T17:18:51Z</time>
      </trkpt>
      <trkpt lat="59.8981239" lon="17.6343407">
        <ele>20.325</ele>
        <time>2012-07-18T17:18:57Z</time>
      </trkpt>
      <trkpt lat="59.8981909" lon="17.6338262">
        <ele>19.8444</ele>
        <time>2012-07-18T17:19:04Z</time>
      </trkpt>
      <trkpt lat="59.8982399" lon="17.6333498">
        <ele>19.8444</ele>
        <time>2012-07-18T17:19:10Z</time>
      </trkpt>
      <trkpt lat="59.8982871" lon="17.6330385">
        <ele>21.2864</ele>
        <time>2012-07-18T17:19:14Z</time>
      </trkpt>
      <trkpt lat="59.8983569" lon="17.6327409">
        <ele>22.7283</ele>
        <time>2012-07-18T17:19:18Z</time>
      </trkpt>
      <trkpt lat="59.8983336" lon="17.6324282">
        <ele>23.209</ele>
        <time>2012-07-18T17:19:22Z</time>
      </trkpt>
      <trkpt lat="59.8982998" lon="17.6323656">
        <ele>23.209</ele>
        <time>2012-07-18T17:19:23Z</time>
      </trkpt>
      <trkpt lat="59.898227" lon="17.6322434">
        <ele>22.7283</ele>
        <time>2012-07-18T17:19:25Z</time>
      </trkpt>
      <trkpt lat="59.8981586" lon="17.6321029">
        <ele>22.7283</ele>
        <time>2012-07-18T17:19:27Z</time>
      </trkpt>
      <trkpt lat="59.8980667" lon="17.6317464">
        <ele>23.209</ele>
        <time>2012-07-18T17:19:31Z</time>
      </trkpt>
      <trkpt lat="59.897966" lon="17.6311062">
        <ele>23.6896</ele>
        <time>2012-07-18T17:19:39Z</time>
      </trkpt>
      <trkpt lat="59.8977928" lon="17.6303929">
        <ele>22.7283</ele>
        <time>2012-07-18T17:19:48Z</time>
      </trkpt>
      <trkpt lat="59.8977722" lon="17.6303163">
        <ele>22.2476</ele>
        <time>2012-07-18T17:19:49Z</time>
      </trkpt>
      <trkpt lat="59.8976127" lon="17.6298468">
        <ele>22.2476</ele>
        <time>2012-07-18T17:19:55Z</time>
      </trkpt>
      <trkpt lat="59.8972619" lon="17.6290848">
        <ele>22.2476</ele>
        <time>2012-07-18T17:20:04Z</time>
      </trkpt>
      <trkpt lat="59.8969732" lon="17.6285963">
        <ele>22.2476</ele>
        <time>2012-07-18T17:20:11Z</time>
      </trkpt>
      <trkpt lat="59.8968004" lon="17.6283772">
        <ele>22.2476</ele>
        <time>2012-07-18T17:20:15Z</time>
      </trkpt>
      <trkpt lat="59.8963421" lon="17.6279587">
        <ele>22.2476</ele>
        <time>2012-07-18T17:20:24Z</time>
      </trkpt>
      <trkpt lat="59.8958919" lon="17.6276542">
        <ele>22.7283</ele>
        <time>2012-07-18T17:20:32Z</time>
      </trkpt>
      <trkpt lat="59.8954959" lon="17.6275012">
        <ele>23.209</ele>
        <time>2012-07-18T17:20:40Z</time>
      </trkpt>
      <trkpt lat="59.8951303" lon="17.6272487">
        <ele>22.7283</ele>
        <time>2012-07-18T17:20:47Z</time>
      </trkpt>
      <trkpt lat="59.8947227" lon="17.627015">
        <ele>22.7283</ele>
        <time>2012-07-18T17:20:54Z</time>
      </trkpt>
      <trkpt lat="59.8943216" lon="17.6265602">
        <ele>21.767</ele>
        <time>2012-07-18T17:21:02Z</time>
      </trkpt>
      <trkpt lat="59.8940602" lon="17.6260759">
        <ele>21.2864</ele>
        <time>2012-07-18T17:21:08Z</time>
      </trkpt>
      <trkpt lat="59.8938802" lon="17.6255511">
        <ele>21.2864</ele>
        <time>2012-07-18T17:21:14Z</time>
      </trkpt>
      <trkpt lat="59.8938244" lon="17.6253785">
        <ele>20.8057</ele>
        <time>2012-07-18T17:21:16Z</time>
      </trkpt>
      <trkpt lat="59.8937047" lon="17.6246857">
        <ele>16.9604</ele>
        <time>2012-07-18T17:21:21Z</time>
      </trkpt>
      <trkpt lat="59.8934948" lon="17.623972">
        <ele>14.557</ele>
        <time>2012-07-18T17:21:26Z</time>
      </trkpt>
      <trkpt lat="59.893152" lon="17.6234343">
        <ele>13.5958</ele>
        <time>2012-07-18T17:21:32Z</time>
      </trkpt>
      <trkpt lat="59.8930634" lon="17.6232942">
        <ele>14.0764</ele>
        <time>2012-07-18T17:21:34Z</time>
      </trkpt>
      <trkpt lat="59.8929236" lon="17.6231424">
        <ele>15.999</ele>
        <time>2012-07-18T17:21:37Z</time>
      </trkpt>
      <trkpt lat="59.8926496" lon="17.623037">
        <ele>16.9604</ele>
        <time>2012-07-18T17:21:42Z</time>
      </trkpt>
      <trkpt lat="59.8924807" lon="17.6231295">
        <ele>19.8444</ele>
        <time>2012-07-18T17:21:46Z</time>
      </trkpt>
      <trkpt lat="59.8924502" lon="17.623192">
        <ele>20.8057</ele>
        <time>2012-07-18T17:21:47Z</time>
      </trkpt>
      <trkpt lat="59.8922585" lon="17.6235512">
        <ele>17.4412</ele>
        <time>2012-07-18T17:21:52Z</time>
      </trkpt>
      <trkpt lat="59.8920903" lon="17.6238832">
        <ele>14.0764</ele>
        <time>2012-07-18T17:21:56Z</time>
      </trkpt>
      <trkpt lat="59.8919896" lon="17.6239141">
        <ele>13.5958</ele>
        <time>2012-07-18T17:21:58Z</time>
      </trkpt>
      <trkpt lat="59.8916135" lon="17.623964">
        <ele>11.6732</ele>
        <time>2012-07-18T17:22:06Z</time>
      </trkpt>
      <trkpt lat="59.8912769" lon="17.6240182">
        <ele>11.6732</ele>
        <time>2012-07-18T17:22:12Z</time>
      </trkpt>
      <trkpt lat="59.8908589" lon="17.6240215">
        <ele>10.7118</ele>
        <time>2012-07-18T17:22:20Z</time>
      </trkpt>
      <trkpt lat="59.8904891" lon="17.6240085">
        <ele>8.30859</ele>
        <time>2012-07-18T17:22:26Z</time>
      </trkpt>
      <trkpt lat="59.8899382" lon="17.6240375">
        <ele>8.30859</ele>
        <time>2012-07-18T17:22:34Z</time>
      </trkpt>
      <trkpt lat="59.8896302" lon="17.6240358">
        <ele>8.78918</ele>
        <time>2012-07-18T17:22:39Z</time>
      </trkpt>
      <trkpt lat="59.8893968" lon="17.6242702">
        <ele>9.75061</ele>
        <time>2012-07-18T17:22:44Z</time>
      </trkpt>
      <trkpt lat="59.8893582" lon="17.6243333">
        <ele>9.75061</ele>
        <time>2012-07-18T17:22:45Z</time>
      </trkpt>
      <trkpt lat="59.8891984" lon="17.6244893">
        <ele>10.7118</ele>
        <time>2012-07-18T17:22:49Z</time>
      </trkpt>
      <trkpt lat="59.8887913" lon="17.6248264">
        <ele>9.75061</ele>
        <time>2012-07-18T17:22:57Z</time>
      </trkpt>
      <trkpt lat="59.8884195" lon="17.6249744">
        <ele>10.2312</ele>
        <time>2012-07-18T17:23:04Z</time>
      </trkpt>
      <trkpt lat="59.8880339" lon="17.6250221">
        <ele>10.2312</ele>
        <time>2012-07-18T17:23:11Z</time>
      </trkpt>
      <trkpt lat="59.8877615" lon="17.6251267">
        <ele>10.2312</ele>
        <time>2012-07-18T17:23:16Z</time>
      </trkpt>
      <trkpt lat="59.8872401" lon="17.6253334">
        <ele>11.6732</ele>
        <time>2012-07-18T17:23:25Z</time>
      </trkpt>
      <trkpt lat="59.8871887" lon="17.6253537">
        <ele>11.6732</ele>
        <time>2012-07-18T17:23:26Z</time>
      </trkpt>
      <trkpt lat="59.8869002" lon="17.6254574">
        <ele>10.2312</ele>
        <time>2012-07-18T17:23:31Z</time>
      </trkpt>
      <trkpt lat="59.8862944" lon="17.6255003">
        <ele>8.78918</ele>
        <time>2012-07-18T17:23:39Z</time>
      </trkpt>
      <trkpt lat="59.886024" lon="17.6255051">
        <ele>9.2699</ele>
        <time>2012-07-18T17:23:43Z</time>
      </trkpt>
      <trkpt lat="59.8858476" lon="17.6253569">
        <ele>8.30859</ele>
        <time>2012-07-18T17:23:47Z</time>
      </trkpt>
      <trkpt lat="59.8856737" lon="17.6252381">
        <ele>7.34717</ele>
        <time>2012-07-18T17:23:50Z</time>
      </trkpt>
      <trkpt lat="59.8856145" lon="17.625246">
        <ele>7.34717</ele>
        <time>2012-07-18T17:23:51Z</time>
      </trkpt>
      <trkpt lat="59.8852429" lon="17.6253875">
        <ele>7.82788</ele>
        <time>2012-07-18T17:23:57Z</time>
      </trkpt>
      <trkpt lat="59.8847691" lon="17.6254272">
        <ele>8.30859</ele>
        <time>2012-07-18T17:24:05Z</time>
      </trkpt>
      <trkpt lat="59.8841259" lon="17.6254551">
        <ele>8.30859</ele>
        <time>2012-07-18T17:24:16Z</time>
      </trkpt>
      <trkpt lat="59.8836021" lon="17.6255453">
        <ele>8.30859</ele>
        <time>2012-07-18T17:24:25Z</time>
      </trkpt>
      <trkpt lat="59.88326" lon="17.6256346">
        <ele>7.82788</ele>
        <time>2012-07-18T17:24:31Z</time>
      </trkpt>
      <trkpt lat="59.882852" lon="17.6258398">
        <ele>6.86646</ele>
        <time>2012-07-18T17:24:39Z</time>
      </trkpt>
      <trkpt lat="59.8828075" lon="17.6258566">
        <ele>6.86646</ele>
        <time>2012-07-18T17:24:40Z</time>
      </trkpt>
      <trkpt lat="59.8826795" lon="17.6257443">
        <ele>6.86646</ele>
        <time>2012-07-18T17:24:44Z</time>
      </trkpt>
      <trkpt lat="59.882626" lon="17.6256266">
        <ele>6.86646</ele>
        <time>2012-07-18T17:24:46Z</time>
      </trkpt>
      <trkpt lat="59.8824608" lon="17.6253792">
        <ele>8.30859</ele>
        <time>2012-07-18T17:24:51Z</time>
      </trkpt>
      <trkpt lat="59.8822527" lon="17.6251109">
        <ele>8.30859</ele>
        <time>2012-07-18T17:24:56Z</time>
      </trkpt>
      <trkpt lat="59.8822195" lon="17.6250169">
        <ele>8.30859</ele>
        <time>2012-07-18T17:24:57Z</time>
      </trkpt>
      <trkpt lat="59.8821092" lon="17.6247249">
        <ele>9.2699</ele>
        <time>2012-07-18T17:25:00Z</time>
      </trkpt>
      <trkpt lat="59.8818258" lon="17.6243297">
        <ele>11.6732</ele>
        <time>2012-07-18T17:25:06Z</time>
      </trkpt>
      <trkpt lat="59.8815834" lon="17.6241389">
        <ele>12.6344</ele>
        <time>2012-07-18T17:25:11Z</time>
      </trkpt>
      <trkpt lat="59.8815252" lon="17.6238983">
        <ele>11.1925</ele>
        <time>2012-07-18T17:25:15Z</time>
      </trkpt>
      <trkpt lat="59.8815382" lon="17.6238216">
        <ele>11.1925</ele>
        <time>2012-07-18T17:25:16Z</time>
      </trkpt>
      <trkpt lat="59.8816096" lon="17.623403">
        <ele>10.7118</ele>
        <time>2012-07-18T17:25:21Z</time>
      </trkpt>
      <trkpt lat="59.8816166" lon="17.6230435">
        <ele>10.2312</ele>
        <time>2012-07-18T17:25:25Z</time>
      </trkpt>
      <trkpt lat="59.8815497" lon="17.6225523">
        <ele>9.2699</ele>
        <time>2012-07-18T17:25:30Z</time>
      </trkpt>
      <trkpt lat="59.8814927" lon="17.6223448">
        <ele>7.82788</ele>
        <time>2012-07-18T17:25:32Z</time>
      </trkpt>
      <trkpt lat="59.8812943" lon="17.6216215">
        <ele>7.34717</ele>
        <time>2012-07-18T17:25:38Z</time>
      </trkpt>
      <trkpt lat="59.8811413" lon="17.6212849">
        <ele>7.34717</ele>
        <time>2012-07-18T17:25:42Z</time>
      </trkpt>
      <trkpt lat="59.8807064" lon="17.6207331">
        <ele>6.38586</ele>
        <time>2012-07-18T17:25:51Z</time>
      </trkpt>
      <trkpt lat="59.8805567" lon="17.6203581">
        <ele>4.94385</ele>
        <time>2012-07-18T17:25:56Z</time>
      </trkpt>
      <trkpt lat="59.8804106" lon="17.6197047">
        <ele>1.57935</ele>
        <time>2012-07-18T17:26:03Z</time>
      </trkpt>
      <trkpt lat="59.8803116" lon="17.6192035">
        <ele>0</ele>
        <time>2012-07-18T17:26:09Z</time>
      </trkpt>
      <trkpt lat="59.8802491" lon="17.6188712">
        <ele>0</ele>
        <time>2012-07-18T17:26:13Z</time>
      </trkpt>
      <trkpt lat="59.8801355" lon="17.6184036">
        <ele>0</ele>
        <time>2012-07-18T17:26:18Z</time>
      </trkpt>
      <trkpt lat="59.880035" lon="17.61798">
        <ele>0</ele>
        <time>2012-07-18T17:26:23Z</time>
      </trkpt>
      <trkpt lat="59.8799749" lon="17.6176954">
        <ele>0</ele>
        <time>2012-07-18T17:26:26Z</time>
      </trkpt>
      <trkpt lat="59.8799344" lon="17.6175059">
        <ele>0</ele>
        <time>2012-07-18T17:26:28Z</time>
      </trkpt>
      <trkpt lat="59.879764" lon="17.616835">
        <ele>0</ele>
        <time>2012-07-18T17:26:35Z</time>
      </trkpt>
      <trkpt lat="59.8797251" lon="17.6166734">
        <ele>0</ele>
        <time>2012-07-18T17:26:37Z</time>
      </trkpt>
      <trkpt lat="59.8796527" lon="17.6163959">
        <ele>0</ele>
        <time>2012-07-18T17:26:42Z</time>
      </trkpt>
      <trkpt lat="59.8796303" lon="17.6162822">
        <ele>0</ele>
        <time>2012-07-18T17:26:44Z</time>
      </trkpt>
      <trkpt lat="59.8795552" lon="17.6159161">
        <ele>1.09863</ele>
        <time>2012-07-18T17:26:49Z</time>
      </trkpt>
      <trkpt lat="59.8794429" lon="17.6153799">
        <ele>3.02124</ele>
        <time>2012-07-18T17:26:55Z</time>
      </trkpt>
      <trkpt lat="59.8793427" lon="17.6148764">
        <ele>5.42456</ele>
        <time>2012-07-18T17:27:00Z</time>
      </trkpt>
      <trkpt lat="59.8791761" lon="17.6142446">
        <ele>2.54065</ele>
        <time>2012-07-18T17:27:06Z</time>
      </trkpt>
      <trkpt lat="59.8790188" lon="17.6135877">
        <ele>1.57935</ele>
        <time>2012-07-18T17:27:12Z</time>
      </trkpt>
      <trkpt lat="59.8787906" lon="17.6128396">
        <ele>1.57935</ele>
        <time>2012-07-18T17:27:19Z</time>
      </trkpt>
      <trkpt lat="59.8786007" lon="17.6122253">
        <ele>0.618042</ele>
        <time>2012-07-18T17:27:25Z</time>
      </trkpt>
      <trkpt lat="59.878394" lon="17.61156">
        <ele>2.06006</ele>
        <time>2012-07-18T17:27:32Z</time>
      </trkpt>
      <trkpt lat="59.8782161" lon="17.6112995">
        <ele>3.98267</ele>
        <time>2012-07-18T17:27:36Z</time>
      </trkpt>
      <trkpt lat="59.8781259" lon="17.6111783">
        <ele>4.94385</ele>
        <time>2012-07-18T17:27:38Z</time>
      </trkpt>
      <trkpt lat="59.8779458" lon="17.6107768">
        <ele>2.54065</ele>
        <time>2012-07-18T17:27:44Z</time>
      </trkpt>
      <trkpt lat="59.8777927" lon="17.6103413">
        <ele>0</ele>
        <time>2012-07-18T17:27:49Z</time>
      </trkpt>
      <trkpt lat="59.8775853" lon="17.609627">
        <ele>0</ele>
        <time>2012-07-18T17:27:55Z</time>
      </trkpt>
      <trkpt lat="59.8772782" lon="17.6085621">
        <ele>0</ele>
        <time>2012-07-18T17:28:03Z</time>
      </trkpt>
      <trkpt lat="59.8769772" lon="17.607561">
        <ele>0</ele>
        <time>2012-07-18T17:28:11Z</time>
      </trkpt>
      <trkpt lat="59.8767078" lon="17.6066335">
        <ele>0.618042</ele>
        <time>2012-07-18T17:28:19Z</time>
      </trkpt>
      <trkpt lat="59.8764795" lon="17.6059463">
        <ele>1.57935</ele>
        <time>2012-07-18T17:28:26Z</time>
      </trkpt>
      <trkpt lat="59.8763551" lon="17.6056747">
        <ele>1.09863</ele>
        <time>2012-07-18T17:28:30Z</time>
      </trkpt>
      <trkpt lat="59.8762602" lon="17.6054791">
        <ele>1.09863</ele>
        <time>2012-07-18T17:28:33Z</time>
      </trkpt>
      <trkpt lat="59.8760508" lon="17.605274">
        <ele>0</ele>
        <time>2012-07-18T17:28:38Z</time>
      </trkpt>
      <trkpt lat="59.8759411" lon="17.6052678">
        <ele>0</ele>
        <time>2012-07-18T17:28:40Z</time>
      </trkpt>
      <trkpt lat="59.8757055" lon="17.6052928">
        <ele>0</ele>
        <time>2012-07-18T17:28:44Z</time>
      </trkpt>
      <trkpt lat="59.8754407" lon="17.6050804">
        <ele>0</ele>
        <time>2012-07-18T17:28:49Z</time>
      </trkpt>
      <trkpt lat="59.8750132" lon="17.6042857">
        <ele>0</ele>
        <time>2012-07-18T17:28:59Z</time>
      </trkpt>
      <trkpt lat="59.8746155" lon="17.6035643">
        <ele>0</ele>
        <time>2012-07-18T17:29:08Z</time>
      </trkpt>
      <trkpt lat="59.8741756" lon="17.6027478">
        <ele>0</ele>
        <time>2012-07-18T17:29:18Z</time>
      </trkpt>
      <trkpt lat="59.8737583" lon="17.602038">
        <ele>0</ele>
        <time>2012-07-18T17:29:27Z</time>
      </trkpt>
      <trkpt lat="59.8734924" lon="17.6015783">
        <ele>0</ele>
        <time>2012-07-18T17:29:33Z</time>
      </trkpt>
      <trkpt lat="59.8733572" lon="17.6012108">
        <ele>0</ele>
        <time>2012-07-18T17:29:37Z</time>
      </trkpt>
      <trkpt lat="59.8732789" lon="17.6006471">
        <ele>0</ele>
        <time>2012-07-18T17:29:42Z</time>
      </trkpt>
      <trkpt lat="59.8732912" lon="17.5999561">
        <ele>0</ele>
        <time>2012-07-18T17:29:48Z</time>
      </trkpt>
      <trkpt lat="59.8732228" lon="17.5991974">
        <ele>0</ele>
        <time>2012-07-18T17:29:55Z</time>
      </trkpt>
      <trkpt lat="59.8731723" lon="17.5989285">
        <ele>0</ele>
        <time>2012-07-18T17:29:58Z</time>
      </trkpt>
      <trkpt lat="59.8729363" lon="17.5983458">
        <ele>0</ele>
        <time>2012-07-18T17:30:06Z</time>
      </trkpt>
      <trkpt lat="59.8728402" lon="17.5981463">
        <ele>0</ele>
        <time>2012-07-18T17:30:10Z</time>
      </trkpt>
      <trkpt lat="59.8727445" lon="17.5981043">
        <ele>0</ele>
        <time>2012-07-18T17:30:15Z</time>
      </trkpt>
      <trkpt lat="59.8726905" lon="17.5981323">
        <ele>0</ele>
        <time>2012-07-18T17:30:19Z</time>
      </trkpt>
      <trkpt lat="59.8726599" lon="17.5982013">
        <ele>0</ele>
        <time>2012-07-18T17:30:21Z</time>
      </trkpt>
      <trkpt lat="59.8725685" lon="17.598371">
        <ele>0</ele>
        <time>2012-07-18T17:30:25Z</time>
      </trkpt>
      <trkpt lat="59.8725016" lon="17.5983427">
        <ele>0</ele>
        <time>2012-07-18T17:30:29Z</time>
      </trkpt>
      <trkpt lat="59.8724157" lon="17.5981515">
        <ele>0.618042</ele>
        <time>2012-07-18T17:30:35Z</time>
      </trkpt>
      <trkpt lat="59.8724357" lon="17.5979727">
        <ele>1.09863</ele>
        <time>2012-07-18T17:30:39Z</time>
      </trkpt>
      <trkpt lat="59.8724232" lon="17.5978599">
        <ele>2.06006</ele>
        <time>2012-07-18T17:30:41Z</time>
      </trkpt>
      <trkpt lat="59.8723595" lon="17.5975759">
        <ele>2.06006</ele>
        <time>2012-07-18T17:30:47Z</time>
      </trkpt>
      <trkpt lat="59.8722305" lon="17.597198">
        <ele>2.54065</ele>
        <time>2012-07-18T17:30:54Z</time>
      </trkpt>
      <trkpt lat="59.8720991" lon="17.5968643">
        <ele>3.98267</ele>
        <time>2012-07-18T17:31:00Z</time>
      </trkpt>
      <trkpt lat="59.8720008" lon="17.5964149">
        <ele>3.50195</ele>
        <time>2012-07-18T17:31:06Z</time>
      </trkpt>
      <trkpt lat="59.8719437" lon="17.595798">
        <ele>4.46326</ele>
        <time>2012-07-18T17:31:13Z</time>
      </trkpt>
      <trkpt lat="59.8718872" lon="17.5951658">
        <ele>10.2312</ele>
        <time>2012-07-18T17:31:20Z</time>
      </trkpt>
      <trkpt lat="59.8718673" lon="17.5944741">
        <ele>15.999</ele>
        <time>2012-07-18T17:31:28Z</time>
      </trkpt>
      <trkpt lat="59.8717929" lon="17.5937807">
        <ele>16.9604</ele>
        <time>2012-07-18T17:31:36Z</time>
      </trkpt>
      <trkpt lat="59.8716776" lon="17.5931676">
        <ele>18.4023</ele>
        <time>2012-07-18T17:31:43Z</time>
      </trkpt>
      <trkpt lat="59.8715765" lon="17.5926161">
        <ele>14.557</ele>
        <time>2012-07-18T17:31:48Z</time>
      </trkpt>
      <trkpt lat="59.8715475" lon="17.5924923">
        <ele>14.0764</ele>
        <time>2012-07-18T17:31:49Z</time>
      </trkpt>
      <trkpt lat="59.871306" lon="17.5919074">
        <ele>12.6344</ele>
        <time>2012-07-18T17:31:54Z</time>
      </trkpt>
      <trkpt lat="59.8712479" lon="17.5918007">
        <ele>12.1538</ele>
        <time>2012-07-18T17:31:55Z</time>
      </trkpt>
      <trkpt lat="59.8706118" lon="17.5908823">
        <ele>2.54065</ele>
        <time>2012-07-18T17:32:05Z</time>
      </trkpt>
      <trkpt lat="59.8703269" lon="17.5904338">
        <ele>3.98267</ele>
        <time>2012-07-18T17:32:10Z</time>
      </trkpt>
      <trkpt lat="59.8700519" lon="17.589698">
        <ele>4.94385</ele>
        <time>2012-07-18T17:32:17Z</time>
      </trkpt>
      <trkpt lat="59.8698105" lon="17.5891501">
        <ele>2.06006</ele>
        <time>2012-07-18T17:32:23Z</time>
      </trkpt>
      <trkpt lat="59.8697388" lon="17.5889935">
        <ele>1.57935</ele>
        <time>2012-07-18T17:32:25Z</time>
      </trkpt>
      <trkpt lat="59.8695473" lon="17.5888382">
        <ele>1.09863</ele>
        <time>2012-07-18T17:32:30Z</time>
      </trkpt>
      <trkpt lat="59.869437" lon="17.5888759">
        <ele>0.618042</ele>
        <time>2012-07-18T17:32:32Z</time>
      </trkpt>
      <trkpt lat="59.8692724" lon="17.5889827">
        <ele>1.57935</ele>
        <time>2012-07-18T17:32:35Z</time>
      </trkpt>
      <trkpt lat="59.8690184" lon="17.5891102">
        <ele>1.09863</ele>
        <time>2012-07-18T17:32:40Z</time>
      </trkpt>
      <trkpt lat="59.868894" lon="17.5893065">
        <ele>2.06006</ele>
        <time>2012-07-18T17:32:44Z</time>
      </trkpt>
      <trkpt lat="59.8687946" lon="17.5894583">
        <ele>0.137451</ele>
        <time>2012-07-18T17:32:47Z</time>
      </trkpt>
      <trkpt lat="59.8686005" lon="17.5895739">
        <ele>0.137451</ele>
        <time>2012-07-18T17:32:51Z</time>
      </trkpt>
      <trkpt lat="59.868347" lon="17.5897096">
        <ele>0.137451</ele>
        <time>2012-07-18T17:32:57Z</time>
      </trkpt>
      <trkpt lat="59.8682905" lon="17.5897287">
        <ele>0</ele>
        <time>2012-07-18T17:32:58Z</time>
      </trkpt>
      <trkpt lat="59.8681522" lon="17.5897541">
        <ele>0</ele>
        <time>2012-07-18T17:33:00Z</time>
      </trkpt>
      <trkpt lat="59.8677202" lon="17.5897963">
        <ele>0.137451</ele>
        <time>2012-07-18T17:33:06Z</time>
      </trkpt>
      <trkpt lat="59.8673877" lon="17.5899514">
        <ele>0.137451</ele>
        <time>2012-07-18T17:33:13Z</time>
      </trkpt>
      <trkpt lat="59.8672066" lon="17.5900634">
        <ele>0</ele>
        <time>2012-07-18T17:33:17Z</time>
      </trkpt>
      <trkpt lat="59.8670599" lon="17.5902027">
        <ele>0</ele>
        <time>2012-07-18T17:33:20Z</time>
      </trkpt>
      <trkpt lat="59.8668589" lon="17.5903413">
        <ele>0</ele>
        <time>2012-07-18T17:33:24Z</time>
      </trkpt>
      <trkpt lat="59.8666015" lon="17.5903691">
        <ele>0</ele>
        <time>2012-07-18T17:33:32Z</time>
      </trkpt>
      <trkpt lat="59.8663921" lon="17.5904117">
        <ele>0.137451</ele>
        <time>2012-07-18T17:33:38Z</time>
      </trkpt>
      <trkpt lat="59.8661035" lon="17.5904719">
        <ele>3.02124</ele>
        <time>2012-07-18T17:33:45Z</time>
      </trkpt>
      <trkpt lat="59.8660269" lon="17.5904817">
        <ele>3.50195</ele>
        <time>2012-07-18T17:33:47Z</time>
      </trkpt>
      <trkpt lat="59.8658856" lon="17.5905918">
        <ele>3.50195</ele>
        <time>2012-07-18T17:33:51Z</time>
      </trkpt>
      <trkpt lat="59.8655762" lon="17.5910899">
        <ele>1.57935</ele>
        <time>2012-07-18T17:34:01Z</time>
      </trkpt>
      <trkpt lat="59.8654136" lon="17.5913519">
        <ele>0.618042</ele>
        <time>2012-07-18T17:34:06Z</time>
      </trkpt>
      <trkpt lat="59.8652716" lon="17.5914504">
        <ele>1.57935</ele>
        <time>2012-07-18T17:34:10Z</time>
      </trkpt>
      <trkpt lat="59.8651882" lon="17.5914209">
        <ele>2.54065</ele>
        <time>2012-07-18T17:34:12Z</time>
      </trkpt>
      <trkpt lat="59.8648742" lon="17.5914049">
        <ele>3.50195</ele>
        <time>2012-07-18T17:34:19Z</time>
      </trkpt>
      <trkpt lat="59.8645873" lon="17.5914747">
        <ele>1.09863</ele>
        <time>2012-07-18T17:34:25Z</time>
      </trkpt>
      <trkpt lat="59.8644968" lon="17.5915299">
        <ele>0</ele>
        <time>2012-07-18T17:34:27Z</time>
      </trkpt>
      <trkpt lat="59.8642455" lon="17.5915118">
        <ele>0</ele>
        <time>2012-07-18T17:34:32Z</time>
      </trkpt>
      <trkpt lat="59.8639268" lon="17.5913972">
        <ele>1.09863</ele>
        <time>2012-07-18T17:34:38Z</time>
      </trkpt>
      <trkpt lat="59.8634828" lon="17.5911247">
        <ele>2.06006</ele>
        <time>2012-07-18T17:34:46Z</time>
      </trkpt>
      <trkpt lat="59.8629698" lon="17.5907746">
        <ele>2.54065</ele>
        <time>2012-07-18T17:34:55Z</time>
      </trkpt>
      <trkpt lat="59.8624746" lon="17.590427">
        <ele>4.46326</ele>
        <time>2012-07-18T17:35:03Z</time>
      </trkpt>
      <trkpt lat="59.8620109" lon="17.5901053">
        <ele>0</ele>
        <time>2012-07-18T17:35:10Z</time>
      </trkpt>
      <trkpt lat="59.8615497" lon="17.5897347">
        <ele>0</ele>
        <time>2012-07-18T17:35:17Z</time>
      </trkpt>
      <trkpt lat="59.861151" lon="17.5894749">
        <ele>0</ele>
        <time>2012-07-18T17:35:24Z</time>
      </trkpt>
      <trkpt lat="59.8607666" lon="17.5893278">
        <ele>0</ele>
        <time>2012-07-18T17:35:31Z</time>
      </trkpt>
      <trkpt lat="59.8604605" lon="17.5890418">
        <ele>0</ele>
        <time>2012-07-18T17:35:38Z</time>
      </trkpt>
      <trkpt lat="59.8601672" lon="17.5887924">
        <ele>0</ele>
        <time>2012-07-18T17:35:44Z</time>
      </trkpt>
      <trkpt lat="59.8600746" lon="17.5887289">
        <ele>0</ele>
        <time>2012-07-18T17:35:46Z</time>
      </trkpt>
      <trkpt lat="59.8599222" lon="17.5887895">
        <ele>0</ele>
        <time>2012-07-18T17:35:50Z</time>
      </trkpt>
      <trkpt lat="59.8599053" lon="17.5888512">
        <ele>0</ele>
        <time>2012-07-18T17:35:51Z</time>
      </trkpt>
      <trkpt lat="59.8597706" lon="17.5893811">
        <ele>4.46326</ele>
        <time>2012-07-18T17:35:59Z</time>
      </trkpt>
      <trkpt lat="59.8597312" lon="17.5897416">
        <ele>9.2699</ele>
        <time>2012-07-18T17:36:03Z</time>
      </trkpt>
      <trkpt lat="59.8597045" lon="17.5899668">
        <ele>13.1151</ele>
        <time>2012-07-18T17:36:06Z</time>
      </trkpt>
      <trkpt lat="59.8596514" lon="17.5901864">
        <ele>14.557</ele>
        <time>2012-07-18T17:36:09Z</time>
      </trkpt>
      <trkpt lat="59.8595409" lon="17.5904093">
        <ele>15.999</ele>
        <time>2012-07-18T17:36:13Z</time>
      </trkpt>
      <trkpt lat="59.8594559" lon="17.5906891">
        <ele>15.5184</ele>
        <time>2012-07-18T17:36:17Z</time>
      </trkpt>
      <trkpt lat="59.859386" lon="17.5912506">
        <ele>21.767</ele>
        <time>2012-07-18T17:36:24Z</time>
      </trkpt>
      <trkpt lat="59.8593191" lon="17.5917656">
        <ele>15.999</ele>
        <time>2012-07-18T17:36:29Z</time>
      </trkpt>
      <trkpt lat="59.8592368" lon="17.5922287">
        <ele>9.2699</ele>
        <time>2012-07-18T17:36:32Z</time>
      </trkpt>
      <trkpt lat="59.859115" lon="17.5932308">
        <ele>3.98267</ele>
        <time>2012-07-18T17:36:37Z</time>
      </trkpt>
      <trkpt lat="59.8590473" lon="17.5944968">
        <ele>0</ele>
        <time>2012-07-18T17:36:43Z</time>
      </trkpt>
      <trkpt lat="59.8590023" lon="17.5954875">
        <ele>1.57935</ele>
        <time>2012-07-18T17:36:49Z</time>
      </trkpt>
      <trkpt lat="59.8589545" lon="17.5964109">
        <ele>1.57935</ele>
        <time>2012-07-18T17:36:56Z</time>
      </trkpt>
      <trkpt lat="59.8589256" lon="17.5970636">
        <ele>2.54065</ele>
        <time>2012-07-18T17:37:02Z</time>
      </trkpt>
      <trkpt lat="59.8589796" lon="17.5974548">
        <ele>2.54065</ele>
        <time>2012-07-18T17:37:06Z</time>
      </trkpt>
      <trkpt lat="59.8590145" lon="17.5975378">
        <ele>1.57935</ele>
        <time>2012-07-18T17:37:07Z</time>
      </trkpt>
      <trkpt lat="59.8591197" lon="17.5977786">
        <ele>0.137451</ele>
        <time>2012-07-18T17:37:10Z</time>
      </trkpt>
      <trkpt lat="59.8592215" lon="17.5982769">
        <ele>0.618042</ele>
        <time>2012-07-18T17:37:15Z</time>
      </trkpt>
      <trkpt lat="59.859224" lon="17.5983788">
        <ele>1.09863</ele>
        <time>2012-07-18T17:37:16Z</time>
      </trkpt>
      <trkpt lat="59.8591726" lon="17.5988063">
        <ele>3.50195</ele>
        <time>2012-07-18T17:37:21Z</time>
      </trkpt>
      <trkpt lat="59.8589706" lon="17.5995097">
        <ele>5.90527</ele>
        <time>2012-07-18T17:37:31Z</time>
      </trkpt>
      <trkpt lat="59.858713" lon="17.6003049">
        <ele>2.06006</ele>
        <time>2012-07-18T17:37:42Z</time>
      </trkpt>
      <trkpt lat="59.8585832" lon="17.6006932">
        <ele>0</ele>
        <time>2012-07-18T17:37:47Z</time>
      </trkpt>
      <trkpt lat="59.85854" lon="17.6008618">
        <ele>0.137451</ele>
        <time>2012-07-18T17:37:49Z</time>
      </trkpt>
      <trkpt lat="59.8583124" lon="17.6016398">
        <ele>5.42456</ele>
        <time>2012-07-18T17:37:59Z</time>
      </trkpt>
      <trkpt lat="59.8581075" lon="17.6021355">
        <ele>9.75061</ele>
        <time>2012-07-18T17:38:07Z</time>
      </trkpt>
      <trkpt lat="59.8578666" lon="17.6026531">
        <ele>11.1925</ele>
        <time>2012-07-18T17:38:16Z</time>
      </trkpt>
      <trkpt lat="59.857787" lon="17.6028381">
        <ele>11.6732</ele>
        <time>2012-07-18T17:38:19Z</time>
      </trkpt>
      <trkpt lat="59.8577575" lon="17.6031683">
        <ele>12.1538</ele>
        <time>2012-07-18T17:38:23Z</time>
      </trkpt>
      <trkpt lat="59.857677" lon="17.6034715">
        <ele>12.1538</ele>
        <time>2012-07-18T17:38:28Z</time>
      </trkpt>
      <trkpt lat="59.8576407" lon="17.6034962">
        <ele>11.6732</ele>
        <time>2012-07-18T17:38:29Z</time>
      </trkpt>
      <trkpt lat="59.8574741" lon="17.6036627">
        <ele>14.557</ele>
        <time>2012-07-18T17:38:35Z</time>
      </trkpt>
      <trkpt lat="59.8573228" lon="17.6038906">
        <ele>18.8831</ele>
        <time>2012-07-18T17:38:40Z</time>
      </trkpt>
      <trkpt lat="59.8571919" lon="17.6041661">
        <ele>16.9604</ele>
        <time>2012-07-18T17:38:45Z</time>
      </trkpt>
      <trkpt lat="59.8571566" lon="17.6042371">
        <ele>17.4412</ele>
        <time>2012-07-18T17:38:46Z</time>
      </trkpt>
      <trkpt lat="59.8570809" lon="17.6046323">
        <ele>24.1703</ele>
        <time>2012-07-18T17:38:51Z</time>
      </trkpt>
      <trkpt lat="59.8569979" lon="17.604779">
        <ele>24.651</ele>
        <time>2012-07-18T17:38:54Z</time>
      </trkpt>
      <trkpt lat="59.8569146" lon="17.604767">
        <ele>25.1317</ele>
        <time>2012-07-18T17:38:56Z</time>
      </trkpt>
      <trkpt lat="59.856752" lon="17.6047142">
        <ele>18.8831</ele>
        <time>2012-07-18T17:38:59Z</time>
      </trkpt>
      <trkpt lat="59.8564571" lon="17.6047166">
        <ele>14.0764</ele>
        <time>2012-07-18T17:39:04Z</time>
      </trkpt>
      <trkpt lat="59.8562138" lon="17.6046889">
        <ele>10.2312</ele>
        <time>2012-07-18T17:39:10Z</time>
      </trkpt>
      <trkpt lat="59.856118" lon="17.6046178">
        <ele>9.75061</ele>
        <time>2012-07-18T17:39:13Z</time>
      </trkpt>
      <trkpt lat="59.856079" lon="17.6044469">
        <ele>9.2699</ele>
        <time>2012-07-18T17:39:16Z</time>
      </trkpt>
      <trkpt lat="59.855961" lon="17.6040029">
        <ele>4.94385</ele>
        <time>2012-07-18T17:39:22Z</time>
      </trkpt>
      <trkpt lat="59.8559041" lon="17.6037554">
        <ele>4.94385</ele>
        <time>2012-07-18T17:39:25Z</time>
      </trkpt>
      <trkpt lat="59.8558051" lon="17.6032212">
        <ele>5.42456</ele>
        <time>2012-07-18T17:39:31Z</time>
      </trkpt>
      <trkpt lat="59.8557014" lon="17.6024226">
        <ele>6.38586</ele>
        <time>2012-07-18T17:39:39Z</time>
      </trkpt>
      <trkpt lat="59.8556885" lon="17.6016609">
        <ele>8.30859</ele>
        <time>2012-07-18T17:39:46Z</time>
      </trkpt>
      <trkpt lat="59.8556109" lon="17.6006654">
        <ele>14.557</ele>
        <time>2012-07-18T17:39:54Z</time>
      </trkpt>
      <trkpt lat="59.85546" lon="17.5999231">
        <ele>14.0764</ele>
        <time>2012-07-18T17:39:59Z</time>
      </trkpt>
      <trkpt lat="59.8553081" lon="17.5993113">
        <ele>14.557</ele>
        <time>2012-07-18T17:40:03Z</time>
      </trkpt>
      <trkpt lat="59.8551451" lon="17.5988492">
        <ele>15.0377</ele>
        <time>2012-07-18T17:40:06Z</time>
      </trkpt>
      <trkpt lat="59.8550075" lon="17.5981039">
        <ele>14.557</ele>
        <time>2012-07-18T17:40:11Z</time>
      </trkpt>
      <trkpt lat="59.8547875" lon="17.5969666">
        <ele>12.1538</ele>
        <time>2012-07-18T17:40:19Z</time>
      </trkpt>
      <trkpt lat="59.8547405" lon="17.5967089">
        <ele>11.6732</ele>
        <time>2012-07-18T17:40:21Z</time>
      </trkpt>
      <trkpt lat="59.8545959" lon="17.5965363">
        <ele>11.1925</ele>
        <time>2012-07-18T17:40:24Z</time>
      </trkpt>
      <trkpt lat="59.8545389" lon="17.5965654">
        <ele>11.6732</ele>
        <time>2012-07-18T17:40:25Z</time>
      </trkpt>
      <trkpt lat="59.8540579" lon="17.5968969">
        <ele>10.2312</ele>
        <time>2012-07-18T17:40:33Z</time>
      </trkpt>
      <trkpt lat="59.8539786" lon="17.5969043">
        <ele>8.78918</ele>
        <time>2012-07-18T17:40:34Z</time>
      </trkpt>
      <trkpt lat="59.8537904" lon="17.5972492">
        <ele>8.78918</ele>
        <time>2012-07-18T17:40:38Z</time>
      </trkpt>
      <trkpt lat="59.8537448" lon="17.597576">
        <ele>9.2699</ele>
        <time>2012-07-18T17:40:41Z</time>
      </trkpt>
      <trkpt lat="59.8536889" lon="17.5983225">
        <ele>12.6344</ele>
        <time>2012-07-18T17:40:49Z</time>
      </trkpt>
      <trkpt lat="59.8535604" lon="17.5986023">
        <ele>14.0764</ele>
        <time>2012-07-18T17:40:54Z</time>
      </trkpt>
      <trkpt lat="59.853398" lon="17.5986577">
        <ele>15.999</ele>
        <time>2012-07-18T17:40:58Z</time>
      </trkpt>
      <trkpt lat="59.8533611" lon="17.5986727">
        <ele>16.4797</ele>
        <time>2012-07-18T17:40:59Z</time>
      </trkpt>
      <trkpt lat="59.853153" lon="17.5988457">
        <ele>19.8444</ele>
        <time>2012-07-18T17:41:05Z</time>
      </trkpt>
      <trkpt lat="59.8529109" lon="17.5990077">
        <ele>21.767</ele>
        <time>2012-07-18T17:41:11Z</time>
      </trkpt>
      <trkpt lat="59.8526917" lon="17.5992015">
        <ele>20.325</ele>
        <time>2012-07-18T17:41:16Z</time>
      </trkpt>
      <trkpt lat="59.8524717" lon="17.5991465">
        <ele>17.4412</ele>
        <time>2012-07-18T17:41:21Z</time>
      </trkpt>
      <trkpt lat="59.8523794" lon="17.5991314">
        <ele>15.999</ele>
        <time>2012-07-18T17:41:23Z</time>
      </trkpt>
      <trkpt lat="59.8521475" lon="17.5991466">
        <ele>15.0377</ele>
        <time>2012-07-18T17:41:28Z</time>
      </trkpt>
      <trkpt lat="59.8518602" lon="17.5990908">
        <ele>12.1538</ele>
        <time>2012-07-18T17:41:34Z</time>
      </trkpt>
      <trkpt lat="59.851703" lon="17.5989138">
        <ele>11.1925</ele>
        <time>2012-07-18T17:41:38Z</time>
      </trkpt>
      <trkpt lat="59.8514085" lon="17.5987514">
        <ele>8.30859</ele>
        <time>2012-07-18T17:41:44Z</time>
      </trkpt>
      <trkpt lat="59.8512434" lon="17.5987206">
        <ele>8.30859</ele>
        <time>2012-07-18T17:41:47Z</time>
      </trkpt>
      <trkpt lat="59.8510653" lon="17.5985202">
        <ele>8.78918</ele>
        <time>2012-07-18T17:41:52Z</time>
      </trkpt>
      <trkpt lat="59.8508985" lon="17.5981614">
        <ele>9.2699</ele>
        <time>2012-07-18T17:41:59Z</time>
      </trkpt>
      <trkpt lat="59.8508493" lon="17.5980928">
        <ele>7.34717</ele>
        <time>2012-07-18T17:42:01Z</time>
      </trkpt>
      <trkpt lat="59.8506127" lon="17.5978804">
        <ele>5.42456</ele>
        <time>2012-07-18T17:42:07Z</time>
      </trkpt>
      <trkpt lat="59.8504089" lon="17.5977257">
        <ele>7.34717</ele>
        <time>2012-07-18T17:42:11Z</time>
      </trkpt>
      <trkpt lat="59.8501655" lon="17.5976393">
        <ele>4.94385</ele>
        <time>2012-07-18T17:42:16Z</time>
      </trkpt>
      <trkpt lat="59.8500172" lon="17.5976321">
        <ele>3.50195</ele>
        <time>2012-07-18T17:42:19Z</time>
      </trkpt>
      <trkpt lat="59.849703" lon="17.5977185">
        <ele>5.90527</ele>
        <time>2012-07-18T17:42:25Z</time>
      </trkpt>
      <trkpt lat="59.8494186" lon="17.5975966">
        <ele>3.02124</ele>
        <time>2012-07-18T17:42:30Z</time>
      </trkpt>
      <trkpt lat="59.8490285" lon="17.5974474">
        <ele>2.06006</ele>
        <time>2012-07-18T17:42:37Z</time>
      </trkpt>
      <trkpt lat="59.8488333" lon="17.5974315">
        <ele>2.54065</ele>
        <time>2012-07-18T17:42:41Z</time>
      </trkpt>
      <trkpt lat="59.8486689" lon="17.5976035">
        <ele>4.46326</ele>
        <time>2012-07-18T17:42:45Z</time>
      </trkpt>
      <trkpt lat="59.8485638" lon="17.5978103">
        <ele>4.94385</ele>
        <time>2012-07-18T17:42:48Z</time>
      </trkpt>
      <trkpt lat="59.8484899" lon="17.5980462">
        <ele>6.86646</ele>
        <time>2012-07-18T17:42:51Z</time>
      </trkpt>
      <trkpt lat="59.8483638" lon="17.5981266">
        <ele>9.2699</ele>
        <time>2012-07-18T17:42:55Z</time>
      </trkpt>
      <trkpt lat="59.8482112" lon="17.5979845">
        <ele>6.38586</ele>
        <time>2012-07-18T17:42:59Z</time>
      </trkpt>
      <trkpt lat="59.8481104" lon="17.5979923">
        <ele>5.42456</ele>
        <time>2012-07-18T17:43:02Z</time>
      </trkpt>
      <trkpt lat="59.8479054" lon="17.5980454">
        <ele>2.06006</ele>
        <time>2012-07-18T17:43:06Z</time>
      </trkpt>
      <trkpt lat="59.8476019" lon="17.5980952">
        <ele>0</ele>
        <time>2012-07-18T17:43:09Z</time>
      </trkpt>
      <trkpt lat="59.8473328" lon="17.5981855">
        <ele>0</ele>
        <time>2012-07-18T17:43:12Z</time>
      </trkpt>
      <trkpt lat="59.8471973" lon="17.598196">
        <ele>0</ele>
        <time>2012-07-18T17:43:14Z</time>
      </trkpt>
      <trkpt lat="59.8469996" lon="17.5983712">
        <ele>0</ele>
        <time>2012-07-18T17:43:18Z</time>
      </trkpt>
      <trkpt lat="59.8469643" lon="17.5984642">
        <ele>0.137451</ele>
        <time>2012-07-18T17:43:19Z</time>
      </trkpt>
      <trkpt lat="59.8467669" lon="17.5989679">
        <ele>0</ele>
        <time>2012-07-18T17:43:24Z</time>
      </trkpt>
      <trkpt lat="59.846568" lon="17.5991818">
        <ele>0</ele>
        <time>2012-07-18T17:43:28Z</time>
      </trkpt>
      <trkpt lat="59.8462172" lon="17.5992156">
        <ele>0</ele>
        <time>2012-07-18T17:43:34Z</time>
      </trkpt>
      <trkpt lat="59.8459867" lon="17.5994476">
        <ele>0</ele>
        <time>2012-07-18T17:43:38Z</time>
      </trkpt>
      <trkpt lat="59.8456453" lon="17.5999307">
        <ele>0</ele>
        <time>2012-07-18T17:43:44Z</time>
      </trkpt>
      <trkpt lat="59.8453672" lon="17.6002071">
        <ele>0</ele>
        <time>2012-07-18T17:43:49Z</time>
      </trkpt>
      <trkpt lat="59.8450814" lon="17.6004822">
        <ele>0</ele>
        <time>2012-07-18T17:43:55Z</time>
      </trkpt>
      <trkpt lat="59.8450303" lon="17.6005291">
        <ele>0</ele>
        <time>2012-07-18T17:43:56Z</time>
      </trkpt>
      <trkpt lat="59.8447034" lon="17.6005655">
        <ele>0</ele>
        <time>2012-07-18T17:44:02Z</time>
      </trkpt>
      <trkpt lat="59.844446" lon="17.6005544">
        <ele>0</ele>
        <time>2012-07-18T17:44:07Z</time>
      </trkpt>
      <trkpt lat="59.8442372" lon="17.6006065">
        <ele>0</ele>
        <time>2012-07-18T17:44:11Z</time>
      </trkpt>
      <trkpt lat="59.8438229" lon="17.6008581">
        <ele>0</ele>
        <time>2012-07-18T17:44:20Z</time>
      </trkpt>
      <trkpt lat="59.8436842" lon="17.6008049">
        <ele>0</ele>
        <time>2012-07-18T17:44:24Z</time>
      </trkpt>
      <trkpt lat="59.8436448" lon="17.6007771">
        <ele>0</ele>
        <time>2012-07-18T17:44:25Z</time>
      </trkpt>
      <trkpt lat="59.8435617" lon="17.6007196">
        <ele>0</ele>
        <time>2012-07-18T17:44:27Z</time>
      </trkpt>
      <trkpt lat="59.8433711" lon="17.6006839">
        <ele>0</ele>
        <time>2012-07-18T17:44:31Z</time>
      </trkpt>
      <trkpt lat="59.8431056" lon="17.6007872">
        <ele>0</ele>
        <time>2012-07-18T17:44:37Z</time>
      </trkpt>
      <trkpt lat="59.8430078" lon="17.6008959">
        <ele>0</ele>
        <time>2012-07-18T17:44:40Z</time>
      </trkpt>
      <trkpt lat="59.8428197" lon="17.601233">
        <ele>6.38586</ele>
        <time>2012-07-18T17:44:47Z</time>
      </trkpt>
      <trkpt lat="59.8426996" lon="17.6015935">
        <ele>15.999</ele>
        <time>2012-07-18T17:44:53Z</time>
      </trkpt>
      <trkpt lat="59.8426643" lon="17.6018957">
        <ele>25.1317</ele>
        <time>2012-07-18T17:44:58Z</time>
      </trkpt>
      <trkpt lat="59.842557" lon="17.6021763">
        <ele>24.1703</ele>
        <time>2012-07-18T17:45:03Z</time>
      </trkpt>
      <trkpt lat="59.8424325" lon="17.6024805">
        <ele>26.0929</ele>
        <time>2012-07-18T17:45:09Z</time>
      </trkpt>
      <trkpt lat="59.8423229" lon="17.6026949">
        <ele>29.4575</ele>
        <time>2012-07-18T17:45:14Z</time>
      </trkpt>
      <trkpt lat="59.8421586" lon="17.602917">
        <ele>25.6123</ele>
        <time>2012-07-18T17:45:20Z</time>
      </trkpt>
      <trkpt lat="59.8420214" lon="17.6030677">
        <ele>24.651</ele>
        <time>2012-07-18T17:45:25Z</time>
      </trkpt>
      <trkpt lat="59.8418109" lon="17.6032157">
        <ele>25.1317</ele>
        <time>2012-07-18T17:45:31Z</time>
      </trkpt>
      <trkpt lat="59.8415956" lon="17.6033606">
        <ele>28.9769</ele>
        <time>2012-07-18T17:45:36Z</time>
      </trkpt>
      <trkpt lat="59.841426" lon="17.6035341">
        <ele>29.9381</ele>
        <time>2012-07-18T17:45:40Z</time>
      </trkpt>
      <trkpt lat="59.8411582" lon="17.6038558">
        <ele>28.9769</ele>
        <time>2012-07-18T17:45:46Z</time>
      </trkpt>
      <trkpt lat="59.8409656" lon="17.6040157">
        <ele>26.0929</ele>
        <time>2012-07-18T17:45:51Z</time>
      </trkpt>
      <trkpt lat="59.8408458" lon="17.6041641">
        <ele>24.1703</ele>
        <time>2012-07-18T17:45:55Z</time>
      </trkpt>
      <trkpt lat="59.84078" lon="17.6044877">
        <ele>22.2476</ele>
        <time>2012-07-18T17:45:59Z</time>
      </trkpt>
      <trkpt lat="59.8407604" lon="17.605031">
        <ele>25.1317</ele>
        <time>2012-07-18T17:46:04Z</time>
      </trkpt>
      <trkpt lat="59.8407448" lon="17.6058083">
        <ele>22.7283</ele>
        <time>2012-07-18T17:46:12Z</time>
      </trkpt>
      <trkpt lat="59.8407206" lon="17.6061873">
        <ele>22.2476</ele>
        <time>2012-07-18T17:46:16Z</time>
      </trkpt>
      <trkpt lat="59.8407367" lon="17.6068627">
        <ele>32.3416</ele>
        <time>2012-07-18T17:46:23Z</time>
      </trkpt>
      <trkpt lat="59.8407026" lon="17.6072269">
        <ele>35.2255</ele>
        <time>2012-07-18T17:46:27Z</time>
      </trkpt>
      <trkpt lat="59.8405041" lon="17.6074494">
        <ele>28.4962</ele>
        <time>2012-07-18T17:46:32Z</time>
      </trkpt>
      <trkpt lat="59.8401782" lon="17.6077747">
        <ele>19.3638</ele>
        <time>2012-07-18T17:46:38Z</time>
      </trkpt>
      <trkpt lat="59.8399543" lon="17.6082386">
        <ele>15.5184</ele>
        <time>2012-07-18T17:46:43Z</time>
      </trkpt>
      <trkpt lat="59.8397238" lon="17.6093207">
        <ele>11.6732</ele>
        <time>2012-07-18T17:46:52Z</time>
      </trkpt>
      <trkpt lat="59.8396594" lon="17.6096357">
        <ele>12.1538</ele>
        <time>2012-07-18T17:46:55Z</time>
      </trkpt>
      <trkpt lat="59.8395556" lon="17.610118">
        <ele>14.557</ele>
        <time>2012-07-18T17:47:00Z</time>
      </trkpt>
      <trkpt lat="59.8395259" lon="17.6103069">
        <ele>15.0377</ele>
        <time>2012-07-18T17:47:02Z</time>
      </trkpt>
      <trkpt lat="59.8394749" lon="17.6104961">
        <ele>14.0764</ele>
        <time>2012-07-18T17:47:04Z</time>
      </trkpt>
      <trkpt lat="59.8393982" lon="17.6108821">
        <ele>13.5958</ele>
        <time>2012-07-18T17:47:08Z</time>
      </trkpt>
      <trkpt lat="59.8393087" lon="17.611267">
        <ele>14.557</ele>
        <time>2012-07-18T17:47:13Z</time>
      </trkpt>
      <trkpt lat="59.8392982" lon="17.6113612">
        <ele>15.0377</ele>
        <time>2012-07-18T17:47:14Z</time>
      </trkpt>
      <trkpt lat="59.8392229" lon="17.6119452">
        <ele>19.3638</ele>
        <time>2012-07-18T17:47:20Z</time>
      </trkpt>
      <trkpt lat="59.8391521" lon="17.6122578">
        <ele>21.2864</ele>
        <time>2012-07-18T17:47:24Z</time>
      </trkpt>
      <trkpt lat="59.8390852" lon="17.6125144">
        <ele>24.651</ele>
        <time>2012-07-18T17:47:28Z</time>
      </trkpt>
      <trkpt lat="59.8389382" lon="17.6126214">
        <ele>24.1703</ele>
        <time>2012-07-18T17:47:32Z</time>
      </trkpt>
      <trkpt lat="59.8388913" lon="17.6125786">
        <ele>24.651</ele>
        <time>2012-07-18T17:47:33Z</time>
      </trkpt>
      <trkpt lat="59.838602" lon="17.6122966">
        <ele>25.6123</ele>
        <time>2012-07-18T17:47:39Z</time>
      </trkpt>
      <trkpt lat="59.8384265" lon="17.6120376">
        <ele>24.1703</ele>
        <time>2012-07-18T17:47:43Z</time>
      </trkpt>
      <trkpt lat="59.8382097" lon="17.6118791">
        <ele>21.2864</ele>
        <time>2012-07-18T17:47:47Z</time>
      </trkpt>
      <trkpt lat="59.8380133" lon="17.6117084">
        <ele>19.3638</ele>
        <time>2012-07-18T17:47:51Z</time>
      </trkpt>
      <trkpt lat="59.8377504" lon="17.6114281">
        <ele>12.1538</ele>
        <time>2012-07-18T17:47:57Z</time>
      </trkpt>
      <trkpt lat="59.8376199" lon="17.6113362">
        <ele>9.75061</ele>
        <time>2012-07-18T17:48:00Z</time>
      </trkpt>
      <trkpt lat="59.8373355" lon="17.6112406">
        <ele>5.42456</ele>
        <time>2012-07-18T17:48:06Z</time>
      </trkpt>
      <trkpt lat="59.8370619" lon="17.6112401">
        <ele>6.38586</ele>
        <time>2012-07-18T17:48:11Z</time>
      </trkpt>
      <trkpt lat="59.8369507" lon="17.6112406">
        <ele>6.86646</ele>
        <time>2012-07-18T17:48:13Z</time>
      </trkpt>
      <trkpt lat="59.836695" lon="17.6113503">
        <ele>6.38586</ele>
        <time>2012-07-18T17:48:18Z</time>
      </trkpt>
      <trkpt lat="59.8363503" lon="17.6115585">
        <ele>7.82788</ele>
        <time>2012-07-18T17:48:24Z</time>
      </trkpt>
      <trkpt lat="59.8361787" lon="17.6117037">
        <ele>9.75061</ele>
        <time>2012-07-18T17:48:27Z</time>
      </trkpt>
      <trkpt lat="59.8360072" lon="17.6119145">
        <ele>9.2699</ele>
        <time>2012-07-18T17:48:30Z</time>
      </trkpt>
      <trkpt lat="59.8356699" lon="17.6122681">
        <ele>12.1538</ele>
        <time>2012-07-18T17:48:36Z</time>
      </trkpt>
      <trkpt lat="59.8356079" lon="17.6123261">
        <ele>11.1925</ele>
        <time>2012-07-18T17:48:37Z</time>
      </trkpt>
      <trkpt lat="59.8354597" lon="17.6124652">
        <ele>12.6344</ele>
        <time>2012-07-18T17:48:40Z</time>
      </trkpt>
      <trkpt lat="59.8352369" lon="17.6126258">
        <ele>17.4412</ele>
        <time>2012-07-18T17:48:43Z</time>
      </trkpt>
      <trkpt lat="59.8349993" lon="17.6128787">
        <ele>20.8057</ele>
        <time>2012-07-18T17:48:47Z</time>
      </trkpt>
      <trkpt lat="59.8347014" lon="17.6130964">
        <ele>16.9604</ele>
        <time>2012-07-18T17:48:53Z</time>
      </trkpt>
      <trkpt lat="59.8343821" lon="17.6133423">
        <ele>19.8444</ele>
        <time>2012-07-18T17:48:59Z</time>
      </trkpt>
      <trkpt lat="59.8340397" lon="17.6136467">
        <ele>21.767</ele>
        <time>2012-07-18T17:49:05Z</time>
      </trkpt>
      <trkpt lat="59.8337133" lon="17.6139256">
        <ele>22.2476</ele>
        <time>2012-07-18T17:49:11Z</time>
      </trkpt>
      <trkpt lat="59.8333433" lon="17.6142702">
        <ele>23.6896</ele>
        <time>2012-07-18T17:49:18Z</time>
      </trkpt>
      <trkpt lat="59.8329846" lon="17.6146112">
        <ele>26.5736</ele>
        <time>2012-07-18T17:49:25Z</time>
      </trkpt>
      <trkpt lat="59.832654" lon="17.6148853">
        <ele>22.2476</ele>
        <time>2012-07-18T17:49:32Z</time>
      </trkpt>
      <trkpt lat="59.8322956" lon="17.615199">
        <ele>20.325</ele>
        <time>2012-07-18T17:49:39Z</time>
      </trkpt>
      <trkpt lat="59.8319751" lon="17.6153855">
        <ele>16.4797</ele>
        <time>2012-07-18T17:49:45Z</time>
      </trkpt>
      <trkpt lat="59.8313838" lon="17.6157131">
        <ele>16.9604</ele>
        <time>2012-07-18T17:49:55Z</time>
      </trkpt>
      <trkpt lat="59.831001" lon="17.6159092">
        <ele>17.4412</ele>
        <time>2012-07-18T17:50:02Z</time>
      </trkpt>
      <trkpt lat="59.8308945" lon="17.6159779">
        <ele>17.9218</ele>
        <time>2012-07-18T17:50:04Z</time>
      </trkpt>
      <trkpt lat="59.8307917" lon="17.6160678">
        <ele>17.9218</ele>
        <time>2012-07-18T17:50:06Z</time>
      </trkpt>
      <trkpt lat="59.8302711" lon="17.6166191">
        <ele>21.2864</ele>
        <time>2012-07-18T17:50:16Z</time>
      </trkpt>
      <trkpt lat="59.8299103" lon="17.6170304">
        <ele>22.7283</ele>
        <time>2012-07-18T17:50:23Z</time>
      </trkpt>
      <trkpt lat="59.8295309" lon="17.6174351">
        <ele>23.209</ele>
        <time>2012-07-18T17:50:30Z</time>
      </trkpt>
      <trkpt lat="59.8292279" lon="17.6177892">
        <ele>24.651</ele>
        <time>2012-07-18T17:50:36Z</time>
      </trkpt>
      <trkpt lat="59.8288691" lon="17.6181715">
        <ele>27.5349</ele>
        <time>2012-07-18T17:50:43Z</time>
      </trkpt>
      <trkpt lat="59.8284956" lon="17.6184362">
        <ele>28.0155</ele>
        <time>2012-07-18T17:50:50Z</time>
      </trkpt>
      <trkpt lat="59.8283744" lon="17.6185219">
        <ele>28.4962</ele>
        <time>2012-07-18T17:50:52Z</time>
      </trkpt>
      <trkpt lat="59.827862" lon="17.6187326">
        <ele>25.6123</ele>
        <time>2012-07-18T17:51:00Z</time>
      </trkpt>
      <trkpt lat="59.8274134" lon="17.6187595">
        <ele>16.9604</ele>
        <time>2012-07-18T17:51:07Z</time>
      </trkpt>
      <trkpt lat="59.8269608" lon="17.6186756">
        <ele>17.9218</ele>
        <time>2012-07-18T17:51:14Z</time>
      </trkpt>
      <trkpt lat="59.8265169" lon="17.6184922">
        <ele>13.5958</ele>
        <time>2012-07-18T17:51:21Z</time>
      </trkpt>
      <trkpt lat="59.8260566" lon="17.6181983">
        <ele>18.4023</ele>
        <time>2012-07-18T17:51:28Z</time>
      </trkpt>
      <trkpt lat="59.8256258" lon="17.6178586">
        <ele>23.209</ele>
        <time>2012-07-18T17:51:35Z</time>
      </trkpt>
      <trkpt lat="59.8254024" lon="17.6176549">
        <ele>27.0543</ele>
        <time>2012-07-18T17:51:39Z</time>
      </trkpt>
      <trkpt lat="59.8248758" lon="17.6171372">
        <ele>28.4962</ele>
        <time>2012-07-18T17:51:48Z</time>
      </trkpt>
      <trkpt lat="59.824458" lon="17.6167481">
        <ele>27.5349</ele>
        <time>2012-07-18T17:51:55Z</time>
      </trkpt>
      <trkpt lat="59.8239635" lon="17.6163039">
        <ele>25.6123</ele>
        <time>2012-07-18T17:52:04Z</time>
      </trkpt>
      <trkpt lat="59.8235013" lon="17.6159587">
        <ele>24.1703</ele>
        <time>2012-07-18T17:52:12Z</time>
      </trkpt>
      <trkpt lat="59.8233224" lon="17.6158579">
        <ele>22.7283</ele>
        <time>2012-07-18T17:52:15Z</time>
      </trkpt>
      <trkpt lat="59.8230372" lon="17.6156523">
        <ele>24.651</ele>
        <time>2012-07-18T17:52:20Z</time>
      </trkpt>
      <trkpt lat="59.8227902" lon="17.6155148">
        <ele>25.1317</ele>
        <time>2012-07-18T17:52:24Z</time>
      </trkpt>
      <trkpt lat="59.8225953" lon="17.6154618">
        <ele>23.6896</ele>
        <time>2012-07-18T17:52:27Z</time>
      </trkpt>
      <trkpt lat="59.8224804" lon="17.615479">
        <ele>25.6123</ele>
        <time>2012-07-18T17:52:29Z</time>
      </trkpt>
      <trkpt lat="59.8221666" lon="17.6154769">
        <ele>25.1317</ele>
        <time>2012-07-18T17:52:34Z</time>
      </trkpt>
      <trkpt lat="59.8218563" lon="17.6155913">
        <ele>26.0929</ele>
        <time>2012-07-18T17:52:39Z</time>
      </trkpt>
      <trkpt lat="59.8215601" lon="17.6157187">
        <ele>28.0155</ele>
        <time>2012-07-18T17:52:44Z</time>
      </trkpt>
      <trkpt lat="59.8213042" lon="17.6158535">
        <ele>28.9769</ele>
        <time>2012-07-18T17:52:49Z</time>
      </trkpt>
      <trkpt lat="59.8211596" lon="17.6160123">
        <ele>28.4962</ele>
        <time>2012-07-18T17:52:52Z</time>
      </trkpt>
      <trkpt lat="59.8207742" lon="17.6162974">
        <ele>27.5349</ele>
        <time>2012-07-18T17:52:59Z</time>
      </trkpt>
      <trkpt lat="59.8206137" lon="17.6164092">
        <ele>27.0543</ele>
        <time>2012-07-18T17:53:02Z</time>
      </trkpt>
      <trkpt lat="59.8202975" lon="17.6165319">
        <ele>25.1317</ele>
        <time>2012-07-18T17:53:08Z</time>
      </trkpt>
      <trkpt lat="59.8202423" lon="17.6165315">
        <ele>24.651</ele>
        <time>2012-07-18T17:53:09Z</time>
      </trkpt>
      <trkpt lat="59.8198868" lon="17.6166409">
        <ele>21.2864</ele>
        <time>2012-07-18T17:53:15Z</time>
      </trkpt>
      <trkpt lat="59.819658" lon="17.6170775">
        <ele>24.651</ele>
        <time>2012-07-18T17:53:19Z</time>
      </trkpt>
      <trkpt lat="59.8195506" lon="17.6170328">
        <ele>25.6123</ele>
        <time>2012-07-18T17:53:23Z</time>
      </trkpt>
      <trkpt lat="59.8195304" lon="17.6169717">
        <ele>26.0929</ele>
        <time>2012-07-18T17:53:24Z</time>
      </trkpt>
      <trkpt lat="59.8193512" lon="17.6164916">
        <ele>23.6896</ele>
        <time>2012-07-18T17:53:31Z</time>
      </trkpt>
      <trkpt lat="59.8192688" lon="17.6163045">
        <ele>25.6123</ele>
        <time>2012-07-18T17:53:34Z</time>
      </trkpt>
      <trkpt lat="59.8191347" lon="17.6160784">
        <ele>25.1317</ele>
        <time>2012-07-18T17:53:39Z</time>
      </trkpt>
      <trkpt lat="59.8188668" lon="17.6156417">
        <ele>20.8057</ele>
        <time>2012-07-18T17:53:46Z</time>
      </trkpt>
      <trkpt lat="59.8186586" lon="17.6153059">
        <ele>25.6123</ele>
        <time>2012-07-18T17:53:51Z</time>
      </trkpt>
      <trkpt lat="59.8184991" lon="17.6149997">
        <ele>23.209</ele>
        <time>2012-07-18T17:53:55Z</time>
      </trkpt>
      <trkpt lat="59.8182917" lon="17.6149397">
        <ele>19.8444</ele>
        <time>2012-07-18T17:53:59Z</time>
      </trkpt>
      <trkpt lat="59.8181645" lon="17.6148045">
        <ele>19.8444</ele>
        <time>2012-07-18T17:54:02Z</time>
      </trkpt>
      <trkpt lat="59.8180619" lon="17.6144725">
        <ele>18.4023</ele>
        <time>2012-07-18T17:54:06Z</time>
      </trkpt>
      <trkpt lat="59.8179147" lon="17.6139238">
        <ele>18.8831</ele>
        <time>2012-07-18T17:54:12Z</time>
      </trkpt>
      <trkpt lat="59.8175858" lon="17.6133616">
        <ele>16.9604</ele>
        <time>2012-07-18T17:54:19Z</time>
      </trkpt>
      <trkpt lat="59.8172596" lon="17.6128251">
        <ele>15.999</ele>
        <time>2012-07-18T17:54:25Z</time>
      </trkpt>
      <trkpt lat="59.8169435" lon="17.6124791">
        <ele>13.5958</ele>
        <time>2012-07-18T17:54:30Z</time>
      </trkpt>
      <trkpt lat="59.8166561" lon="17.6123155">
        <ele>11.6732</ele>
        <time>2012-07-18T17:54:34Z</time>
      </trkpt>
      <trkpt lat="59.8163006" lon="17.6120166">
        <ele>13.1151</ele>
        <time>2012-07-18T17:54:39Z</time>
      </trkpt>
      <trkpt lat="59.8158852" lon="17.6115276">
        <ele>14.557</ele>
        <time>2012-07-18T17:54:46Z</time>
      </trkpt>
      <trkpt lat="59.8155952" lon="17.6112257">
        <ele>12.1538</ele>
        <time>2012-07-18T17:54:51Z</time>
      </trkpt>
      <trkpt lat="59.8152628" lon="17.6110962">
        <ele>10.7118</ele>
        <time>2012-07-18T17:54:56Z</time>
      </trkpt>
      <trkpt lat="59.8151934" lon="17.6110575">
        <ele>10.2312</ele>
        <time>2012-07-18T17:54:57Z</time>
      </trkpt>
      <trkpt lat="59.8146813" lon="17.6108174">
        <ele>7.34717</ele>
        <time>2012-07-18T17:55:04Z</time>
      </trkpt>
      <trkpt lat="59.8143884" lon="17.6107915">
        <ele>7.82788</ele>
        <time>2012-07-18T17:55:08Z</time>
      </trkpt>
      <trkpt lat="59.8140343" lon="17.6108569">
        <ele>7.82788</ele>
        <time>2012-07-18T17:55:13Z</time>
      </trkpt>
      <trkpt lat="59.813964" lon="17.6108837">
        <ele>7.34717</ele>
        <time>2012-07-18T17:55:14Z</time>
      </trkpt>
      <trkpt lat="59.8134955" lon="17.610882">
        <ele>5.42456</ele>
        <time>2012-07-18T17:55:20Z</time>
      </trkpt>
      <trkpt lat="59.8129889" lon="17.6109208">
        <ele>0.618042</ele>
        <time>2012-07-18T17:55:26Z</time>
      </trkpt>
      <trkpt lat="59.812385" lon="17.6107916">
        <ele>2.54065</ele>
        <time>2012-07-18T17:55:32Z</time>
      </trkpt>
      <trkpt lat="59.811744" lon="17.6105155">
        <ele>5.90527</ele>
        <time>2012-07-18T17:55:39Z</time>
      </trkpt>
      <trkpt lat="59.8112925" lon="17.6102487">
        <ele>7.82788</ele>
        <time>2012-07-18T17:55:45Z</time>
      </trkpt>
      <trkpt lat="59.810691" lon="17.6097539">
        <ele>7.82788</ele>
        <time>2012-07-18T17:55:54Z</time>
      </trkpt>
      <trkpt lat="59.8101218" lon="17.6092354">
        <ele>7.34717</ele>
        <time>2012-07-18T17:56:03Z</time>
      </trkpt>
      <trkpt lat="59.8094098" lon="17.6085759">
        <ele>6.86646</ele>
        <time>2012-07-18T17:56:15Z</time>
      </trkpt>
      <trkpt lat="59.8090053" lon="17.6083008">
        <ele>5.90527</ele>
        <time>2012-07-18T17:56:22Z</time>
      </trkpt>
      <trkpt lat="59.808649" lon="17.6079392">
        <ele>6.38586</ele>
        <time>2012-07-18T17:56:29Z</time>
      </trkpt>
      <trkpt lat="59.8084875" lon="17.6078163">
        <ele>7.34717</ele>
        <time>2012-07-18T17:56:32Z</time>
      </trkpt>
      <trkpt lat="59.8082466" lon="17.6075087">
        <ele>6.86646</ele>
        <time>2012-07-18T17:56:37Z</time>
      </trkpt>
      <trkpt lat="59.8079891" lon="17.6072488">
        <ele>6.86646</ele>
        <time>2012-07-18T17:56:42Z</time>
      </trkpt>
      <trkpt lat="59.807615" lon="17.607038">
        <ele>4.94385</ele>
        <time>2012-07-18T17:56:49Z</time>
      </trkpt>
      <trkpt lat="59.8071045" lon="17.6068233">
        <ele>1.57935</ele>
        <time>2012-07-18T17:56:58Z</time>
      </trkpt>
      <trkpt lat="59.806805" lon="17.6066981">
        <ele>1.09863</ele>
        <time>2012-07-18T17:57:03Z</time>
      </trkpt>
      <trkpt lat="59.8062408" lon="17.6063226">
        <ele>0</ele>
        <time>2012-07-18T17:57:12Z</time>
      </trkpt>
      <trkpt lat="59.8058589" lon="17.606023">
        <ele>0</ele>
        <time>2012-07-18T17:57:19Z</time>
      </trkpt>
      <trkpt lat="59.8057121" lon="17.6058791">
        <ele>0</ele>
        <time>2012-07-18T17:57:22Z</time>
      </trkpt>
      <trkpt lat="59.8054897" lon="17.6057814">
        <ele>0</ele>
        <time>2012-07-18T17:57:26Z</time>
      </trkpt>
      <trkpt lat="59.8051925" lon="17.6055026">
        <ele>0</ele>
        <time>2012-07-18T17:57:31Z</time>
      </trkpt>
      <trkpt lat="59.8049867" lon="17.6053727">
        <ele>0</ele>
        <time>2012-07-18T17:57:34Z</time>
      </trkpt>
      <trkpt lat="59.8044691" lon="17.6052815">
        <ele>0</ele>
        <time>2012-07-18T17:57:41Z</time>
      </trkpt>
      <trkpt lat="59.8041085" lon="17.6053508">
        <ele>0</ele>
        <time>2012-07-18T17:57:46Z</time>
      </trkpt>
      <trkpt lat="59.8038025" lon="17.6054815">
        <ele>0</ele>
        <time>2012-07-18T17:57:51Z</time>
      </trkpt>
      <trkpt lat="59.8034711" lon="17.605702">
        <ele>0</ele>
        <time>2012-07-18T17:57:57Z</time>
      </trkpt>
      <trkpt lat="59.8032198" lon="17.6059558">
        <ele>0</ele>
        <time>2012-07-18T17:58:02Z</time>
      </trkpt>
      <trkpt lat="59.8029732" lon="17.6061963">
        <ele>0</ele>
        <time>2012-07-18T17:58:07Z</time>
      </trkpt>
      <trkpt lat="59.8026797" lon="17.6066572">
        <ele>0.137451</ele>
        <time>2012-07-18T17:58:13Z</time>
      </trkpt>
      <trkpt lat="59.8022847" lon="17.6072732">
        <ele>2.54065</ele>
        <time>2012-07-18T17:58:21Z</time>
      </trkpt>
      <trkpt lat="59.8019857" lon="17.6077523">
        <ele>4.46326</ele>
        <time>2012-07-18T17:58:28Z</time>
      </trkpt>
      <trkpt lat="59.8018813" lon="17.6079216">
        <ele>5.42456</ele>
        <time>2012-07-18T17:58:31Z</time>
      </trkpt>
      <trkpt lat="59.8016275" lon="17.6083821">
        <ele>2.54065</ele>
        <time>2012-07-18T17:58:38Z</time>
      </trkpt>
      <trkpt lat="59.8014227" lon="17.6088332">
        <ele>3.50195</ele>
        <time>2012-07-18T17:58:44Z</time>
      </trkpt>
      <trkpt lat="59.8012622" lon="17.6092806">
        <ele>0.137451</ele>
        <time>2012-07-18T17:58:49Z</time>
      </trkpt>
      <trkpt lat="59.8010731" lon="17.6100041">
        <ele>0</ele>
        <time>2012-07-18T17:58:56Z</time>
      </trkpt>
      <trkpt lat="59.8009365" lon="17.6105898">
        <ele>0</ele>
        <time>2012-07-18T17:59:01Z</time>
      </trkpt>
      <trkpt lat="59.8007929" lon="17.6112303">
        <ele>1.57935</ele>
        <time>2012-07-18T17:59:07Z</time>
      </trkpt>
      <trkpt lat="59.800665" lon="17.611852">
        <ele>5.90527</ele>
        <time>2012-07-18T17:59:14Z</time>
      </trkpt>
      <trkpt lat="59.8006501" lon="17.6119368">
        <ele>6.38586</ele>
        <time>2012-07-18T17:59:15Z</time>
      </trkpt>
      <trkpt lat="59.8005582" lon="17.6123305">
        <ele>7.34717</ele>
        <time>2012-07-18T17:59:20Z</time>
      </trkpt>
      <trkpt lat="59.8005223" lon="17.6125595">
        <ele>8.30859</ele>
        <time>2012-07-18T17:59:23Z</time>
      </trkpt>
      <trkpt lat="59.8004996" lon="17.6127001">
        <ele>7.34717</ele>
        <time>2012-07-18T17:59:25Z</time>
      </trkpt>
      <trkpt lat="59.8004029" lon="17.6131428">
        <ele>2.06006</ele>
        <time>2012-07-18T17:59:31Z</time>
      </trkpt>
      <trkpt lat="59.8003809" lon="17.6132381">
        <ele>1.09863</ele>
        <time>2012-07-18T17:59:32Z</time>
      </trkpt>
      <trkpt lat="59.8003392" lon="17.6135353">
        <ele>2.54065</ele>
        <time>2012-07-18T17:59:35Z</time>
      </trkpt>
      <trkpt lat="59.8002039" lon="17.6140824">
        <ele>4.94385</ele>
        <time>2012-07-18T17:59:41Z</time>
      </trkpt>
      <trkpt lat="59.8000359" lon="17.6146336">
        <ele>5.42456</ele>
        <time>2012-07-18T17:59:48Z</time>
      </trkpt>
      <trkpt lat="59.8000157" lon="17.6147081">
        <ele>5.90527</ele>
        <time>2012-07-18T17:59:49Z</time>
      </trkpt>
      <trkpt lat="59.7999306" lon="17.615004">
        <ele>5.42456</ele>
        <time>2012-07-18T17:59:53Z</time>
      </trkpt>
      <trkpt lat="59.7997745" lon="17.615329">
        <ele>5.42456</ele>
        <time>2012-07-18T17:59:58Z</time>
      </trkpt>
      <trkpt lat="59.7996833" lon="17.6156187">
        <ele>2.54065</ele>
        <time>2012-07-18T18:00:02Z</time>
      </trkpt>
      <trkpt lat="59.7995373" lon="17.6160477">
        <ele>6.38586</ele>
        <time>2012-07-18T18:00:07Z</time>
      </trkpt>
      <trkpt lat="59.799385" lon="17.616271">
        <ele>7.34717</ele>
        <time>2012-07-18T18:00:10Z</time>
      </trkpt>
      <trkpt lat="59.7990193" lon="17.6166446">
        <ele>9.2699</ele>
        <time>2012-07-18T18:00:17Z</time>
      </trkpt>
      <trkpt lat="59.7986529" lon="17.6169505">
        <ele>15.999</ele>
        <time>2012-07-18T18:00:24Z</time>
      </trkpt>
      <trkpt lat="59.7982779" lon="17.6173236">
        <ele>15.5184</ele>
        <time>2012-07-18T18:00:31Z</time>
      </trkpt>
      <trkpt lat="59.7978584" lon="17.6177168">
        <ele>16.9604</ele>
        <time>2012-07-18T18:00:39Z</time>
      </trkpt>
      <trkpt lat="59.7975088" lon="17.618038">
        <ele>15.999</ele>
        <time>2012-07-18T18:00:46Z</time>
      </trkpt>
      <trkpt lat="59.7970638" lon="17.6184248">
        <ele>10.7118</ele>
        <time>2012-07-18T18:00:54Z</time>
      </trkpt>
      <trkpt lat="59.7967188" lon="17.6186643">
        <ele>8.78918</ele>
        <time>2012-07-18T18:01:00Z</time>
      </trkpt>
      <trkpt lat="59.7963022" lon="17.6190672">
        <ele>7.82788</ele>
        <time>2012-07-18T18:01:08Z</time>
      </trkpt>
      <trkpt lat="59.7961266" lon="17.6191453">
        <ele>7.34717</ele>
        <time>2012-07-18T18:01:11Z</time>
      </trkpt>
      <trkpt lat="59.7957869" lon="17.619437">
        <ele>7.34717</ele>
        <time>2012-07-18T18:01:17Z</time>
      </trkpt>
      <trkpt lat="59.7953227" lon="17.6198203">
        <ele>12.1538</ele>
        <time>2012-07-18T18:01:25Z</time>
      </trkpt>
      <trkpt lat="59.7949015" lon="17.6202146">
        <ele>9.75061</ele>
        <time>2012-07-18T18:01:32Z</time>
      </trkpt>
      <trkpt lat="59.7945017" lon="17.6205891">
        <ele>8.78918</ele>
        <time>2012-07-18T18:01:39Z</time>
      </trkpt>
      <trkpt lat="59.7940413" lon="17.6210149">
        <ele>8.30859</ele>
        <time>2012-07-18T18:01:47Z</time>
      </trkpt>
      <trkpt lat="59.7935579" lon="17.6215001">
        <ele>9.2699</ele>
        <time>2012-07-18T18:01:55Z</time>
      </trkpt>
      <trkpt lat="59.7931804" lon="17.6219256">
        <ele>9.2699</ele>
        <time>2012-07-18T18:02:01Z</time>
      </trkpt>
      <trkpt lat="59.792654" lon="17.6224999">
        <ele>11.6732</ele>
        <time>2012-07-18T18:02:09Z</time>
      </trkpt>
      <trkpt lat="59.7921384" lon="17.6230641">
        <ele>6.86646</ele>
        <time>2012-07-18T18:02:17Z</time>
      </trkpt>
      <trkpt lat="59.7917102" lon="17.6235333">
        <ele>3.98267</ele>
        <time>2012-07-18T18:02:24Z</time>
      </trkpt>
      <trkpt lat="59.7914715" lon="17.6238116">
        <ele>0</ele>
        <time>2012-07-18T18:02:28Z</time>
      </trkpt>
      <trkpt lat="59.7911524" lon="17.6242658">
        <ele>0</ele>
        <time>2012-07-18T18:02:34Z</time>
      </trkpt>
      <trkpt lat="59.7907165" lon="17.6247315">
        <ele>0</ele>
        <time>2012-07-18T18:02:41Z</time>
      </trkpt>
      <trkpt lat="59.7902495" lon="17.625207">
        <ele>0</ele>
        <time>2012-07-18T18:02:49Z</time>
      </trkpt>
      <trkpt lat="59.7897923" lon="17.6256771">
        <ele>0</ele>
        <time>2012-07-18T18:02:57Z</time>
      </trkpt>
      <trkpt lat="59.7894563" lon="17.6260153">
        <ele>2.06006</ele>
        <time>2012-07-18T18:03:03Z</time>
      </trkpt>
      <trkpt lat="59.7889992" lon="17.6265427">
        <ele>1.09863</ele>
        <time>2012-07-18T18:03:11Z</time>
      </trkpt>
      <trkpt lat="59.7886043" lon="17.6270166">
        <ele>2.54065</ele>
        <time>2012-07-18T18:03:18Z</time>
      </trkpt>
      <trkpt lat="59.7882077" lon="17.627436">
        <ele>5.90527</ele>
        <time>2012-07-18T18:03:25Z</time>
      </trkpt>
      <trkpt lat="59.787876" lon="17.6278045">
        <ele>4.46326</ele>
        <time>2012-07-18T18:03:31Z</time>
      </trkpt>
      <trkpt lat="59.7875265" lon="17.6281697">
        <ele>3.50195</ele>
        <time>2012-07-18T18:03:37Z</time>
      </trkpt>
      <trkpt lat="59.7873759" lon="17.6283328">
        <ele>3.98267</ele>
        <time>2012-07-18T18:03:40Z</time>
      </trkpt>
      <trkpt lat="59.7871714" lon="17.628571">
        <ele>0</ele>
        <time>2012-07-18T18:03:44Z</time>
      </trkpt>
      <trkpt lat="59.7869352" lon="17.6290839">
        <ele>0</ele>
        <time>2012-07-18T18:03:49Z</time>
      </trkpt>
      <trkpt lat="59.7867198" lon="17.6296616">
        <ele>0</ele>
        <time>2012-07-18T18:03:54Z</time>
      </trkpt>
      <trkpt lat="59.7865361" lon="17.6303676">
        <ele>0</ele>
        <time>2012-07-18T18:04:00Z</time>
      </trkpt>
      <trkpt lat="59.7864736" lon="17.6307012">
        <ele>0</ele>
        <time>2012-07-18T18:04:03Z</time>
      </trkpt>
      <trkpt lat="59.7864024" lon="17.6312487">
        <ele>0</ele>
        <time>2012-07-18T18:04:09Z</time>
      </trkpt>
      <trkpt lat="59.7863762" lon="17.6317238">
        <ele>0</ele>
        <time>2012-07-18T18:04:15Z</time>
      </trkpt>
      <trkpt lat="59.7863789" lon="17.631878">
        <ele>0</ele>
        <time>2012-07-18T18:04:17Z</time>
      </trkpt>
      <trkpt lat="59.7863819" lon="17.6321324">
        <ele>0</ele>
        <time>2012-07-18T18:04:20Z</time>
      </trkpt>
      <trkpt lat="59.7863833" lon="17.6326365">
        <ele>0</ele>
        <time>2012-07-18T18:04:26Z</time>
      </trkpt>
      <trkpt lat="59.7864389" lon="17.6332273">
        <ele>0</ele>
        <time>2012-07-18T18:04:33Z</time>
      </trkpt>
      <trkpt lat="59.7864901" lon="17.6337993">
        <ele>4.94385</ele>
        <time>2012-07-18T18:04:39Z</time>
      </trkpt>
      <trkpt lat="59.7865906" lon="17.6344459">
        <ele>0.618042</ele>
        <time>2012-07-18T18:04:46Z</time>
      </trkpt>
      <trkpt lat="59.7867058" lon="17.6350592">
        <ele>0</ele>
        <time>2012-07-18T18:04:53Z</time>
      </trkpt>
      <trkpt lat="59.7867288" lon="17.6351436">
        <ele>0</ele>
        <time>2012-07-18T18:04:54Z</time>
      </trkpt>
      <trkpt lat="59.786901" lon="17.6356861">
        <ele>0</ele>
        <time>2012-07-18T18:05:00Z</time>
      </trkpt>
      <trkpt lat="59.7870872" lon="17.6362324">
        <ele>0</ele>
        <time>2012-07-18T18:05:07Z</time>
      </trkpt>
      <trkpt lat="59.7873072" lon="17.636737">
        <ele>0</ele>
        <time>2012-07-18T18:05:14Z</time>
      </trkpt>
      <trkpt lat="59.7873774" lon="17.6369332">
        <ele>0.618042</ele>
        <time>2012-07-18T18:05:17Z</time>
      </trkpt>
      <trkpt lat="59.7874376" lon="17.6370561">
        <ele>2.54065</ele>
        <time>2012-07-18T18:05:19Z</time>
      </trkpt>
      <trkpt lat="59.7876245" lon="17.6373997">
        <ele>7.82788</ele>
        <time>2012-07-18T18:05:25Z</time>
      </trkpt>
      <trkpt lat="59.7877757" lon="17.6377011">
        <ele>15.5184</ele>
        <time>2012-07-18T18:05:31Z</time>
      </trkpt>
      <trkpt lat="59.7879337" lon="17.6380125">
        <ele>18.8831</ele>
        <time>2012-07-18T18:05:37Z</time>
      </trkpt>
      <trkpt lat="59.7880764" lon="17.6383684">
        <ele>20.325</ele>
        <time>2012-07-18T18:05:42Z</time>
      </trkpt>
      <trkpt lat="59.7883783" lon="17.6389498">
        <ele>19.3638</ele>
        <time>2012-07-18T18:05:49Z</time>
      </trkpt>
      <trkpt lat="59.7884804" lon="17.6392021">
        <ele>17.4412</ele>
        <time>2012-07-18T18:05:52Z</time>
      </trkpt>
      <trkpt lat="59.7886801" lon="17.6396927">
        <ele>13.1151</ele>
        <time>2012-07-18T18:05:58Z</time>
      </trkpt>
      <trkpt lat="59.7888307" lon="17.640118">
        <ele>12.6344</ele>
        <time>2012-07-18T18:06:03Z</time>
      </trkpt>
      <trkpt lat="59.7890135" lon="17.6407283">
        <ele>15.999</ele>
        <time>2012-07-18T18:06:09Z</time>
      </trkpt>
      <trkpt lat="59.7890788" lon="17.6411803">
        <ele>15.5184</ele>
        <time>2012-07-18T18:06:13Z</time>
      </trkpt>
      <trkpt lat="59.7890971" lon="17.6414961">
        <ele>16.4797</ele>
        <time>2012-07-18T18:06:16Z</time>
      </trkpt>
      <trkpt lat="59.7890764" lon="17.6422219">
        <ele>20.325</ele>
        <time>2012-07-18T18:06:22Z</time>
      </trkpt>
      <trkpt lat="59.7890029" lon="17.6429635">
        <ele>21.767</ele>
        <time>2012-07-18T18:06:28Z</time>
      </trkpt>
      <trkpt lat="59.7889331" lon="17.6435032">
        <ele>20.8057</ele>
        <time>2012-07-18T18:06:33Z</time>
      </trkpt>
      <trkpt lat="59.7888721" lon="17.6441865">
        <ele>20.325</ele>
        <time>2012-07-18T18:06:39Z</time>
      </trkpt>
      <trkpt lat="59.7888298" lon="17.6449242">
        <ele>11.1925</ele>
        <time>2012-07-18T18:06:45Z</time>
      </trkpt>
      <trkpt lat="59.7887698" lon="17.6456339">
        <ele>7.82788</ele>
        <time>2012-07-18T18:06:51Z</time>
      </trkpt>
      <trkpt lat="59.7887115" lon="17.6463383">
        <ele>9.75061</ele>
        <time>2012-07-18T18:06:57Z</time>
      </trkpt>
      <trkpt lat="59.7886949" lon="17.6470087">
        <ele>9.2699</ele>
        <time>2012-07-18T18:07:02Z</time>
      </trkpt>
      <trkpt lat="59.7886926" lon="17.6472698">
        <ele>8.30859</ele>
        <time>2012-07-18T18:07:04Z</time>
      </trkpt>
      <trkpt lat="59.7886632" lon="17.6482068">
        <ele>7.34717</ele>
        <time>2012-07-18T18:07:10Z</time>
      </trkpt>
      <trkpt lat="59.7886574" lon="17.6492916">
        <ele>7.82788</ele>
        <time>2012-07-18T18:07:16Z</time>
      </trkpt>
      <trkpt lat="59.7886597" lon="17.6502163">
        <ele>6.38586</ele>
        <time>2012-07-18T18:07:21Z</time>
      </trkpt>
      <trkpt lat="59.7886644" lon="17.6510462">
        <ele>0.618042</ele>
        <time>2012-07-18T18:07:25Z</time>
      </trkpt>
      <trkpt lat="59.7887415" lon="17.652316">
        <ele>0</ele>
        <time>2012-07-18T18:07:31Z</time>
      </trkpt>
      <trkpt lat="59.7888391" lon="17.6536138">
        <ele>0</ele>
        <time>2012-07-18T18:07:37Z</time>
      </trkpt>
      <trkpt lat="59.7889371" lon="17.6545752">
        <ele>0</ele>
        <time>2012-07-18T18:07:42Z</time>
      </trkpt>
      <trkpt lat="59.7891114" lon="17.655448">
        <ele>0</ele>
        <time>2012-07-18T18:07:48Z</time>
      </trkpt>
      <trkpt lat="59.7892165" lon="17.6558685">
        <ele>0</ele>
        <time>2012-07-18T18:07:52Z</time>
      </trkpt>
      <trkpt lat="59.7894877" lon="17.6565964">
        <ele>0</ele>
        <time>2012-07-18T18:08:00Z</time>
      </trkpt>
      <trkpt lat="59.7895231" lon="17.6566908">
        <ele>0</ele>
        <time>2012-07-18T18:08:01Z</time>
      </trkpt>
      <trkpt lat="59.7896609" lon="17.6571612">
        <ele>0</ele>
        <time>2012-07-18T18:08:06Z</time>
      </trkpt>
      <trkpt lat="59.7897661" lon="17.6577562">
        <ele>0</ele>
        <time>2012-07-18T18:08:13Z</time>
      </trkpt>
      <trkpt lat="59.7898293" lon="17.6581303">
        <ele>0</ele>
        <time>2012-07-18T18:08:18Z</time>
      </trkpt>
      <trkpt lat="59.7898245" lon="17.6583729">
        <ele>0</ele>
        <time>2012-07-18T18:08:23Z</time>
      </trkpt>
      <trkpt lat="59.7898168" lon="17.6583919">
        <ele>0</ele>
        <time>2012-07-18T18:08:24Z</time>
      </trkpt>
      <trkpt lat="59.7897965" lon="17.6584641">
        <ele>0</ele>
        <time>2012-07-18T18:08:27Z</time>
      </trkpt>
      <trkpt lat="59.7898592" lon="17.6586034">
        <ele>0</ele>
        <time>2012-07-18T18:08:31Z</time>
      </trkpt>
      <trkpt lat="59.7898879" lon="17.658599">
        <ele>0</ele>
        <time>2012-07-18T18:08:32Z</time>
      </trkpt>
      <trkpt lat="59.7901519" lon="17.6585791">
        <ele>0</ele>
        <time>2012-07-18T18:08:40Z</time>
      </trkpt>
      <trkpt lat="59.7903581" lon="17.6585132">
        <ele>2.54065</ele>
        <time>2012-07-18T18:08:46Z</time>
      </trkpt>
      <trkpt lat="59.7905539" lon="17.6584295">
        <ele>5.42456</ele>
        <time>2012-07-18T18:08:52Z</time>
      </trkpt>
      <trkpt lat="59.7906167" lon="17.6586593">
        <ele>5.90527</ele>
        <time>2012-07-18T18:08:57Z</time>
      </trkpt>
      <trkpt lat="59.7906222" lon="17.6587281">
        <ele>3.50195</ele>
        <time>2012-07-18T18:08:58Z</time>
      </trkpt>
      <trkpt lat="59.7906162" lon="17.6588701">
        <ele>1.09863</ele>
        <time>2012-07-18T18:09:02Z</time>
      </trkpt>
      <trkpt lat="59.7906107" lon="17.6589757">
        <ele>7.82788</ele>
        <time>2012-07-18T18:09:07Z</time>
      </trkpt>
      <trkpt lat="59.790684" lon="17.6591283">
        <ele>9.75061</ele>
        <time>2012-07-18T18:09:13Z</time>
      </trkpt>
      <trkpt lat="59.7907261" lon="17.6591662">
        <ele>11.1925</ele>
        <time>2012-07-18T18:09:15Z</time>
      </trkpt>
      <trkpt lat="59.7908366" lon="17.6592366">
        <ele>11.6732</ele>
        <time>2012-07-18T18:09:21Z</time>
      </trkpt>
      <trkpt lat="59.7909527" lon="17.6591927">
        <ele>10.7118</ele>
        <time>2012-07-18T18:09:26Z</time>
      </trkpt>
      <trkpt lat="59.790969" lon="17.6591747">
        <ele>11.1925</ele>
        <time>2012-07-18T18:09:27Z</time>
      </trkpt>
      <trkpt lat="59.7910321" lon="17.6590784">
        <ele>12.1538</ele>
        <time>2012-07-18T18:09:32Z</time>
      </trkpt>
      <trkpt lat="59.7910687" lon="17.659146">
        <ele>13.1151</ele>
        <time>2012-07-18T18:09:37Z</time>
      </trkpt>
      <trkpt lat="59.791017" lon="17.6591653">
        <ele>14.0764</ele>
        <time>2012-07-18T18:09:42Z</time>
      </trkpt>
      <trkpt lat="59.7909477" lon="17.659184">
        <ele>13.5958</ele>
        <time>2012-07-18T18:09:47Z</time>
      </trkpt>
      <trkpt lat="59.7907699" lon="17.6591004">
        <ele>12.1538</ele>
        <time>2012-07-18T18:09:54Z</time>
      </trkpt>
      <trkpt lat="59.7907486" lon="17.6590679">
        <ele>12.1538</ele>
        <time>2012-07-18T18:09:55Z</time>
      </trkpt>
      <trkpt lat="59.7906796" lon="17.6589427">
        <ele>9.2699</ele>
        <time>2012-07-18T18:10:00Z</time>
      </trkpt>
      <trkpt lat="59.7906786" lon="17.6590615">
        <ele>6.38586</ele>
        <time>2012-07-18T18:10:03Z</time>
      </trkpt>
      <trkpt lat="59.7907689" lon="17.6591665">
        <ele>4.94385</ele>
        <time>2012-07-18T18:10:08Z</time>
      </trkpt>
      <trkpt lat="59.7909368" lon="17.6591537">
        <ele>4.46326</ele>
        <time>2012-07-18T18:10:13Z</time>
      </trkpt>
      <trkpt lat="59.7910424" lon="17.6591648">
        <ele>3.98267</ele>
        <time>2012-07-18T18:10:16Z</time>
      </trkpt>
      <trkpt lat="59.7913031" lon="17.6591395">
        <ele>7.82788</ele>
        <time>2012-07-18T18:10:23Z</time>
      </trkpt>
      <trkpt lat="59.7915082" lon="17.6590404">
        <ele>13.1151</ele>
        <time>2012-07-18T18:10:28Z</time>
      </trkpt>
      <trkpt lat="59.7916613" lon="17.6591636">
        <ele>16.4797</ele>
        <time>2012-07-18T18:10:32Z</time>
      </trkpt>
      <trkpt lat="59.7916977" lon="17.6591772">
        <ele>17.4412</ele>
        <time>2012-07-18T18:10:33Z</time>
      </trkpt>
      <trkpt lat="59.7918792" lon="17.6590901">
        <ele>21.2864</ele>
        <time>2012-07-18T18:10:38Z</time>
      </trkpt>
      <trkpt lat="59.791949" lon="17.6590607">
        <ele>22.2476</ele>
        <time>2012-07-18T18:10:39Z</time>
      </trkpt>
      <trkpt lat="59.7923713" lon="17.6590503">
        <ele>21.2864</ele>
        <time>2012-07-18T18:10:46Z</time>
      </trkpt>
      <trkpt lat="59.7927306" lon="17.6591176">
        <ele>20.8057</ele>
        <time>2012-07-18T18:10:51Z</time>
      </trkpt>
      <trkpt lat="59.7931004" lon="17.659147">
        <ele>25.1317</ele>
        <time>2012-07-18T18:10:56Z</time>
      </trkpt>
      <trkpt lat="59.7933912" lon="17.6591949">
        <ele>22.7283</ele>
        <time>2012-07-18T18:11:00Z</time>
      </trkpt>
      <trkpt lat="59.7936662" lon="17.6593319">
        <ele>22.7283</ele>
        <time>2012-07-18T18:11:04Z</time>
      </trkpt>
      <trkpt lat="59.7939965" lon="17.6593996">
        <ele>24.1703</ele>
        <time>2012-07-18T18:11:09Z</time>
      </trkpt>
      <trkpt lat="59.7940676" lon="17.6593896">
        <ele>25.1317</ele>
        <time>2012-07-18T18:11:10Z</time>
      </trkpt>
      <trkpt lat="59.7944204" lon="17.6593021">
        <ele>30.4188</ele>
        <time>2012-07-18T18:11:16Z</time>
      </trkpt>
      <trkpt lat="59.7944857" lon="17.6593045">
        <ele>30.8995</ele>
        <time>2012-07-18T18:11:17Z</time>
      </trkpt>
      <trkpt lat="59.7946259" lon="17.6593149">
        <ele>29.9381</ele>
        <time>2012-07-18T18:11:19Z</time>
      </trkpt>
      <trkpt lat="59.7948855" lon="17.6594176">
        <ele>27.5349</ele>
        <time>2012-07-18T18:11:23Z</time>
      </trkpt>
      <trkpt lat="59.7953352" lon="17.6596052">
        <ele>25.1317</ele>
        <time>2012-07-18T18:11:30Z</time>
      </trkpt>
      <trkpt lat="59.7957314" lon="17.6598277">
        <ele>26.5736</ele>
        <time>2012-07-18T18:11:36Z</time>
      </trkpt>
      <trkpt lat="59.7957896" lon="17.6598564">
        <ele>27.5349</ele>
        <time>2012-07-18T18:11:37Z</time>
      </trkpt>
      <trkpt lat="59.796041" lon="17.6598941">
        <ele>30.4188</ele>
        <time>2012-07-18T18:11:41Z</time>
      </trkpt>
      <trkpt lat="59.7961481" lon="17.6598621">
        <ele>30.4188</ele>
        <time>2012-07-18T18:11:43Z</time>
      </trkpt>
      <trkpt lat="59.7963635" lon="17.6598914">
        <ele>32.3416</ele>
        <time>2012-07-18T18:11:48Z</time>
      </trkpt>
      <trkpt lat="59.7964816" lon="17.6600153">
        <ele>31.3801</ele>
        <time>2012-07-18T18:11:51Z</time>
      </trkpt>
      <trkpt lat="59.7968225" lon="17.6602987">
        <ele>26.5736</ele>
        <time>2012-07-18T18:11:59Z</time>
      </trkpt>
      <trkpt lat="59.7969758" lon="17.6604023">
        <ele>28.0155</ele>
        <time>2012-07-18T18:12:03Z</time>
      </trkpt>
      <trkpt lat="59.7971858" lon="17.6605439">
        <ele>24.651</ele>
        <time>2012-07-18T18:12:11Z</time>
      </trkpt>
      <trkpt lat="59.7973249" lon="17.6605179">
        <ele>14.0764</ele>
        <time>2012-07-18T18:12:17Z</time>
      </trkpt>
      <trkpt lat="59.7974191" lon="17.6604873">
        <ele>15.5184</ele>
        <time>2012-07-18T18:12:21Z</time>
      </trkpt>
      <trkpt lat="59.7975787" lon="17.6604736">
        <ele>15.0377</ele>
        <time>2012-07-18T18:12:30Z</time>
      </trkpt>
      <trkpt lat="59.7976238" lon="17.6605116">
        <ele>18.8831</ele>
        <time>2012-07-18T18:12:34Z</time>
      </trkpt>
      <trkpt lat="59.797714" lon="17.6605114">
        <ele>25.1317</ele>
        <time>2012-07-18T18:12:41Z</time>
      </trkpt>
      <trkpt lat="59.7977615" lon="17.6605044">
        <ele>24.651</ele>
        <time>2012-07-18T18:12:46Z</time>
      </trkpt>
      <trkpt lat="59.7979123" lon="17.6605054">
        <ele>28.4962</ele>
        <time>2012-07-18T18:12:56Z</time>
      </trkpt>
      <trkpt lat="59.798018" lon="17.6604638">
        <ele>29.9381</ele>
        <time>2012-07-18T18:13:03Z</time>
      </trkpt>
      <trkpt lat="59.7981469" lon="17.6603925">
        <ele>33.3029</ele>
        <time>2012-07-18T18:13:09Z</time>
      </trkpt>
      <trkpt lat="59.7983236" lon="17.6601222">
        <ele>36.6675</ele>
        <time>2012-07-18T18:13:15Z</time>
      </trkpt>
      <trkpt lat="59.7985021" lon="17.6598362">
        <ele>37.1481</ele>
        <time>2012-07-18T18:13:19Z</time>
      </trkpt>
      <trkpt lat="59.7987317" lon="17.6592964">
        <ele>35.7061</ele>
        <time>2012-07-18T18:13:24Z</time>
      </trkpt>
      <trkpt lat="59.7987979" lon="17.6590564">
        <ele>32.3416</ele>
        <time>2012-07-18T18:13:26Z</time>
      </trkpt>
      <trkpt lat="59.7989182" lon="17.6587022">
        <ele>27.5349</ele>
        <time>2012-07-18T18:13:31Z</time>
      </trkpt>
      <trkpt lat="59.7989145" lon="17.6587939">
        <ele>21.767</ele>
        <time>2012-07-18T18:13:34Z</time>
      </trkpt>
      <trkpt lat="59.79894" lon="17.6589762">
        <ele>16.4797</ele>
        <time>2012-07-18T18:13:36Z</time>
      </trkpt>
      <trkpt lat="59.7989994" lon="17.6595899">
        <ele>3.02124</ele>
        <time>2012-07-18T18:13:42Z</time>
      </trkpt>
      <trkpt lat="59.799083" lon="17.6602179">
        <ele>0</ele>
        <time>2012-07-18T18:13:46Z</time>
      </trkpt>
      <trkpt lat="59.7991156" lon="17.660539">
        <ele>0</ele>
        <time>2012-07-18T18:13:48Z</time>
      </trkpt>
      <trkpt lat="59.7992534" lon="17.6609564">
        <ele>0</ele>
        <time>2012-07-18T18:13:52Z</time>
      </trkpt>
      <trkpt lat="59.7993314" lon="17.6609664">
        <ele>0</ele>
        <time>2012-07-18T18:13:54Z</time>
      </trkpt>
      <trkpt lat="59.7995614" lon="17.6606997">
        <ele>0</ele>
        <time>2012-07-18T18:13:59Z</time>
      </trkpt>
      <trkpt lat="59.7996026" lon="17.6606109">
        <ele>0</ele>
        <time>2012-07-18T18:14:00Z</time>
      </trkpt>
      <trkpt lat="59.7998604" lon="17.6602612">
        <ele>0</ele>
        <time>2012-07-18T18:14:05Z</time>
      </trkpt>
      <trkpt lat="59.8000691" lon="17.6603008">
        <ele>0</ele>
        <time>2012-07-18T18:14:09Z</time>
      </trkpt>
      <trkpt lat="59.8002334" lon="17.6604111">
        <ele>0</ele>
        <time>2012-07-18T18:14:12Z</time>
      </trkpt>
      <trkpt lat="59.8006063" lon="17.6607131">
        <ele>0</ele>
        <time>2012-07-18T18:14:19Z</time>
      </trkpt>
      <trkpt lat="59.8008499" lon="17.6609495">
        <ele>0</ele>
        <time>2012-07-18T18:14:24Z</time>
      </trkpt>
      <trkpt lat="59.8009476" lon="17.6610369">
        <ele>0</ele>
        <time>2012-07-18T18:14:26Z</time>
      </trkpt>
      <trkpt lat="59.8011201" lon="17.6613177">
        <ele>0</ele>
        <time>2012-07-18T18:14:30Z</time>
      </trkpt>
      <trkpt lat="59.8014255" lon="17.6615803">
        <ele>0</ele>
        <time>2012-07-18T18:14:36Z</time>
      </trkpt>
      <trkpt lat="59.8017409" lon="17.661803">
        <ele>0</ele>
        <time>2012-07-18T18:14:42Z</time>
      </trkpt>
      <trkpt lat="59.8021917" lon="17.6621227">
        <ele>0</ele>
        <time>2012-07-18T18:14:50Z</time>
      </trkpt>
      <trkpt lat="59.8022951" lon="17.6622253">
        <ele>0</ele>
        <time>2012-07-18T18:14:52Z</time>
      </trkpt>
      <trkpt lat="59.8026372" lon="17.6627519">
        <ele>0</ele>
        <time>2012-07-18T18:15:00Z</time>
      </trkpt>
      <trkpt lat="59.8030173" lon="17.6633207">
        <ele>0</ele>
        <time>2012-07-18T18:15:08Z</time>
      </trkpt>
      <trkpt lat="59.8031463" lon="17.6635159">
        <ele>0</ele>
        <time>2012-07-18T18:15:11Z</time>
      </trkpt>
      <trkpt lat="59.8034673" lon="17.6638444">
        <ele>0</ele>
        <time>2012-07-18T18:15:18Z</time>
      </trkpt>
      <trkpt lat="59.8039431" lon="17.6642004">
        <ele>0</ele>
        <time>2012-07-18T18:15:27Z</time>
      </trkpt>
      <trkpt lat="59.804289" lon="17.6644426">
        <ele>0</ele>
        <time>2012-07-18T18:15:34Z</time>
      </trkpt>
      <trkpt lat="59.8046039" lon="17.6644806">
        <ele>0</ele>
        <time>2012-07-18T18:15:40Z</time>
      </trkpt>
      <trkpt lat="59.8046595" lon="17.6644818">
        <ele>0</ele>
        <time>2012-07-18T18:15:41Z</time>
      </trkpt>
      <trkpt lat="59.8049358" lon="17.6646048">
        <ele>0</ele>
        <time>2012-07-18T18:15:47Z</time>
      </trkpt>
      <trkpt lat="59.8049831" lon="17.6646225">
        <ele>0</ele>
        <time>2012-07-18T18:15:48Z</time>
      </trkpt>
      <trkpt lat="59.8051842" lon="17.6648058">
        <ele>0</ele>
        <time>2012-07-18T18:15:52Z</time>
      </trkpt>
      <trkpt lat="59.8053668" lon="17.665154">
        <ele>0</ele>
        <time>2012-07-18T18:15:57Z</time>
      </trkpt>
      <trkpt lat="59.8056165" lon="17.6652491">
        <ele>0</ele>
        <time>2012-07-18T18:16:02Z</time>
      </trkpt>
      <trkpt lat="59.8057311" lon="17.6651732">
        <ele>0</ele>
        <time>2012-07-18T18:16:04Z</time>
      </trkpt>
      <trkpt lat="59.806115" lon="17.6649119">
        <ele>0</ele>
        <time>2012-07-18T18:16:11Z</time>
      </trkpt>
      <trkpt lat="59.8064479" lon="17.6646919">
        <ele>0</ele>
        <time>2012-07-18T18:16:17Z</time>
      </trkpt>
      <trkpt lat="59.8067792" lon="17.6646806">
        <ele>0</ele>
        <time>2012-07-18T18:16:23Z</time>
      </trkpt>
      <trkpt lat="59.8071923" lon="17.6647125">
        <ele>0</ele>
        <time>2012-07-18T18:16:30Z</time>
      </trkpt>
      <trkpt lat="59.8076914" lon="17.6648137">
        <ele>0</ele>
        <time>2012-07-18T18:16:39Z</time>
      </trkpt>
      <trkpt lat="59.8081052" lon="17.6649604">
        <ele>0</ele>
        <time>2012-07-18T18:16:46Z</time>
      </trkpt>
      <trkpt lat="59.8085211" lon="17.6651608">
        <ele>0</ele>
        <time>2012-07-18T18:16:53Z</time>
      </trkpt>
      <trkpt lat="59.8088874" lon="17.6654706">
        <ele>0</ele>
        <time>2012-07-18T18:17:00Z</time>
      </trkpt>
      <trkpt lat="59.8089362" lon="17.6655058">
        <ele>0</ele>
        <time>2012-07-18T18:17:01Z</time>
      </trkpt>
      <trkpt lat="59.8092661" lon="17.6655778">
        <ele>0</ele>
        <time>2012-07-18T18:17:08Z</time>
      </trkpt>
      <trkpt lat="59.809423" lon="17.6657715">
        <ele>0</ele>
        <time>2012-07-18T18:17:12Z</time>
      </trkpt>
      <trkpt lat="59.809663" lon="17.6665186">
        <ele>0</ele>
        <time>2012-07-18T18:17:20Z</time>
      </trkpt>
      <trkpt lat="59.8098089" lon="17.66698">
        <ele>0</ele>
        <time>2012-07-18T18:17:25Z</time>
      </trkpt>
      <trkpt lat="59.8098373" lon="17.6670738">
        <ele>0</ele>
        <time>2012-07-18T18:17:26Z</time>
      </trkpt>
      <trkpt lat="59.8098487" lon="17.6674051">
        <ele>0</ele>
        <time>2012-07-18T18:17:30Z</time>
      </trkpt>
      <trkpt lat="59.80983" lon="17.6675421">
        <ele>0</ele>
        <time>2012-07-18T18:17:32Z</time>
      </trkpt>
      <trkpt lat="59.8098032" lon="17.6676824">
        <ele>0</ele>
        <time>2012-07-18T18:17:34Z</time>
      </trkpt>
      <trkpt lat="59.8097675" lon="17.6678361">
        <ele>0</ele>
        <time>2012-07-18T18:17:36Z</time>
      </trkpt>
      <trkpt lat="59.8097493" lon="17.6683722">
        <ele>0</ele>
        <time>2012-07-18T18:17:41Z</time>
      </trkpt>
      <trkpt lat="59.8098498" lon="17.6686045">
        <ele>0</ele>
        <time>2012-07-18T18:17:44Z</time>
      </trkpt>
      <trkpt lat="59.8098976" lon="17.6686619">
        <ele>0</ele>
        <time>2012-07-18T18:17:45Z</time>
      </trkpt>
      <trkpt lat="59.8102892" lon="17.6690149">
        <ele>0</ele>
        <time>2012-07-18T18:17:53Z</time>
      </trkpt>
      <trkpt lat="59.8106754" lon="17.6693404">
        <ele>0</ele>
        <time>2012-07-18T18:18:00Z</time>
      </trkpt>
      <trkpt lat="59.8110497" lon="17.6696388">
        <ele>0</ele>
        <time>2012-07-18T18:18:07Z</time>
      </trkpt>
      <trkpt lat="59.8115384" lon="17.6699897">
        <ele>0</ele>
        <time>2012-07-18T18:18:16Z</time>
      </trkpt>
      <trkpt lat="59.8116479" lon="17.6700635">
        <ele>0</ele>
        <time>2012-07-18T18:18:18Z</time>
      </trkpt>
      <trkpt lat="59.8121016" lon="17.670186">
        <ele>0</ele>
        <time>2012-07-18T18:18:26Z</time>
      </trkpt>
      <trkpt lat="59.8125464" lon="17.6702695">
        <ele>0</ele>
        <time>2012-07-18T18:18:34Z</time>
      </trkpt>
      <trkpt lat="59.8127722" lon="17.6703427">
        <ele>0</ele>
        <time>2012-07-18T18:18:38Z</time>
      </trkpt>
      <trkpt lat="59.8131919" lon="17.6706533">
        <ele>0</ele>
        <time>2012-07-18T18:18:46Z</time>
      </trkpt>
      <trkpt lat="59.8132998" lon="17.6707175">
        <ele>0</ele>
        <time>2012-07-18T18:18:48Z</time>
      </trkpt>
      <trkpt lat="59.8137526" lon="17.6708398">
        <ele>0</ele>
        <time>2012-07-18T18:18:56Z</time>
      </trkpt>
      <trkpt lat="59.8141343" lon="17.6707951">
        <ele>0</ele>
        <time>2012-07-18T18:19:03Z</time>
      </trkpt>
      <trkpt lat="59.8143467" lon="17.6706908">
        <ele>0</ele>
        <time>2012-07-18T18:19:07Z</time>
      </trkpt>
      <trkpt lat="59.8147104" lon="17.6704025">
        <ele>0</ele>
        <time>2012-07-18T18:19:14Z</time>
      </trkpt>
      <trkpt lat="59.8147554" lon="17.6703492">
        <ele>0</ele>
        <time>2012-07-18T18:19:15Z</time>
      </trkpt>
      <trkpt lat="59.8148477" lon="17.670227">
        <ele>0</ele>
        <time>2012-07-18T18:19:17Z</time>
      </trkpt>
      <trkpt lat="59.8149743" lon="17.6698343">
        <ele>0</ele>
        <time>2012-07-18T18:19:22Z</time>
      </trkpt>
      <trkpt lat="59.8149755" lon="17.6696658">
        <ele>0</ele>
        <time>2012-07-18T18:19:24Z</time>
      </trkpt>
      <trkpt lat="59.8150739" lon="17.6694074">
        <ele>0</ele>
        <time>2012-07-18T18:19:28Z</time>
      </trkpt>
      <trkpt lat="59.8154469" lon="17.6692097">
        <ele>0</ele>
        <time>2012-07-18T18:19:35Z</time>
      </trkpt>
      <trkpt lat="59.8157956" lon="17.6692018">
        <ele>0</ele>
        <time>2012-07-18T18:19:41Z</time>
      </trkpt>
      <trkpt lat="59.8160788" lon="17.6692726">
        <ele>0</ele>
        <time>2012-07-18T18:19:46Z</time>
      </trkpt>
      <trkpt lat="59.8164093" lon="17.6693894">
        <ele>0</ele>
        <time>2012-07-18T18:19:52Z</time>
      </trkpt>
      <trkpt lat="59.81664" lon="17.6694442">
        <ele>0</ele>
        <time>2012-07-18T18:19:56Z</time>
      </trkpt>
      <trkpt lat="59.8168098" lon="17.6692874">
        <ele>0</ele>
        <time>2012-07-18T18:20:00Z</time>
      </trkpt>
      <trkpt lat="59.8168783" lon="17.6691294">
        <ele>0</ele>
        <time>2012-07-18T18:20:02Z</time>
      </trkpt>
      <trkpt lat="59.8169892" lon="17.6689382">
        <ele>0</ele>
        <time>2012-07-18T18:20:05Z</time>
      </trkpt>
      <trkpt lat="59.8171911" lon="17.6688087">
        <ele>0</ele>
        <time>2012-07-18T18:20:09Z</time>
      </trkpt>
      <trkpt lat="59.8173585" lon="17.6686613">
        <ele>0</ele>
        <time>2012-07-18T18:20:12Z</time>
      </trkpt>
      <trkpt lat="59.8176085" lon="17.6685745">
        <ele>0</ele>
        <time>2012-07-18T18:20:17Z</time>
      </trkpt>
      <trkpt lat="59.8177147" lon="17.6685983">
        <ele>0</ele>
        <time>2012-07-18T18:20:19Z</time>
      </trkpt>
      <trkpt lat="59.8180932" lon="17.6687993">
        <ele>0</ele>
        <time>2012-07-18T18:20:26Z</time>
      </trkpt>
      <trkpt lat="59.818469" lon="17.668974">
        <ele>0</ele>
        <time>2012-07-18T18:20:33Z</time>
      </trkpt>
      <trkpt lat="59.8188606" lon="17.6689459">
        <ele>0</ele>
        <time>2012-07-18T18:20:40Z</time>
      </trkpt>
      <trkpt lat="59.8192829" lon="17.6688437">
        <ele>0</ele>
        <time>2012-07-18T18:20:48Z</time>
      </trkpt>
      <trkpt lat="59.8194909" lon="17.6688371">
        <ele>0</ele>
        <time>2012-07-18T18:20:52Z</time>
      </trkpt>
      <trkpt lat="59.8198437" lon="17.6687315">
        <ele>0</ele>
        <time>2012-07-18T18:20:58Z</time>
      </trkpt>
      <trkpt lat="59.8202124" lon="17.668528">
        <ele>0</ele>
        <time>2012-07-18T18:21:05Z</time>
      </trkpt>
      <trkpt lat="59.820716" lon="17.6682481">
        <ele>0</ele>
        <time>2012-07-18T18:21:14Z</time>
      </trkpt>
      <trkpt lat="59.8213046" lon="17.667972">
        <ele>0</ele>
        <time>2012-07-18T18:21:24Z</time>
      </trkpt>
      <trkpt lat="59.8218395" lon="17.667798">
        <ele>0</ele>
        <time>2012-07-18T18:21:33Z</time>
      </trkpt>
      <trkpt lat="59.8222896" lon="17.6677285">
        <ele>0</ele>
        <time>2012-07-18T18:21:41Z</time>
      </trkpt>
      <trkpt lat="59.8227815" lon="17.6676669">
        <ele>0</ele>
        <time>2012-07-18T18:21:50Z</time>
      </trkpt>
      <trkpt lat="59.823278" lon="17.6674969">
        <ele>0</ele>
        <time>2012-07-18T18:21:59Z</time>
      </trkpt>
      <trkpt lat="59.8236056" lon="17.6673018">
        <ele>0</ele>
        <time>2012-07-18T18:22:05Z</time>
      </trkpt>
      <trkpt lat="59.8239478" lon="17.6670245">
        <ele>0</ele>
        <time>2012-07-18T18:22:12Z</time>
      </trkpt>
      <trkpt lat="59.8241535" lon="17.6668821">
        <ele>0</ele>
        <time>2012-07-18T18:22:16Z</time>
      </trkpt>
      <trkpt lat="59.8245932" lon="17.6667568">
        <ele>0</ele>
        <time>2012-07-18T18:22:23Z</time>
      </trkpt>
      <trkpt lat="59.824942" lon="17.6665455">
        <ele>0</ele>
        <time>2012-07-18T18:22:29Z</time>
      </trkpt>
      <trkpt lat="59.8251545" lon="17.6663031">
        <ele>0</ele>
        <time>2012-07-18T18:22:33Z</time>
      </trkpt>
      <trkpt lat="59.8255759" lon="17.6659264">
        <ele>0</ele>
        <time>2012-07-18T18:22:40Z</time>
      </trkpt>
      <trkpt lat="59.8259646" lon="17.665523">
        <ele>0</ele>
        <time>2012-07-18T18:22:47Z</time>
      </trkpt>
      <trkpt lat="59.826428" lon="17.6650561">
        <ele>0</ele>
        <time>2012-07-18T18:22:55Z</time>
      </trkpt>
      <trkpt lat="59.8269108" lon="17.6645499">
        <ele>0</ele>
        <time>2012-07-18T18:23:03Z</time>
      </trkpt>
      <trkpt lat="59.8273577" lon="17.6641361">
        <ele>0</ele>
        <time>2012-07-18T18:23:11Z</time>
      </trkpt>
      <trkpt lat="59.8278004" lon="17.6638025">
        <ele>0</ele>
        <time>2012-07-18T18:23:18Z</time>
      </trkpt>
      <trkpt lat="59.8283044" lon="17.6634466">
        <ele>0</ele>
        <time>2012-07-18T18:23:26Z</time>
      </trkpt>
      <trkpt lat="59.8288276" lon="17.6630319">
        <ele>0</ele>
        <time>2012-07-18T18:23:35Z</time>
      </trkpt>
      <trkpt lat="59.8293193" lon="17.6627793">
        <ele>0</ele>
        <time>2012-07-18T18:23:43Z</time>
      </trkpt>
      <trkpt lat="59.8296669" lon="17.662639">
        <ele>0</ele>
        <time>2012-07-18T18:23:49Z</time>
      </trkpt>
      <trkpt lat="59.8300386" lon="17.6624411">
        <ele>0</ele>
        <time>2012-07-18T18:23:56Z</time>
      </trkpt>
      <trkpt lat="59.830434" lon="17.6622044">
        <ele>0</ele>
        <time>2012-07-18T18:24:03Z</time>
      </trkpt>
      <trkpt lat="59.8308909" lon="17.6618899">
        <ele>0</ele>
        <time>2012-07-18T18:24:11Z</time>
      </trkpt>
      <trkpt lat="59.8312399" lon="17.6614202">
        <ele>0</ele>
        <time>2012-07-18T18:24:18Z</time>
      </trkpt>
      <trkpt lat="59.8314063" lon="17.6610752">
        <ele>0</ele>
        <time>2012-07-18T18:24:22Z</time>
      </trkpt>
      <trkpt lat="59.8315934" lon="17.660782">
        <ele>0</ele>
        <time>2012-07-18T18:24:26Z</time>
      </trkpt>
      <trkpt lat="59.8319388" lon="17.6604324">
        <ele>0</ele>
        <time>2012-07-18T18:24:33Z</time>
      </trkpt>
      <trkpt lat="59.8319911" lon="17.6603742">
        <ele>0</ele>
        <time>2012-07-18T18:24:34Z</time>
      </trkpt>
      <trkpt lat="59.8322584" lon="17.6599568">
        <ele>0</ele>
        <time>2012-07-18T18:24:40Z</time>
      </trkpt>
      <trkpt lat="59.8323288" lon="17.6598205">
        <ele>0.137451</ele>
        <time>2012-07-18T18:24:42Z</time>
      </trkpt>
      <trkpt lat="59.8325381" lon="17.6594571">
        <ele>2.06006</ele>
        <time>2012-07-18T18:24:47Z</time>
      </trkpt>
      <trkpt lat="59.8327483" lon="17.6591641">
        <ele>2.06006</ele>
        <time>2012-07-18T18:24:51Z</time>
      </trkpt>
      <trkpt lat="59.8330013" lon="17.6590698">
        <ele>1.09863</ele>
        <time>2012-07-18T18:24:55Z</time>
      </trkpt>
      <trkpt lat="59.8333192" lon="17.6590603">
        <ele>0</ele>
        <time>2012-07-18T18:25:00Z</time>
      </trkpt>
      <trkpt lat="59.8337613" lon="17.6588442">
        <ele>0</ele>
        <time>2012-07-18T18:25:07Z</time>
      </trkpt>
      <trkpt lat="59.8342495" lon="17.6586305">
        <ele>0</ele>
        <time>2012-07-18T18:25:15Z</time>
      </trkpt>
      <trkpt lat="59.834608" lon="17.6584783">
        <ele>0</ele>
        <time>2012-07-18T18:25:21Z</time>
      </trkpt>
      <trkpt lat="59.8349966" lon="17.6583193">
        <ele>0</ele>
        <time>2012-07-18T18:25:27Z</time>
      </trkpt>
      <trkpt lat="59.8353712" lon="17.6581898">
        <ele>0</ele>
        <time>2012-07-18T18:25:33Z</time>
      </trkpt>
      <trkpt lat="59.8358094" lon="17.6580469">
        <ele>0</ele>
        <time>2012-07-18T18:25:40Z</time>
      </trkpt>
      <trkpt lat="59.8363879" lon="17.6577683">
        <ele>0</ele>
        <time>2012-07-18T18:25:49Z</time>
      </trkpt>
      <trkpt lat="59.8367556" lon="17.657573">
        <ele>0</ele>
        <time>2012-07-18T18:25:55Z</time>
      </trkpt>
      <trkpt lat="59.8371664" lon="17.6574082">
        <ele>0</ele>
        <time>2012-07-18T18:26:02Z</time>
      </trkpt>
      <trkpt lat="59.8374559" lon="17.6572974">
        <ele>0</ele>
        <time>2012-07-18T18:26:07Z</time>
      </trkpt>
      <trkpt lat="59.8378757" lon="17.6571922">
        <ele>0</ele>
        <time>2012-07-18T18:26:14Z</time>
      </trkpt>
      <trkpt lat="59.8382395" lon="17.6571104">
        <ele>0</ele>
        <time>2012-07-18T18:26:20Z</time>
      </trkpt>
      <trkpt lat="59.8386456" lon="17.6570446">
        <ele>0</ele>
        <time>2012-07-18T18:26:26Z</time>
      </trkpt>
      <trkpt lat="59.8390077" lon="17.6570156">
        <ele>0</ele>
        <time>2012-07-18T18:26:32Z</time>
      </trkpt>
      <trkpt lat="59.8393515" lon="17.6569855">
        <ele>0</ele>
        <time>2012-07-18T18:26:38Z</time>
      </trkpt>
      <trkpt lat="59.8396976" lon="17.6569594">
        <ele>0</ele>
        <time>2012-07-18T18:26:44Z</time>
      </trkpt>
      <trkpt lat="59.839996" lon="17.6569571">
        <ele>0</ele>
        <time>2012-07-18T18:26:49Z</time>
      </trkpt>
      <trkpt lat="59.8403534" lon="17.6569596">
        <ele>0</ele>
        <time>2012-07-18T18:26:55Z</time>
      </trkpt>
      <trkpt lat="59.8404768" lon="17.6569472">
        <ele>0</ele>
        <time>2012-07-18T18:26:57Z</time>
      </trkpt>
      <trkpt lat="59.8407864" lon="17.6569079">
        <ele>0</ele>
        <time>2012-07-18T18:27:02Z</time>
      </trkpt>
      <trkpt lat="59.8409655" lon="17.6568587">
        <ele>0</ele>
        <time>2012-07-18T18:27:05Z</time>
      </trkpt>
      <trkpt lat="59.8412089" lon="17.6566888">
        <ele>0</ele>
        <time>2012-07-18T18:27:09Z</time>
      </trkpt>
      <trkpt lat="59.8415904" lon="17.6562122">
        <ele>0</ele>
        <time>2012-07-18T18:27:16Z</time>
      </trkpt>
      <trkpt lat="59.8416658" lon="17.656025">
        <ele>0</ele>
        <time>2012-07-18T18:27:18Z</time>
      </trkpt>
      <trkpt lat="59.8418157" lon="17.6558884">
        <ele>0</ele>
        <time>2012-07-18T18:27:20Z</time>
      </trkpt>
      <trkpt lat="59.8419968" lon="17.6555039">
        <ele>0</ele>
        <time>2012-07-18T18:27:24Z</time>
      </trkpt>
      <trkpt lat="59.8423963" lon="17.6549875">
        <ele>0</ele>
        <time>2012-07-18T18:27:32Z</time>
      </trkpt>
      <trkpt lat="59.8428517" lon="17.6544182">
        <ele>0</ele>
        <time>2012-07-18T18:27:41Z</time>
      </trkpt>
      <trkpt lat="59.8432271" lon="17.6539832">
        <ele>0</ele>
        <time>2012-07-18T18:27:48Z</time>
      </trkpt>
      <trkpt lat="59.8435966" lon="17.6535352">
        <ele>0</ele>
        <time>2012-07-18T18:27:55Z</time>
      </trkpt>
      <trkpt lat="59.843927" lon="17.6531569">
        <ele>0</ele>
        <time>2012-07-18T18:28:01Z</time>
      </trkpt>
      <trkpt lat="59.8440333" lon="17.6530465">
        <ele>0</ele>
        <time>2012-07-18T18:28:03Z</time>
      </trkpt>
      <trkpt lat="59.8444867" lon="17.6524875">
        <ele>0</ele>
        <time>2012-07-18T18:28:11Z</time>
      </trkpt>
      <trkpt lat="59.8448972" lon="17.6519324">
        <ele>0</ele>
        <time>2012-07-18T18:28:18Z</time>
      </trkpt>
      <trkpt lat="59.845123" lon="17.6516013">
        <ele>0</ele>
        <time>2012-07-18T18:28:22Z</time>
      </trkpt>
      <trkpt lat="59.8455639" lon="17.651178">
        <ele>0</ele>
        <time>2012-07-18T18:28:29Z</time>
      </trkpt>
      <trkpt lat="59.8458443" lon="17.6508565">
        <ele>0</ele>
        <time>2012-07-18T18:28:34Z</time>
      </trkpt>
      <trkpt lat="59.8461513" lon="17.6505301">
        <ele>0.618042</ele>
        <time>2012-07-18T18:28:40Z</time>
      </trkpt>
      <trkpt lat="59.8465049" lon="17.6501731">
        <ele>2.06006</ele>
        <time>2012-07-18T18:28:46Z</time>
      </trkpt>
      <trkpt lat="59.8469212" lon="17.6497442">
        <ele>3.02124</ele>
        <time>2012-07-18T18:28:53Z</time>
      </trkpt>
      <trkpt lat="59.8473248" lon="17.6492751">
        <ele>3.98267</ele>
        <time>2012-07-18T18:29:00Z</time>
      </trkpt>
      <trkpt lat="59.8476696" lon="17.6488819">
        <ele>0.137451</ele>
        <time>2012-07-18T18:29:06Z</time>
      </trkpt>
      <trkpt lat="59.8480137" lon="17.6486744">
        <ele>1.09863</ele>
        <time>2012-07-18T18:29:12Z</time>
      </trkpt>
      <trkpt lat="59.8483775" lon="17.648419">
        <ele>1.57935</ele>
        <time>2012-07-18T18:29:18Z</time>
      </trkpt>
      <trkpt lat="59.8487053" lon="17.6480979">
        <ele>0.137451</ele>
        <time>2012-07-18T18:29:24Z</time>
      </trkpt>
      <trkpt lat="59.8488114" lon="17.6480028">
        <ele>0.618042</ele>
        <time>2012-07-18T18:29:26Z</time>
      </trkpt>
      <trkpt lat="59.8491143" lon="17.6476343">
        <ele>2.54065</ele>
        <time>2012-07-18T18:29:32Z</time>
      </trkpt>
      <trkpt lat="59.8494237" lon="17.6472071">
        <ele>4.46326</ele>
        <time>2012-07-18T18:29:38Z</time>
      </trkpt>
      <trkpt lat="59.8497175" lon="17.646889">
        <ele>3.98267</ele>
        <time>2012-07-18T18:29:44Z</time>
      </trkpt>
      <trkpt lat="59.850104" lon="17.6465086">
        <ele>3.50195</ele>
        <time>2012-07-18T18:29:51Z</time>
      </trkpt>
      <trkpt lat="59.8502723" lon="17.6463638">
        <ele>3.50195</ele>
        <time>2012-07-18T18:29:54Z</time>
      </trkpt>
      <trkpt lat="59.8505131" lon="17.6461458">
        <ele>4.46326</ele>
        <time>2012-07-18T18:29:58Z</time>
      </trkpt>
      <trkpt lat="59.8507348" lon="17.6459489">
        <ele>4.94385</ele>
        <time>2012-07-18T18:30:02Z</time>
      </trkpt>
      <trkpt lat="59.8510356" lon="17.645681">
        <ele>7.34717</ele>
        <time>2012-07-18T18:30:07Z</time>
      </trkpt>
      <trkpt lat="59.8513635" lon="17.6454114">
        <ele>9.75061</ele>
        <time>2012-07-18T18:30:13Z</time>
      </trkpt>
      <trkpt lat="59.8516765" lon="17.6450906">
        <ele>7.34717</ele>
        <time>2012-07-18T18:30:18Z</time>
      </trkpt>
      <trkpt lat="59.8519521" lon="17.6447843">
        <ele>7.82788</ele>
        <time>2012-07-18T18:30:23Z</time>
      </trkpt>
      <trkpt lat="59.8522558" lon="17.6444305">
        <ele>8.30859</ele>
        <time>2012-07-18T18:30:29Z</time>
      </trkpt>
      <trkpt lat="59.8525265" lon="17.6440888">
        <ele>11.1925</ele>
        <time>2012-07-18T18:30:34Z</time>
      </trkpt>
      <trkpt lat="59.8528507" lon="17.6436395">
        <ele>11.6732</ele>
        <time>2012-07-18T18:30:40Z</time>
      </trkpt>
      <trkpt lat="59.8531244" lon="17.6431981">
        <ele>5.42456</ele>
        <time>2012-07-18T18:30:45Z</time>
      </trkpt>
      <trkpt lat="59.8533279" lon="17.6427939">
        <ele>4.46326</ele>
        <time>2012-07-18T18:30:50Z</time>
      </trkpt>
      <trkpt lat="59.8535269" lon="17.6423756">
        <ele>3.98267</ele>
        <time>2012-07-18T18:30:55Z</time>
      </trkpt>
      <trkpt lat="59.8536704" lon="17.6421243">
        <ele>4.94385</ele>
        <time>2012-07-18T18:30:58Z</time>
      </trkpt>
      <trkpt lat="59.8539029" lon="17.6419092">
        <ele>3.02124</ele>
        <time>2012-07-18T18:31:02Z</time>
      </trkpt>
      <trkpt lat="59.8540121" lon="17.6418504">
        <ele>3.02124</ele>
        <time>2012-07-18T18:31:04Z</time>
      </trkpt>
      <trkpt lat="59.8541511" lon="17.6417551">
        <ele>2.54065</ele>
        <time>2012-07-18T18:31:07Z</time>
      </trkpt>
      <trkpt lat="59.8543024" lon="17.6416276">
        <ele>1.09863</ele>
        <time>2012-07-18T18:31:11Z</time>
      </trkpt>
      <trkpt lat="59.854376" lon="17.6415635">
        <ele>0.137451</ele>
        <time>2012-07-18T18:31:13Z</time>
      </trkpt>
      <trkpt lat="59.854598" lon="17.6412767">
        <ele>1.57935</ele>
        <time>2012-07-18T18:31:19Z</time>
      </trkpt>
      <trkpt lat="59.8546727" lon="17.6411866">
        <ele>1.57935</ele>
        <time>2012-07-18T18:31:21Z</time>
      </trkpt>
      <trkpt lat="59.8548202" lon="17.641106">
        <ele>0.618042</ele>
        <time>2012-07-18T18:31:25Z</time>
      </trkpt>
      <trkpt lat="59.854953" lon="17.6411066">
        <ele>0.137451</ele>
        <time>2012-07-18T18:31:28Z</time>
      </trkpt>
      <trkpt lat="59.8553103" lon="17.64079">
        <ele>0</ele>
        <time>2012-07-18T18:31:36Z</time>
      </trkpt>
      <trkpt lat="59.8556558" lon="17.6403755">
        <ele>0</ele>
        <time>2012-07-18T18:31:44Z</time>
      </trkpt>
      <trkpt lat="59.8560408" lon="17.6399865">
        <ele>0</ele>
        <time>2012-07-18T18:31:52Z</time>
      </trkpt>
      <trkpt lat="59.8561393" lon="17.6398972">
        <ele>0</ele>
        <time>2012-07-18T18:31:54Z</time>
      </trkpt>
      <trkpt lat="59.8565677" lon="17.6393877">
        <ele>0.618042</ele>
        <time>2012-07-18T18:32:03Z</time>
      </trkpt>
      <trkpt lat="59.8566779" lon="17.6392805">
        <ele>2.54065</ele>
        <time>2012-07-18T18:32:05Z</time>
      </trkpt>
      <trkpt lat="59.8569492" lon="17.6389583">
        <ele>0</ele>
        <time>2012-07-18T18:32:11Z</time>
      </trkpt>
      <trkpt lat="59.8570834" lon="17.6387785">
        <ele>0</ele>
        <time>2012-07-18T18:32:14Z</time>
      </trkpt>
      <trkpt lat="59.857166" lon="17.638619">
        <ele>0</ele>
        <time>2012-07-18T18:32:16Z</time>
      </trkpt>
      <trkpt lat="59.8574099" lon="17.6381066">
        <ele>0</ele>
        <time>2012-07-18T18:32:22Z</time>
      </trkpt>
      <trkpt lat="59.8575253" lon="17.6379201">
        <ele>0</ele>
        <time>2012-07-18T18:32:25Z</time>
      </trkpt>
      <trkpt lat="59.8577238" lon="17.6374633">
        <ele>0</ele>
        <time>2012-07-18T18:32:31Z</time>
      </trkpt>
      <trkpt lat="59.8577768" lon="17.6373431">
        <ele>0</ele>
        <time>2012-07-18T18:32:33Z</time>
      </trkpt>
      <trkpt lat="59.8579904" lon="17.6368385">
        <ele>4.46326</ele>
        <time>2012-07-18T18:32:39Z</time>
      </trkpt>
      <trkpt lat="59.8582517" lon="17.6361025">
        <ele>9.75061</ele>
        <time>2012-07-18T18:32:47Z</time>
      </trkpt>
      <trkpt lat="59.8583387" lon="17.6359097">
        <ele>15.5184</ele>
        <time>2012-07-18T18:32:50Z</time>
      </trkpt>
      <trkpt lat="59.8584545" lon="17.6358138">
        <ele>16.9604</ele>
        <time>2012-07-18T18:32:55Z</time>
      </trkpt>
      <trkpt lat="59.8585043" lon="17.6359025">
        <ele>14.557</ele>
        <time>2012-07-18T18:32:57Z</time>
      </trkpt>
      <trkpt lat="59.8586541" lon="17.6361101">
        <ele>11.1925</ele>
        <time>2012-07-18T18:33:02Z</time>
      </trkpt>
      <trkpt lat="59.858728" lon="17.6361916">
        <ele>9.75061</ele>
        <time>2012-07-18T18:33:05Z</time>
      </trkpt>
      <trkpt lat="59.858876" lon="17.6360355">
        <ele>7.34717</ele>
        <time>2012-07-18T18:33:09Z</time>
      </trkpt>
      <trkpt lat="59.858923" lon="17.635959">
        <ele>6.38586</ele>
        <time>2012-07-18T18:33:10Z</time>
      </trkpt>
      <trkpt lat="59.8590743" lon="17.6357181">
        <ele>4.94385</ele>
        <time>2012-07-18T18:33:13Z</time>
      </trkpt>
      <trkpt lat="59.8592928" lon="17.6351784">
        <ele>3.98267</ele>
        <time>2012-07-18T18:33:18Z</time>
      </trkpt>
      <trkpt lat="59.8594903" lon="17.6347589">
        <ele>4.94385</ele>
        <time>2012-07-18T18:33:23Z</time>
      </trkpt>
      <trkpt lat="59.8595685" lon="17.6346231">
        <ele>4.94385</ele>
        <time>2012-07-18T18:33:25Z</time>
      </trkpt>
      <trkpt lat="59.8597274" lon="17.6343205">
        <ele>4.94385</ele>
        <time>2012-07-18T18:33:29Z</time>
      </trkpt>
      <trkpt lat="59.860017" lon="17.6340282">
        <ele>3.98267</ele>
        <time>2012-07-18T18:33:35Z</time>
      </trkpt>
      <trkpt lat="59.8600977" lon="17.6339235">
        <ele>4.94385</ele>
        <time>2012-07-18T18:33:37Z</time>
      </trkpt>
      <trkpt lat="59.8602818" lon="17.6338615">
        <ele>3.98267</ele>
        <time>2012-07-18T18:33:41Z</time>
      </trkpt>
      <trkpt lat="59.8604916" lon="17.6336802">
        <ele>3.98267</ele>
        <time>2012-07-18T18:33:46Z</time>
      </trkpt>
      <trkpt lat="59.8605957" lon="17.6335949">
        <ele>3.50195</ele>
        <time>2012-07-18T18:33:48Z</time>
      </trkpt>
      <trkpt lat="59.8607828" lon="17.6333949">
        <ele>5.42456</ele>
        <time>2012-07-18T18:33:52Z</time>
      </trkpt>
      <trkpt lat="59.861036" lon="17.633218">
        <ele>8.30859</ele>
        <time>2012-07-18T18:33:57Z</time>
      </trkpt>
      <trkpt lat="59.8612186" lon="17.6330491">
        <ele>5.90527</ele>
        <time>2012-07-18T18:34:02Z</time>
      </trkpt>
      <trkpt lat="59.8612345" lon="17.6329012">
        <ele>12.1538</ele>
        <time>2012-07-18T18:34:06Z</time>
      </trkpt>
      <trkpt lat="59.8610718" lon="17.6325851">
        <ele>3.98267</ele>
        <time>2012-07-18T18:34:12Z</time>
      </trkpt>
      <trkpt lat="59.861084" lon="17.6324153">
        <ele>3.02124</ele>
        <time>2012-07-18T18:34:16Z</time>
      </trkpt>
      <trkpt lat="59.8612355" lon="17.6322501">
        <ele>3.02124</ele>
        <time>2012-07-18T18:34:20Z</time>
      </trkpt>
      <trkpt lat="59.86157" lon="17.6320739">
        <ele>4.46326</ele>
        <time>2012-07-18T18:34:27Z</time>
      </trkpt>
      <trkpt lat="59.8618337" lon="17.6319821">
        <ele>4.94385</ele>
        <time>2012-07-18T18:34:33Z</time>
      </trkpt>
      <trkpt lat="59.8618694" lon="17.6319848">
        <ele>5.42456</ele>
        <time>2012-07-18T18:34:34Z</time>
      </trkpt>
      <trkpt lat="59.8620596" lon="17.631877">
        <ele>4.94385</ele>
        <time>2012-07-18T18:34:39Z</time>
      </trkpt>
      <trkpt lat="59.8621008" lon="17.6318946">
        <ele>3.98267</ele>
        <time>2012-07-18T18:34:40Z</time>
      </trkpt>
      <trkpt lat="59.8622144" lon="17.6320221">
        <ele>2.54065</ele>
        <time>2012-07-18T18:34:43Z</time>
      </trkpt>
      <trkpt lat="59.8624262" lon="17.6321148">
        <ele>1.09863</ele>
        <time>2012-07-18T18:34:48Z</time>
      </trkpt>
      <trkpt lat="59.862475" lon="17.6320293">
        <ele>1.09863</ele>
        <time>2012-07-18T18:34:49Z</time>
      </trkpt>
      <trkpt lat="59.8626483" lon="17.6318971">
        <ele>2.54065</ele>
        <time>2012-07-18T18:34:52Z</time>
      </trkpt>
      <trkpt lat="59.8628045" lon="17.6317191">
        <ele>6.86646</ele>
        <time>2012-07-18T18:34:56Z</time>
      </trkpt>
      <trkpt lat="59.8631062" lon="17.6314839">
        <ele>10.7118</ele>
        <time>2012-07-18T18:35:02Z</time>
      </trkpt>
      <trkpt lat="59.863279" lon="17.631429">
        <ele>9.75061</ele>
        <time>2012-07-18T18:35:05Z</time>
      </trkpt>
      <trkpt lat="59.8636622" lon="17.631212">
        <ele>6.86646</ele>
        <time>2012-07-18T18:35:12Z</time>
      </trkpt>
      <trkpt lat="59.8637698" lon="17.6311323">
        <ele>7.34717</ele>
        <time>2012-07-18T18:35:14Z</time>
      </trkpt>
      <trkpt lat="59.8640901" lon="17.6308555">
        <ele>8.78918</ele>
        <time>2012-07-18T18:35:20Z</time>
      </trkpt>
      <trkpt lat="59.864185" lon="17.6307863">
        <ele>9.75061</ele>
        <time>2012-07-18T18:35:22Z</time>
      </trkpt>
      <trkpt lat="59.8644161" lon="17.6305756">
        <ele>11.1925</ele>
        <time>2012-07-18T18:35:27Z</time>
      </trkpt>
      <trkpt lat="59.8647392" lon="17.6302475">
        <ele>6.38586</ele>
        <time>2012-07-18T18:35:33Z</time>
      </trkpt>
      <trkpt lat="59.8650207" lon="17.6298755">
        <ele>5.90527</ele>
        <time>2012-07-18T18:35:38Z</time>
      </trkpt>
      <trkpt lat="59.8651469" lon="17.6298597">
        <ele>7.34717</ele>
        <time>2012-07-18T18:35:40Z</time>
      </trkpt>
      <trkpt lat="59.8652529" lon="17.6294926">
        <ele>6.86646</ele>
        <time>2012-07-18T18:35:44Z</time>
      </trkpt>
      <trkpt lat="59.8652868" lon="17.629343">
        <ele>6.86646</ele>
        <time>2012-07-18T18:35:46Z</time>
      </trkpt>
      <trkpt lat="59.8653343" lon="17.6292244">
        <ele>5.90527</ele>
        <time>2012-07-18T18:35:48Z</time>
      </trkpt>
      <trkpt lat="59.8655137" lon="17.6289626">
        <ele>7.34717</ele>
        <time>2012-07-18T18:35:53Z</time>
      </trkpt>
      <trkpt lat="59.8656766" lon="17.6286148">
        <ele>7.34717</ele>
        <time>2012-07-18T18:35:58Z</time>
      </trkpt>
      <trkpt lat="59.8658968" lon="17.6281412">
        <ele>8.30859</ele>
        <time>2012-07-18T18:36:04Z</time>
      </trkpt>
      <trkpt lat="59.8659327" lon="17.6280734">
        <ele>8.78918</ele>
        <time>2012-07-18T18:36:05Z</time>
      </trkpt>
      <trkpt lat="59.8661019" lon="17.6278977">
        <ele>7.34717</ele>
        <time>2012-07-18T18:36:09Z</time>
      </trkpt>
      <trkpt lat="59.8661812" lon="17.6277755">
        <ele>5.42456</ele>
        <time>2012-07-18T18:36:11Z</time>
      </trkpt>
      <trkpt lat="59.8663586" lon="17.6273517">
        <ele>3.02124</ele>
        <time>2012-07-18T18:36:16Z</time>
      </trkpt>
      <trkpt lat="59.8666002" lon="17.6269974">
        <ele>0</ele>
        <time>2012-07-18T18:36:21Z</time>
      </trkpt>
      <trkpt lat="59.8667181" lon="17.626871">
        <ele>0</ele>
        <time>2012-07-18T18:36:24Z</time>
      </trkpt>
      <trkpt lat="59.8668354" lon="17.6266217">
        <ele>0</ele>
        <time>2012-07-18T18:36:28Z</time>
      </trkpt>
      <trkpt lat="59.8670598" lon="17.6261114">
        <ele>0</ele>
        <time>2012-07-18T18:36:34Z</time>
      </trkpt>
      <trkpt lat="59.8673909" lon="17.6257294">
        <ele>0</ele>
        <time>2012-07-18T18:36:41Z</time>
      </trkpt>
      <trkpt lat="59.8676456" lon="17.6253653">
        <ele>7.34717</ele>
        <time>2012-07-18T18:36:47Z</time>
      </trkpt>
      <trkpt lat="59.8677773" lon="17.6251282">
        <ele>10.7118</ele>
        <time>2012-07-18T18:36:51Z</time>
      </trkpt>
      <trkpt lat="59.8679181" lon="17.6249617">
        <ele>10.2312</ele>
        <time>2012-07-18T18:36:54Z</time>
      </trkpt>
      <trkpt lat="59.8683917" lon="17.6247683">
        <ele>4.46326</ele>
        <time>2012-07-18T18:37:03Z</time>
      </trkpt>
      <trkpt lat="59.868747" lon="17.6245213">
        <ele>1.09863</ele>
        <time>2012-07-18T18:37:10Z</time>
      </trkpt>
      <trkpt lat="59.8688031" lon="17.6244789">
        <ele>2.06006</ele>
        <time>2012-07-18T18:37:11Z</time>
      </trkpt>
      <trkpt lat="59.8691307" lon="17.6241779">
        <ele>0.618042</ele>
        <time>2012-07-18T18:37:18Z</time>
      </trkpt>
      <trkpt lat="59.8692438" lon="17.6240682">
        <ele>0.137451</ele>
        <time>2012-07-18T18:37:21Z</time>
      </trkpt>
      <trkpt lat="59.8693505" lon="17.6238603">
        <ele>0</ele>
        <time>2012-07-18T18:37:27Z</time>
      </trkpt>
      <trkpt lat="59.8693267" lon="17.6234727">
        <ele>0</ele>
        <time>2012-07-18T18:37:32Z</time>
      </trkpt>
      <trkpt lat="59.8692739" lon="17.623107">
        <ele>0.137451</ele>
        <time>2012-07-18T18:37:36Z</time>
      </trkpt>
      <trkpt lat="59.8693221" lon="17.6227164">
        <ele>0.137451</ele>
        <time>2012-07-18T18:37:40Z</time>
      </trkpt>
      <trkpt lat="59.8695125" lon="17.6221551">
        <ele>2.54065</ele>
        <time>2012-07-18T18:37:46Z</time>
      </trkpt>
      <trkpt lat="59.8696173" lon="17.6218721">
        <ele>1.09863</ele>
        <time>2012-07-18T18:37:49Z</time>
      </trkpt>
      <trkpt lat="59.8696933" lon="17.6215621">
        <ele>0</ele>
        <time>2012-07-18T18:37:52Z</time>
      </trkpt>
      <trkpt lat="59.8697866" lon="17.6211553">
        <ele>0</ele>
        <time>2012-07-18T18:37:56Z</time>
      </trkpt>
      <trkpt lat="59.869838" lon="17.6207218">
        <ele>0.137451</ele>
        <time>2012-07-18T18:38:00Z</time>
      </trkpt>
      <trkpt lat="59.8699162" lon="17.6200685">
        <ele>0</ele>
        <time>2012-07-18T18:38:07Z</time>
      </trkpt>
      <trkpt lat="59.8699214" lon="17.6197454">
        <ele>1.09863</ele>
        <time>2012-07-18T18:38:10Z</time>
      </trkpt>
      <trkpt lat="59.8699417" lon="17.6195366">
        <ele>0.137451</ele>
        <time>2012-07-18T18:38:12Z</time>
      </trkpt>
      <trkpt lat="59.8699442" lon="17.619116">
        <ele>0.137451</ele>
        <time>2012-07-18T18:38:16Z</time>
      </trkpt>
      <trkpt lat="59.8699917" lon="17.6187029">
        <ele>0</ele>
        <time>2012-07-18T18:38:20Z</time>
      </trkpt>
      <trkpt lat="59.8700264" lon="17.618475">
        <ele>0.137451</ele>
        <time>2012-07-18T18:38:22Z</time>
      </trkpt>
      <trkpt lat="59.8700588" lon="17.6180072">
        <ele>0.137451</ele>
        <time>2012-07-18T18:38:26Z</time>
      </trkpt>
      <trkpt lat="59.8701246" lon="17.6171989">
        <ele>4.94385</ele>
        <time>2012-07-18T18:38:32Z</time>
      </trkpt>
      <trkpt lat="59.8703291" lon="17.6165631">
        <ele>10.2312</ele>
        <time>2012-07-18T18:38:38Z</time>
      </trkpt>
      <trkpt lat="59.8704573" lon="17.6159323">
        <ele>5.42456</ele>
        <time>2012-07-18T18:38:44Z</time>
      </trkpt>
      <trkpt lat="59.8704957" lon="17.6154498">
        <ele>6.38586</ele>
        <time>2012-07-18T18:38:48Z</time>
      </trkpt>
      <trkpt lat="59.8707143" lon="17.614877">
        <ele>5.90527</ele>
        <time>2012-07-18T18:38:55Z</time>
      </trkpt>
      <trkpt lat="59.8708756" lon="17.6143663">
        <ele>6.38586</ele>
        <time>2012-07-18T18:39:01Z</time>
      </trkpt>
      <trkpt lat="59.8709031" lon="17.6142891">
        <ele>6.86646</ele>
        <time>2012-07-18T18:39:02Z</time>
      </trkpt>
      <trkpt lat="59.8710201" lon="17.6136785">
        <ele>6.38586</ele>
        <time>2012-07-18T18:39:08Z</time>
      </trkpt>
      <trkpt lat="59.8710484" lon="17.6134686">
        <ele>5.42456</ele>
        <time>2012-07-18T18:39:10Z</time>
      </trkpt>
      <trkpt lat="59.8711595" lon="17.6130412">
        <ele>3.98267</ele>
        <time>2012-07-18T18:39:14Z</time>
      </trkpt>
      <trkpt lat="59.8713977" lon="17.61237">
        <ele>0.618042</ele>
        <time>2012-07-18T18:39:21Z</time>
      </trkpt>
      <trkpt lat="59.8714327" lon="17.6122918">
        <ele>0.618042</ele>
        <time>2012-07-18T18:39:22Z</time>
      </trkpt>
      <trkpt lat="59.8716349" lon="17.6118814">
        <ele>1.57935</ele>
        <time>2012-07-18T18:39:27Z</time>
      </trkpt>
      <trkpt lat="59.8719074" lon="17.6113771">
        <ele>2.06006</ele>
        <time>2012-07-18T18:39:33Z</time>
      </trkpt>
      <trkpt lat="59.8719982" lon="17.6112129">
        <ele>3.02124</ele>
        <time>2012-07-18T18:39:35Z</time>
      </trkpt>
      <trkpt lat="59.8724383" lon="17.6105221">
        <ele>3.50195</ele>
        <time>2012-07-18T18:39:44Z</time>
      </trkpt>
      <trkpt lat="59.8727181" lon="17.6100316">
        <ele>2.06006</ele>
        <time>2012-07-18T18:39:50Z</time>
      </trkpt>
      <trkpt lat="59.8727926" lon="17.6098812">
        <ele>2.54065</ele>
        <time>2012-07-18T18:39:52Z</time>
      </trkpt>
      <trkpt lat="59.8729008" lon="17.6095508">
        <ele>2.54065</ele>
        <time>2012-07-18T18:39:56Z</time>
      </trkpt>
      <trkpt lat="59.8731466" lon="17.6092122">
        <ele>2.06006</ele>
        <time>2012-07-18T18:40:01Z</time>
      </trkpt>
      <trkpt lat="59.8733112" lon="17.6088474">
        <ele>1.57935</ele>
        <time>2012-07-18T18:40:05Z</time>
      </trkpt>
      <trkpt lat="59.8734122" lon="17.6085188">
        <ele>1.09863</ele>
        <time>2012-07-18T18:40:08Z</time>
      </trkpt>
      <trkpt lat="59.8736013" lon="17.6083127">
        <ele>0.618042</ele>
        <time>2012-07-18T18:40:12Z</time>
      </trkpt>
      <trkpt lat="59.873812" lon="17.608431">
        <ele>0</ele>
        <time>2012-07-18T18:40:16Z</time>
      </trkpt>
      <trkpt lat="59.8738687" lon="17.6084317">
        <ele>0</ele>
        <time>2012-07-18T18:40:17Z</time>
      </trkpt>
      <trkpt lat="59.8741588" lon="17.608332">
        <ele>0.137451</ele>
        <time>2012-07-18T18:40:22Z</time>
      </trkpt>
      <trkpt lat="59.8746123" lon="17.6080787">
        <ele>0</ele>
        <time>2012-07-18T18:40:30Z</time>
      </trkpt>
      <trkpt lat="59.8749552" lon="17.6078356">
        <ele>0</ele>
        <time>2012-07-18T18:40:36Z</time>
      </trkpt>
      <trkpt lat="59.8750112" lon="17.6077845">
        <ele>0</ele>
        <time>2012-07-18T18:40:37Z</time>
      </trkpt>
      <trkpt lat="59.8751263" lon="17.6076651">
        <ele>0</ele>
        <time>2012-07-18T18:40:39Z</time>
      </trkpt>
      <trkpt lat="59.875335" lon="17.6072287">
        <ele>0</ele>
        <time>2012-07-18T18:40:44Z</time>
      </trkpt>
      <trkpt lat="59.8753668" lon="17.6071131">
        <ele>0</ele>
        <time>2012-07-18T18:40:45Z</time>
      </trkpt>
      <trkpt lat="59.8756556" lon="17.6063509">
        <ele>0</ele>
        <time>2012-07-18T18:40:52Z</time>
      </trkpt>
      <trkpt lat="59.8757039" lon="17.606259">
        <ele>0</ele>
        <time>2012-07-18T18:40:53Z</time>
      </trkpt>
      <trkpt lat="59.8759278" lon="17.6058533">
        <ele>0</ele>
        <time>2012-07-18T18:40:58Z</time>
      </trkpt>
      <trkpt lat="59.8760065" lon="17.6057425">
        <ele>0</ele>
        <time>2012-07-18T18:41:00Z</time>
      </trkpt>
      <trkpt lat="59.8761183" lon="17.6055259">
        <ele>0</ele>
        <time>2012-07-18T18:41:04Z</time>
      </trkpt>
      <trkpt lat="59.87622" lon="17.6055">
        <ele>0</ele>
        <time>2012-07-18T18:41:08Z</time>
      </trkpt>
      <trkpt lat="59.8762412" lon="17.6055394">
        <ele>0</ele>
        <time>2012-07-18T18:41:09Z</time>
      </trkpt>
      <trkpt lat="59.8764307" lon="17.6060393">
        <ele>0</ele>
        <time>2012-07-18T18:41:16Z</time>
      </trkpt>
      <trkpt lat="59.8766146" lon="17.6066568">
        <ele>0</ele>
        <time>2012-07-18T18:41:23Z</time>
      </trkpt>
      <trkpt lat="59.8768337" lon="17.6073501">
        <ele>0</ele>
        <time>2012-07-18T18:41:31Z</time>
      </trkpt>
      <trkpt lat="59.877086" lon="17.6081786">
        <ele>0</ele>
        <time>2012-07-18T18:41:40Z</time>
      </trkpt>
      <trkpt lat="59.8772979" lon="17.6090127">
        <ele>0</ele>
        <time>2012-07-18T18:41:49Z</time>
      </trkpt>
      <trkpt lat="59.8774922" lon="17.6096859">
        <ele>0</ele>
        <time>2012-07-18T18:41:57Z</time>
      </trkpt>
      <trkpt lat="59.8775433" lon="17.6098373">
        <ele>0</ele>
        <time>2012-07-18T18:41:59Z</time>
      </trkpt>
      <trkpt lat="59.8776924" lon="17.6103403">
        <ele>0</ele>
        <time>2012-07-18T18:42:07Z</time>
      </trkpt>
      <trkpt lat="59.8777789" lon="17.6106755">
        <ele>0</ele>
        <time>2012-07-18T18:42:13Z</time>
      </trkpt>
      <trkpt lat="59.8779407" lon="17.6110798">
        <ele>0</ele>
        <time>2012-07-18T18:42:20Z</time>
      </trkpt>
      <trkpt lat="59.8781316" lon="17.6113318">
        <ele>3.50195</ele>
        <time>2012-07-18T18:42:25Z</time>
      </trkpt>
      <trkpt lat="59.8781743" lon="17.6113811">
        <ele>3.98267</ele>
        <time>2012-07-18T18:42:26Z</time>
      </trkpt>
      <trkpt lat="59.8783877" lon="17.6118389">
        <ele>8.30859</ele>
        <time>2012-07-18T18:42:32Z</time>
      </trkpt>
      <trkpt lat="59.8785851" lon="17.6124818">
        <ele>8.30859</ele>
        <time>2012-07-18T18:42:39Z</time>
      </trkpt>
      <trkpt lat="59.8787849" lon="17.6132309">
        <ele>1.57935</ele>
        <time>2012-07-18T18:42:47Z</time>
      </trkpt>
      <trkpt lat="59.8788147" lon="17.6133255">
        <ele>0.618042</ele>
        <time>2012-07-18T18:42:48Z</time>
      </trkpt>
      <trkpt lat="59.8790177" lon="17.6141626">
        <ele>0</ele>
        <time>2012-07-18T18:42:56Z</time>
      </trkpt>
      <trkpt lat="59.8791679" lon="17.6148618">
        <ele>0</ele>
        <time>2012-07-18T18:43:03Z</time>
      </trkpt>
      <trkpt lat="59.8792218" lon="17.6151572">
        <ele>0</ele>
        <time>2012-07-18T18:43:06Z</time>
      </trkpt>
      <trkpt lat="59.8793155" lon="17.6155053">
        <ele>0</ele>
        <time>2012-07-18T18:43:10Z</time>
      </trkpt>
      <trkpt lat="59.8793702" lon="17.6156841">
        <ele>0</ele>
        <time>2012-07-18T18:43:12Z</time>
      </trkpt>
      <trkpt lat="59.8794502" lon="17.615971">
        <ele>0</ele>
        <time>2012-07-18T18:43:16Z</time>
      </trkpt>
      <trkpt lat="59.8794979" lon="17.6163019">
        <ele>0.137451</ele>
        <time>2012-07-18T18:43:22Z</time>
      </trkpt>
      <trkpt lat="59.8795113" lon="17.6164304">
        <ele>1.57935</ele>
        <time>2012-07-18T18:43:24Z</time>
      </trkpt>
      <trkpt lat="59.8796222" lon="17.6168093">
        <ele>2.54065</ele>
        <time>2012-07-18T18:43:29Z</time>
      </trkpt>
      <trkpt lat="59.8797076" lon="17.617197">
        <ele>0</ele>
        <time>2012-07-18T18:43:33Z</time>
      </trkpt>
      <trkpt lat="59.8798347" lon="17.617927">
        <ele>0</ele>
        <time>2012-07-18T18:43:40Z</time>
      </trkpt>
      <trkpt lat="59.879988" lon="17.6185369">
        <ele>0</ele>
        <time>2012-07-18T18:43:46Z</time>
      </trkpt>
      <trkpt lat="59.8801557" lon="17.6192033">
        <ele>0.137451</ele>
        <time>2012-07-18T18:43:53Z</time>
      </trkpt>
      <trkpt lat="59.8803199" lon="17.6198763">
        <ele>4.94385</ele>
        <time>2012-07-18T18:44:00Z</time>
      </trkpt>
      <trkpt lat="59.8804738" lon="17.620574">
        <ele>2.06006</ele>
        <time>2012-07-18T18:44:07Z</time>
      </trkpt>
      <trkpt lat="59.8806209" lon="17.6209377">
        <ele>0.137451</ele>
        <time>2012-07-18T18:44:11Z</time>
      </trkpt>
      <trkpt lat="59.8809721" lon="17.6213152">
        <ele>0</ele>
        <time>2012-07-18T18:44:17Z</time>
      </trkpt>
      <trkpt lat="59.8812252" lon="17.6217717">
        <ele>0.618042</ele>
        <time>2012-07-18T18:44:22Z</time>
      </trkpt>
      <trkpt lat="59.881499" lon="17.6227105">
        <ele>4.46326</ele>
        <time>2012-07-18T18:44:30Z</time>
      </trkpt>
      <trkpt lat="59.8815429" lon="17.6229849">
        <ele>5.42456</ele>
        <time>2012-07-18T18:44:33Z</time>
      </trkpt>
      <trkpt lat="59.8815138" lon="17.6235568">
        <ele>6.86646</ele>
        <time>2012-07-18T18:44:39Z</time>
      </trkpt>
      <trkpt lat="59.881447" lon="17.6239663">
        <ele>7.82788</ele>
        <time>2012-07-18T18:44:43Z</time>
      </trkpt>
      <trkpt lat="59.8815603" lon="17.6242887">
        <ele>9.75061</ele>
        <time>2012-07-18T18:44:47Z</time>
      </trkpt>
      <trkpt lat="59.881615" lon="17.6243269">
        <ele>11.1925</ele>
        <time>2012-07-18T18:44:48Z</time>
      </trkpt>
      <trkpt lat="59.8819321" lon="17.624575">
        <ele>14.557</ele>
        <time>2012-07-18T18:44:54Z</time>
      </trkpt>
      <trkpt lat="59.8820146" lon="17.6246897">
        <ele>15.0377</ele>
        <time>2012-07-18T18:44:56Z</time>
      </trkpt>
      <trkpt lat="59.8822084" lon="17.6252455">
        <ele>15.999</ele>
        <time>2012-07-18T18:45:02Z</time>
      </trkpt>
      <trkpt lat="59.88245" lon="17.625564">
        <ele>14.557</ele>
        <time>2012-07-18T18:45:07Z</time>
      </trkpt>
      <trkpt lat="59.8825841" lon="17.6257509">
        <ele>11.6732</ele>
        <time>2012-07-18T18:45:10Z</time>
      </trkpt>
      <trkpt lat="59.8828588" lon="17.6259085">
        <ele>15.0377</ele>
        <time>2012-07-18T18:45:15Z</time>
      </trkpt>
      <trkpt lat="59.8829101" lon="17.6259257">
        <ele>13.5958</ele>
        <time>2012-07-18T18:45:16Z</time>
      </trkpt>
      <trkpt lat="59.8831478" lon="17.6258384">
        <ele>11.6732</ele>
        <time>2012-07-18T18:45:21Z</time>
      </trkpt>
      <trkpt lat="59.8834907" lon="17.6256992">
        <ele>10.2312</ele>
        <time>2012-07-18T18:45:27Z</time>
      </trkpt>
      <trkpt lat="59.8838876" lon="17.6255651">
        <ele>8.78918</ele>
        <time>2012-07-18T18:45:33Z</time>
      </trkpt>
      <trkpt lat="59.8842706" lon="17.6255717">
        <ele>6.38586</ele>
        <time>2012-07-18T18:45:39Z</time>
      </trkpt>
      <trkpt lat="59.8848565" lon="17.6255485">
        <ele>6.86646</ele>
        <time>2012-07-18T18:45:48Z</time>
      </trkpt>
      <trkpt lat="59.8851711" lon="17.6255987">
        <ele>7.82788</ele>
        <time>2012-07-18T18:45:54Z</time>
      </trkpt>
      <trkpt lat="59.8855" lon="17.6254756">
        <ele>8.78918</ele>
        <time>2012-07-18T18:46:01Z</time>
      </trkpt>
      <trkpt lat="59.8857441" lon="17.625408">
        <ele>8.78918</ele>
        <time>2012-07-18T18:46:05Z</time>
      </trkpt>
      <trkpt lat="59.8859314" lon="17.6256041">
        <ele>9.2699</ele>
        <time>2012-07-18T18:46:09Z</time>
      </trkpt>
      <trkpt lat="59.8860833" lon="17.6256662">
        <ele>9.2699</ele>
        <time>2012-07-18T18:46:12Z</time>
      </trkpt>
      <trkpt lat="59.8861423" lon="17.6256625">
        <ele>8.78918</ele>
        <time>2012-07-18T18:46:13Z</time>
      </trkpt>
      <trkpt lat="59.8866955" lon="17.6256143">
        <ele>8.30859</ele>
        <time>2012-07-18T18:46:23Z</time>
      </trkpt>
      <trkpt lat="59.8869181" lon="17.6256266">
        <ele>9.75061</ele>
        <time>2012-07-18T18:46:28Z</time>
      </trkpt>
      <trkpt lat="59.8870249" lon="17.6255914">
        <ele>9.75061</ele>
        <time>2012-07-18T18:46:31Z</time>
      </trkpt>
      <trkpt lat="59.8872883" lon="17.6254823">
        <ele>10.7118</ele>
        <time>2012-07-18T18:46:39Z</time>
      </trkpt>
      <trkpt lat="59.8875145" lon="17.6253798">
        <ele>7.34717</ele>
        <time>2012-07-18T18:46:44Z</time>
      </trkpt>
      <trkpt lat="59.8879114" lon="17.625266">
        <ele>9.2699</ele>
        <time>2012-07-18T18:46:51Z</time>
      </trkpt>
      <trkpt lat="59.8880978" lon="17.6251574">
        <ele>8.78918</ele>
        <time>2012-07-18T18:46:54Z</time>
      </trkpt>
      <trkpt lat="59.8882754" lon="17.6250777">
        <ele>9.2699</ele>
        <time>2012-07-18T18:46:57Z</time>
      </trkpt>
      <trkpt lat="59.8887439" lon="17.6249798">
        <ele>10.7118</ele>
        <time>2012-07-18T18:47:05Z</time>
      </trkpt>
      <trkpt lat="59.8891624" lon="17.6246471">
        <ele>9.75061</ele>
        <time>2012-07-18T18:47:12Z</time>
      </trkpt>
      <trkpt lat="59.8893697" lon="17.6244439">
        <ele>11.6732</ele>
        <time>2012-07-18T18:47:16Z</time>
      </trkpt>
      <trkpt lat="59.8895301" lon="17.6242197">
        <ele>11.1925</ele>
        <time>2012-07-18T18:47:19Z</time>
      </trkpt>
      <trkpt lat="59.8897849" lon="17.6241245">
        <ele>9.2699</ele>
        <time>2012-07-18T18:47:23Z</time>
      </trkpt>
      <trkpt lat="59.8903501" lon="17.6241582">
        <ele>8.78918</ele>
        <time>2012-07-18T18:47:32Z</time>
      </trkpt>
      <trkpt lat="59.8906821" lon="17.6241795">
        <ele>8.78918</ele>
        <time>2012-07-18T18:47:38Z</time>
      </trkpt>
      <trkpt lat="59.8910365" lon="17.6242249">
        <ele>11.1925</ele>
        <time>2012-07-18T18:47:45Z</time>
      </trkpt>
      <trkpt lat="59.8914048" lon="17.62418">
        <ele>7.82788</ele>
        <time>2012-07-18T18:47:51Z</time>
      </trkpt>
      <trkpt lat="59.8918169" lon="17.6241933">
        <ele>8.78918</ele>
        <time>2012-07-18T18:47:58Z</time>
      </trkpt>
      <trkpt lat="59.8919258" lon="17.624198">
        <ele>9.2699</ele>
        <time>2012-07-18T18:48:00Z</time>
      </trkpt>
      <trkpt lat="59.8921459" lon="17.6240247">
        <ele>10.2312</ele>
        <time>2012-07-18T18:48:04Z</time>
      </trkpt>
      <trkpt lat="59.8921911" lon="17.6239267">
        <ele>10.7118</ele>
        <time>2012-07-18T18:48:05Z</time>
      </trkpt>
      <trkpt lat="59.8923776" lon="17.6234048">
        <ele>10.7118</ele>
        <time>2012-07-18T18:48:10Z</time>
      </trkpt>
      <trkpt lat="59.8925784" lon="17.6231215">
        <ele>11.1925</ele>
        <time>2012-07-18T18:48:15Z</time>
      </trkpt>
      <trkpt lat="59.8926719" lon="17.6231673">
        <ele>12.6344</ele>
        <time>2012-07-18T18:48:17Z</time>
      </trkpt>
      <trkpt lat="59.8928014" lon="17.6232228">
        <ele>14.0764</ele>
        <time>2012-07-18T18:48:19Z</time>
      </trkpt>
      <trkpt lat="59.8929952" lon="17.6234256">
        <ele>14.0764</ele>
        <time>2012-07-18T18:48:23Z</time>
      </trkpt>
      <trkpt lat="59.893092" lon="17.6236096">
        <ele>13.1151</ele>
        <time>2012-07-18T18:48:26Z</time>
      </trkpt>
      <trkpt lat="59.8934116" lon="17.6240381">
        <ele>11.6732</ele>
        <time>2012-07-18T18:48:32Z</time>
      </trkpt>
      <trkpt lat="59.8936105" lon="17.6245762">
        <ele>11.6732</ele>
        <time>2012-07-18T18:48:37Z</time>
      </trkpt>
      <trkpt lat="59.893629" lon="17.6246932">
        <ele>12.1538</ele>
        <time>2012-07-18T18:48:38Z</time>
      </trkpt>
      <trkpt lat="59.8937492" lon="17.6253354">
        <ele>13.5958</ele>
        <time>2012-07-18T18:48:45Z</time>
      </trkpt>
      <trkpt lat="59.8937897" lon="17.625457">
        <ele>15.0377</ele>
        <time>2012-07-18T18:48:47Z</time>
      </trkpt>
      <trkpt lat="59.8939123" lon="17.625891">
        <ele>18.8831</ele>
        <time>2012-07-18T18:48:54Z</time>
      </trkpt>
      <trkpt lat="59.8940663" lon="17.6262808">
        <ele>19.8444</ele>
        <time>2012-07-18T18:49:00Z</time>
      </trkpt>
      <trkpt lat="59.8942128" lon="17.6265468">
        <ele>19.8444</ele>
        <time>2012-07-18T18:49:05Z</time>
      </trkpt>
      <trkpt lat="59.8944928" lon="17.6269349">
        <ele>19.3638</ele>
        <time>2012-07-18T18:49:14Z</time>
      </trkpt>
      <trkpt lat="59.8948246" lon="17.6271782">
        <ele>19.8444</ele>
        <time>2012-07-18T18:49:22Z</time>
      </trkpt>
      <trkpt lat="59.8952084" lon="17.6274106">
        <ele>20.8057</ele>
        <time>2012-07-18T18:49:31Z</time>
      </trkpt>
      <trkpt lat="59.8955593" lon="17.627635">
        <ele>21.2864</ele>
        <time>2012-07-18T18:49:39Z</time>
      </trkpt>
      <trkpt lat="59.8958856" lon="17.6277574">
        <ele>20.8057</ele>
        <time>2012-07-18T18:49:45Z</time>
      </trkpt>
      <trkpt lat="59.8961939" lon="17.6279625">
        <ele>20.325</ele>
        <time>2012-07-18T18:49:50Z</time>
      </trkpt>
      <trkpt lat="59.8965185" lon="17.6282498">
        <ele>21.2864</ele>
        <time>2012-07-18T18:49:56Z</time>
      </trkpt>
      <trkpt lat="59.8968957" lon="17.6286238">
        <ele>21.767</ele>
        <time>2012-07-18T18:50:03Z</time>
      </trkpt>
      <trkpt lat="59.8972092" lon="17.6291306">
        <ele>21.2864</ele>
        <time>2012-07-18T18:50:10Z</time>
      </trkpt>
      <trkpt lat="59.8974623" lon="17.6296674">
        <ele>19.3638</ele>
        <time>2012-07-18T18:50:16Z</time>
      </trkpt>
      <trkpt lat="59.8977228" lon="17.6305011">
        <ele>21.2864</ele>
        <time>2012-07-18T18:50:24Z</time>
      </trkpt>
      <trkpt lat="59.8979158" lon="17.6313529">
        <ele>19.3638</ele>
        <time>2012-07-18T18:50:32Z</time>
      </trkpt>
      <trkpt lat="59.8980359" lon="17.6319723">
        <ele>18.4023</ele>
        <time>2012-07-18T18:50:38Z</time>
      </trkpt>
      <trkpt lat="59.8981642" lon="17.6322524">
        <ele>17.9218</ele>
        <time>2012-07-18T18:50:42Z</time>
      </trkpt>
      <trkpt lat="59.8982677" lon="17.6324141">
        <ele>17.9218</ele>
        <time>2012-07-18T18:50:45Z</time>
      </trkpt>
      <trkpt lat="59.8983144" lon="17.6326975">
        <ele>17.4412</ele>
        <time>2012-07-18T18:50:49Z</time>
      </trkpt>
      <trkpt lat="59.8982964" lon="17.6327618">
        <ele>17.4412</ele>
        <time>2012-07-18T18:50:50Z</time>
      </trkpt>
      <trkpt lat="59.8982566" lon="17.6328935">
        <ele>18.8831</ele>
        <time>2012-07-18T18:50:52Z</time>
      </trkpt>
      <trkpt lat="59.8982177" lon="17.6331426">
        <ele>19.8444</ele>
        <time>2012-07-18T18:50:55Z</time>
      </trkpt>
      <trkpt lat="59.8981861" lon="17.6334323">
        <ele>16.9604</ele>
        <time>2012-07-18T18:50:58Z</time>
      </trkpt>
      <trkpt lat="59.898143" lon="17.6338425">
        <ele>16.9604</ele>
        <time>2012-07-18T18:51:02Z</time>
      </trkpt>
      <trkpt lat="59.8980987" lon="17.6341738">
        <ele>14.557</ele>
        <time>2012-07-18T18:51:05Z</time>
      </trkpt>
      <trkpt lat="59.8980721" lon="17.6344662">
        <ele>16.4797</ele>
        <time>2012-07-18T18:51:08Z</time>
      </trkpt>
      <trkpt lat="59.8979284" lon="17.6349229">
        <ele>15.5184</ele>
        <time>2012-07-18T18:51:13Z</time>
      </trkpt>
      <trkpt lat="59.8978982" lon="17.6350073">
        <ele>17.9218</ele>
        <time>2012-07-18T18:51:14Z</time>
      </trkpt>
      <trkpt lat="59.8977898" lon="17.6352301">
        <ele>21.2864</ele>
        <time>2012-07-18T18:51:17Z</time>
      </trkpt>
      <trkpt lat="59.8975177" lon="17.6359351">
        <ele>20.325</ele>
        <time>2012-07-18T18:51:25Z</time>
      </trkpt>
      <trkpt lat="59.8973784" lon="17.636424">
        <ele>19.3638</ele>
        <time>2012-07-18T18:51:31Z</time>
      </trkpt>
      <trkpt lat="59.8973656" lon="17.6364827">
        <ele>19.8444</ele>
        <time>2012-07-18T18:51:32Z</time>
      </trkpt>
      <trkpt lat="59.8973909" lon="17.6367548">
        <ele>17.4412</ele>
        <time>2012-07-18T18:51:36Z</time>
      </trkpt>
      <trkpt lat="59.8974723" lon="17.6368368">
        <ele>16.4797</ele>
        <time>2012-07-18T18:51:38Z</time>
      </trkpt>
      <trkpt lat="59.8975604" lon="17.6369401">
        <ele>15.5184</ele>
        <time>2012-07-18T18:51:40Z</time>
      </trkpt>
      <trkpt lat="59.8978401" lon="17.6371374">
        <ele>11.6732</ele>
        <time>2012-07-18T18:51:45Z</time>
      </trkpt>
      <trkpt lat="59.8983617" lon="17.6375793">
        <ele>11.6732</ele>
        <time>2012-07-18T18:51:53Z</time>
      </trkpt>
      <trkpt lat="59.8987788" lon="17.6379316">
        <ele>13.1151</ele>
        <time>2012-07-18T18:52:00Z</time>
      </trkpt>
      <trkpt lat="59.8991456" lon="17.6382718">
        <ele>15.0377</ele>
        <time>2012-07-18T18:52:06Z</time>
      </trkpt>
      <trkpt lat="59.8995421" lon="17.638664">
        <ele>15.0377</ele>
        <time>2012-07-18T18:52:12Z</time>
      </trkpt>
      <trkpt lat="59.9000601" lon="17.6391706">
        <ele>16.4797</ele>
        <time>2012-07-18T18:52:20Z</time>
      </trkpt>
      <trkpt lat="59.9006298" lon="17.6397327">
        <ele>16.9604</ele>
        <time>2012-07-18T18:52:29Z</time>
      </trkpt>
      <trkpt lat="59.9011268" lon="17.6402186">
        <ele>16.9604</ele>
        <time>2012-07-18T18:52:37Z</time>
      </trkpt>
      <trkpt lat="59.9017596" lon="17.6408071">
        <ele>16.4797</ele>
        <time>2012-07-18T18:52:47Z</time>
      </trkpt>
      <trkpt lat="59.9022678" lon="17.6412207">
        <ele>15.999</ele>
        <time>2012-07-18T18:52:55Z</time>
      </trkpt>
      <trkpt lat="59.9027164" lon="17.6415266">
        <ele>15.999</ele>
        <time>2012-07-18T18:53:02Z</time>
      </trkpt>
      <trkpt lat="59.903279" lon="17.6418429">
        <ele>16.9604</ele>
        <time>2012-07-18T18:53:11Z</time>
      </trkpt>
      <trkpt lat="59.9035558" lon="17.6420102">
        <ele>17.4412</ele>
        <time>2012-07-18T18:53:16Z</time>
      </trkpt>
      <trkpt lat="59.903768" lon="17.642049">
        <ele>15.5184</ele>
        <time>2012-07-18T18:53:20Z</time>
      </trkpt>
      <trkpt lat="59.9042839" lon="17.6423248">
        <ele>14.0764</ele>
        <time>2012-07-18T18:53:28Z</time>
      </trkpt>
      <trkpt lat="59.9048152" lon="17.6426546">
        <ele>14.0764</ele>
        <time>2012-07-18T18:53:36Z</time>
      </trkpt>
      <trkpt lat="59.9051616" lon="17.6428659">
        <ele>14.0764</ele>
        <time>2012-07-18T18:53:42Z</time>
      </trkpt>
      <trkpt lat="59.9054305" lon="17.6429713">
        <ele>15.0377</ele>
        <time>2012-07-18T18:53:47Z</time>
      </trkpt>
      <trkpt lat="59.9057293" lon="17.6430179">
        <ele>15.999</ele>
        <time>2012-07-18T18:53:52Z</time>
      </trkpt>
      <trkpt lat="59.9062311" lon="17.6432432">
        <ele>17.9218</ele>
        <time>2012-07-18T18:54:00Z</time>
      </trkpt>
      <trkpt lat="59.9067374" lon="17.6434319">
        <ele>19.3638</ele>
        <time>2012-07-18T18:54:09Z</time>
      </trkpt>
      <trkpt lat="59.9072652" lon="17.6435804">
        <ele>20.325</ele>
        <time>2012-07-18T18:54:19Z</time>
      </trkpt>
      <trkpt lat="59.907632" lon="17.6436515">
        <ele>21.2864</ele>
        <time>2012-07-18T18:54:26Z</time>
      </trkpt>
      <trkpt lat="59.9081095" lon="17.6437303">
        <ele>21.767</ele>
        <time>2012-07-18T18:54:35Z</time>
      </trkpt>
      <trkpt lat="59.9085581" lon="17.6437575">
        <ele>21.2864</ele>
        <time>2012-07-18T18:54:43Z</time>
      </trkpt>
      <trkpt lat="59.9090103" lon="17.6437145">
        <ele>20.8057</ele>
        <time>2012-07-18T18:54:51Z</time>
      </trkpt>
      <trkpt lat="59.9095621" lon="17.6436236">
        <ele>20.8057</ele>
        <time>2012-07-18T18:55:01Z</time>
      </trkpt>
      <trkpt lat="59.9098107" lon="17.6435632">
        <ele>21.2864</ele>
        <time>2012-07-18T18:55:06Z</time>
      </trkpt>
      <trkpt lat="59.9100553" lon="17.6436427">
        <ele>21.767</ele>
        <time>2012-07-18T18:55:11Z</time>
      </trkpt>
      <trkpt lat="59.9103684" lon="17.6436202">
        <ele>23.6896</ele>
        <time>2012-07-18T18:55:18Z</time>
      </trkpt>
      <trkpt lat="59.9104609" lon="17.643592">
        <ele>23.209</ele>
        <time>2012-07-18T18:55:20Z</time>
      </trkpt>
      <trkpt lat="59.9106125" lon="17.6435146">
        <ele>21.767</ele>
        <time>2012-07-18T18:55:23Z</time>
      </trkpt>
      <trkpt lat="59.9110611" lon="17.6434363">
        <ele>21.767</ele>
        <time>2012-07-18T18:55:31Z</time>
      </trkpt>
      <trkpt lat="59.9114658" lon="17.643339">
        <ele>22.2476</ele>
        <time>2012-07-18T18:55:38Z</time>
      </trkpt>
      <trkpt lat="59.911889" lon="17.6432536">
        <ele>20.325</ele>
        <time>2012-07-18T18:55:45Z</time>
      </trkpt>
      <trkpt lat="59.9123293" lon="17.6431237">
        <ele>19.8444</ele>
        <time>2012-07-18T18:55:52Z</time>
      </trkpt>
      <trkpt lat="59.9125261" lon="17.6430946">
        <ele>19.8444</ele>
        <time>2012-07-18T18:55:55Z</time>
      </trkpt>
      <trkpt lat="59.9128215" lon="17.6431702">
        <ele>21.767</ele>
        <time>2012-07-18T18:56:00Z</time>
      </trkpt>
      <trkpt lat="59.9130999" lon="17.6431405">
        <ele>22.7283</ele>
        <time>2012-07-18T18:56:05Z</time>
      </trkpt>
      <trkpt lat="59.9135099" lon="17.6430503">
        <ele>22.7283</ele>
        <time>2012-07-18T18:56:12Z</time>
      </trkpt>
      <trkpt lat="59.9139316" lon="17.6429659">
        <ele>22.2476</ele>
        <time>2012-07-18T18:56:19Z</time>
      </trkpt>
      <trkpt lat="59.9144566" lon="17.6428122">
        <ele>24.1703</ele>
        <time>2012-07-18T18:56:27Z</time>
      </trkpt>
      <trkpt lat="59.9149815" lon="17.6427709">
        <ele>18.8831</ele>
        <time>2012-07-18T18:56:35Z</time>
      </trkpt>
      <trkpt lat="59.9151188" lon="17.6427438">
        <ele>19.3638</ele>
        <time>2012-07-18T18:56:37Z</time>
      </trkpt>
      <trkpt lat="59.9153783" lon="17.6425986">
        <ele>18.4023</ele>
        <time>2012-07-18T18:56:41Z</time>
      </trkpt>
      <trkpt lat="59.9159878" lon="17.6424807">
        <ele>15.999</ele>
        <time>2012-07-18T18:56:49Z</time>
      </trkpt>
      <trkpt lat="59.9164619" lon="17.6424454">
        <ele>16.4797</ele>
        <time>2012-07-18T18:56:56Z</time>
      </trkpt>
      <trkpt lat="59.9169055" lon="17.6423895">
        <ele>15.999</ele>
        <time>2012-07-18T18:57:03Z</time>
      </trkpt>
      <trkpt lat="59.9171873" lon="17.6423153">
        <ele>15.5184</ele>
        <time>2012-07-18T18:57:07Z</time>
      </trkpt>
      <trkpt lat="59.9176986" lon="17.6422983">
        <ele>15.999</ele>
        <time>2012-07-18T18:57:14Z</time>
      </trkpt>
      <trkpt lat="59.9181645" lon="17.6422676">
        <ele>16.9604</ele>
        <time>2012-07-18T18:57:21Z</time>
      </trkpt>
      <trkpt lat="59.9186012" lon="17.6422148">
        <ele>17.4412</ele>
        <time>2012-07-18T18:57:29Z</time>
      </trkpt>
      <trkpt lat="59.9191463" lon="17.6421513">
        <ele>17.9218</ele>
        <time>2012-07-18T18:57:39Z</time>
      </trkpt>
      <trkpt lat="59.9196321" lon="17.642099">
        <ele>17.9218</ele>
        <time>2012-07-18T18:57:47Z</time>
      </trkpt>
      <trkpt lat="59.9200035" lon="17.6420164">
        <ele>17.9218</ele>
        <time>2012-07-18T18:57:53Z</time>
      </trkpt>
      <trkpt lat="59.9204349" lon="17.6419981">
        <ele>18.4023</ele>
        <time>2012-07-18T18:58:00Z</time>
      </trkpt>
      <trkpt lat="59.9210791" lon="17.6419561">
        <ele>20.8057</ele>
        <time>2012-07-18T18:58:10Z</time>
      </trkpt>
      <trkpt lat="59.921415" lon="17.6419309">
        <ele>21.767</ele>
        <time>2012-07-18T18:58:16Z</time>
      </trkpt>
      <trkpt lat="59.9217245" lon="17.6419004">
        <ele>22.2476</ele>
        <time>2012-07-18T18:58:22Z</time>
      </trkpt>
      <trkpt lat="59.9221276" lon="17.6418338">
        <ele>20.325</ele>
        <time>2012-07-18T18:58:29Z</time>
      </trkpt>
      <trkpt lat="59.9227004" lon="17.641769">
        <ele>19.8444</ele>
        <time>2012-07-18T18:58:39Z</time>
      </trkpt>
      <trkpt lat="59.9231371" lon="17.6417253">
        <ele>18.8831</ele>
        <time>2012-07-18T18:58:46Z</time>
      </trkpt>
      <trkpt lat="59.9238061" lon="17.6416296">
        <ele>17.4412</ele>
        <time>2012-07-18T18:58:56Z</time>
      </trkpt>
      <trkpt lat="59.9242937" lon="17.6415922">
        <ele>16.9604</ele>
        <time>2012-07-18T18:59:03Z</time>
      </trkpt>
      <trkpt lat="59.9248588" lon="17.6414945">
        <ele>16.9604</ele>
        <time>2012-07-18T18:59:11Z</time>
      </trkpt>
      <trkpt lat="59.925341" lon="17.6414713">
        <ele>16.4797</ele>
        <time>2012-07-18T18:59:18Z</time>
      </trkpt>
      <trkpt lat="59.9258802" lon="17.6414042">
        <ele>15.999</ele>
        <time>2012-07-18T18:59:26Z</time>
      </trkpt>
      <trkpt lat="59.926463" lon="17.6413348">
        <ele>15.0377</ele>
        <time>2012-07-18T18:59:35Z</time>
      </trkpt>
      <trkpt lat="59.927117" lon="17.6412614">
        <ele>15.0377</ele>
        <time>2012-07-18T18:59:45Z</time>
      </trkpt>
      <trkpt lat="59.9275832" lon="17.6412093">
        <ele>15.0377</ele>
        <time>2012-07-18T18:59:52Z</time>
      </trkpt>
      <trkpt lat="59.928237" lon="17.6411423">
        <ele>15.0377</ele>
        <time>2012-07-18T19:00:02Z</time>
      </trkpt>
      <trkpt lat="59.9288676" lon="17.6410318">
        <ele>15.5184</ele>
        <time>2012-07-18T19:00:12Z</time>
      </trkpt>
      <trkpt lat="59.9293149" lon="17.6409982">
        <ele>15.5184</ele>
        <time>2012-07-18T19:00:19Z</time>
      </trkpt>
      <trkpt lat="59.9298005" lon="17.6409152">
        <ele>15.999</ele>
        <time>2012-07-18T19:00:27Z</time>
      </trkpt>
      <trkpt lat="59.9301779" lon="17.6409103">
        <ele>15.999</ele>
        <time>2012-07-18T19:00:33Z</time>
      </trkpt>
      <trkpt lat="59.9306736" lon="17.6408944">
        <ele>16.9604</ele>
        <time>2012-07-18T19:00:41Z</time>
      </trkpt>
      <trkpt lat="59.9309501" lon="17.6409162">
        <ele>18.4023</ele>
        <time>2012-07-18T19:00:46Z</time>
      </trkpt>
      <trkpt lat="59.9313289" lon="17.6411816">
        <ele>20.8057</ele>
        <time>2012-07-18T19:00:54Z</time>
      </trkpt>
      <trkpt lat="59.9315892" lon="17.6413655">
        <ele>22.2476</ele>
        <time>2012-07-18T19:01:00Z</time>
      </trkpt>
      <trkpt lat="59.9318775" lon="17.6415733">
        <ele>22.2476</ele>
        <time>2012-07-18T19:01:06Z</time>
      </trkpt>
      <trkpt lat="59.9319691" lon="17.6416307">
        <ele>22.7283</ele>
        <time>2012-07-18T19:01:08Z</time>
      </trkpt>
      <trkpt lat="59.932274" lon="17.6418945">
        <ele>23.209</ele>
        <time>2012-07-18T19:01:15Z</time>
      </trkpt>
      <trkpt lat="59.9327209" lon="17.6423342">
        <ele>23.209</ele>
        <time>2012-07-18T19:01:24Z</time>
      </trkpt>
      <trkpt lat="59.9327627" lon="17.6423938">
        <ele>23.6896</ele>
        <time>2012-07-18T19:01:25Z</time>
      </trkpt>
      <trkpt lat="59.9328596" lon="17.6425987">
        <ele>24.1703</ele>
        <time>2012-07-18T19:01:28Z</time>
      </trkpt>
      <trkpt lat="59.9331257" lon="17.6429576">
        <ele>25.6123</ele>
        <time>2012-07-18T19:01:35Z</time>
      </trkpt>
      <trkpt lat="59.933317" lon="17.6432737">
        <ele>27.5349</ele>
        <time>2012-07-18T19:01:42Z</time>
      </trkpt>
      <trkpt lat="59.9334257" lon="17.6435099">
        <ele>24.1703</ele>
        <time>2012-07-18T19:01:49Z</time>
      </trkpt>
      <trkpt lat="59.9335492" lon="17.6436704">
        <ele>23.209</ele>
        <time>2012-07-18T19:01:55Z</time>
      </trkpt>
      <trkpt lat="59.9337152" lon="17.6438332">
        <ele>24.1703</ele>
        <time>2012-07-18T19:02:01Z</time>
      </trkpt>
      <trkpt lat="59.9339566" lon="17.6440513">
        <ele>23.6896</ele>
        <time>2012-07-18T19:02:08Z</time>
      </trkpt>
      <trkpt lat="59.9342225" lon="17.6443931">
        <ele>25.6123</ele>
        <time>2012-07-18T19:02:16Z</time>
      </trkpt>
      <trkpt lat="59.9344141" lon="17.6447025">
        <ele>25.6123</ele>
        <time>2012-07-18T19:02:23Z</time>
      </trkpt>
      <trkpt lat="59.9345725" lon="17.6449801">
        <ele>25.6123</ele>
        <time>2012-07-18T19:02:30Z</time>
      </trkpt>
      <trkpt lat="59.9348321" lon="17.6452785">
        <ele>25.6123</ele>
        <time>2012-07-18T19:02:37Z</time>
      </trkpt>
      <trkpt lat="59.9349182" lon="17.6453661">
        <ele>25.1317</ele>
        <time>2012-07-18T19:02:39Z</time>
      </trkpt>
      <trkpt lat="59.9352528" lon="17.645712">
        <ele>26.5736</ele>
        <time>2012-07-18T19:02:46Z</time>
      </trkpt>
      <trkpt lat="59.9355336" lon="17.6460188">
        <ele>28.9769</ele>
        <time>2012-07-18T19:02:52Z</time>
      </trkpt>
      <trkpt lat="59.9359045" lon="17.6464642">
        <ele>29.4575</ele>
        <time>2012-07-18T19:03:00Z</time>
      </trkpt>
      <trkpt lat="59.9362795" lon="17.6469351">
        <ele>30.8995</ele>
        <time>2012-07-18T19:03:08Z</time>
      </trkpt>
      <trkpt lat="59.9366381" lon="17.6474336">
        <ele>31.3801</ele>
        <time>2012-07-18T19:03:15Z</time>
      </trkpt>
      <trkpt lat="59.936956" lon="17.6478637">
        <ele>29.9381</ele>
        <time>2012-07-18T19:03:21Z</time>
      </trkpt>
      <trkpt lat="59.9372975" lon="17.6483058">
        <ele>30.4188</ele>
        <time>2012-07-18T19:03:27Z</time>
      </trkpt>
      <trkpt lat="59.9374585" lon="17.6486996">
        <ele>28.0155</ele>
        <time>2012-07-18T19:03:31Z</time>
      </trkpt>
      <trkpt lat="59.9377043" lon="17.6493345">
        <ele>26.0929</ele>
        <time>2012-07-18T19:03:37Z</time>
      </trkpt>
      <trkpt lat="59.9379504" lon="17.6500279">
        <ele>27.0543</ele>
        <time>2012-07-18T19:03:43Z</time>
      </trkpt>
      <trkpt lat="59.9382438" lon="17.6508524">
        <ele>28.0155</ele>
        <time>2012-07-18T19:03:50Z</time>
      </trkpt>
      <trkpt lat="59.9385184" lon="17.6514411">
        <ele>29.4575</ele>
        <time>2012-07-18T19:03:56Z</time>
      </trkpt>
      <trkpt lat="59.9387419" lon="17.6521427">
        <ele>29.4575</ele>
        <time>2012-07-18T19:04:03Z</time>
      </trkpt>
      <trkpt lat="59.9389235" lon="17.6528529">
        <ele>27.0543</ele>
        <time>2012-07-18T19:04:10Z</time>
      </trkpt>
      <trkpt lat="59.9391541" lon="17.653763">
        <ele>26.0929</ele>
        <time>2012-07-18T19:04:19Z</time>
      </trkpt>
      <trkpt lat="59.9393773" lon="17.6547308">
        <ele>24.651</ele>
        <time>2012-07-18T19:04:28Z</time>
      </trkpt>
      <trkpt lat="59.9396242" lon="17.6559764">
        <ele>23.6896</ele>
        <time>2012-07-18T19:04:39Z</time>
      </trkpt>
      <trkpt lat="59.9398341" lon="17.6570042">
        <ele>24.1703</ele>
        <time>2012-07-18T19:04:47Z</time>
      </trkpt>
      <trkpt lat="59.9400651" lon="17.6581488">
        <ele>24.1703</ele>
        <time>2012-07-18T19:04:56Z</time>
      </trkpt>
      <trkpt lat="59.9402721" lon="17.6591741">
        <ele>23.209</ele>
        <time>2012-07-18T19:05:04Z</time>
      </trkpt>
      <trkpt lat="59.9403858" lon="17.6598485">
        <ele>25.1317</ele>
        <time>2012-07-18T19:05:10Z</time>
      </trkpt>
      <trkpt lat="59.9404882" lon="17.66024">
        <ele>25.1317</ele>
        <time>2012-07-18T19:05:14Z</time>
      </trkpt>
      <trkpt lat="59.9404334" lon="17.6608649">
        <ele>25.1317</ele>
        <time>2012-07-18T19:05:19Z</time>
      </trkpt>
      <trkpt lat="59.9404136" lon="17.6611809">
        <ele>24.651</ele>
        <time>2012-07-18T19:05:21Z</time>
      </trkpt>
      <trkpt lat="59.9404609" lon="17.6617493">
        <ele>26.0929</ele>
        <time>2012-07-18T19:05:25Z</time>
      </trkpt>
      <trkpt lat="59.9405763" lon="17.6620806">
        <ele>28.9769</ele>
        <time>2012-07-18T19:05:28Z</time>
      </trkpt>
      <trkpt lat="59.9407529" lon="17.6622154">
        <ele>25.6123</ele>
        <time>2012-07-18T19:05:31Z</time>
      </trkpt>
      <trkpt lat="59.9408882" lon="17.6622387">
        <ele>25.6123</ele>
        <time>2012-07-18T19:05:33Z</time>
      </trkpt>
      <trkpt lat="59.9413078" lon="17.6624556">
        <ele>28.0155</ele>
        <time>2012-07-18T19:05:39Z</time>
      </trkpt>
      <trkpt lat="59.9416179" lon="17.6628784">
        <ele>25.1317</ele>
        <time>2012-07-18T19:05:45Z</time>
      </trkpt>
      <trkpt lat="59.9420403" lon="17.663627">
        <ele>26.5736</ele>
        <time>2012-07-18T19:05:54Z</time>
      </trkpt>
      <trkpt lat="59.9423944" lon="17.6641465">
        <ele>27.0543</ele>
        <time>2012-07-18T19:06:01Z</time>
      </trkpt>
      <trkpt lat="59.9428736" lon="17.6646954">
        <ele>25.1317</ele>
        <time>2012-07-18T19:06:09Z</time>
      </trkpt>
      <trkpt lat="59.9433615" lon="17.6650742">
        <ele>26.0929</ele>
        <time>2012-07-18T19:06:16Z</time>
      </trkpt>
      <trkpt lat="59.943898" lon="17.6654817">
        <ele>24.651</ele>
        <time>2012-07-18T19:06:24Z</time>
      </trkpt>
      <trkpt lat="59.9445681" lon="17.6657407">
        <ele>23.6896</ele>
        <time>2012-07-18T19:06:33Z</time>
      </trkpt>
      <trkpt lat="59.9452784" lon="17.6660306">
        <ele>20.8057</ele>
        <time>2012-07-18T19:06:43Z</time>
      </trkpt>
      <trkpt lat="59.9458253" lon="17.6662608">
        <ele>22.7283</ele>
        <time>2012-07-18T19:06:51Z</time>
      </trkpt>
      <trkpt lat="59.9463681" lon="17.6665222">
        <ele>23.6896</ele>
        <time>2012-07-18T19:06:59Z</time>
      </trkpt>
      <trkpt lat="59.9465711" lon="17.6666204">
        <ele>21.767</ele>
        <time>2012-07-18T19:07:02Z</time>
      </trkpt>
      <trkpt lat="59.9467112" lon="17.6666382">
        <ele>19.3638</ele>
        <time>2012-07-18T19:07:04Z</time>
      </trkpt>
      <trkpt lat="59.9471675" lon="17.666807">
        <ele>19.3638</ele>
        <time>2012-07-18T19:07:10Z</time>
      </trkpt>
      <trkpt lat="59.947773" lon="17.6671007">
        <ele>17.4412</ele>
        <time>2012-07-18T19:07:19Z</time>
      </trkpt>
      <trkpt lat="59.9483834" lon="17.6674203">
        <ele>15.999</ele>
        <time>2012-07-18T19:07:28Z</time>
      </trkpt>
      <trkpt lat="59.9489216" lon="17.6677094">
        <ele>18.4023</ele>
        <time>2012-07-18T19:07:36Z</time>
      </trkpt>
      <trkpt lat="59.9494163" lon="17.6680185">
        <ele>19.3638</ele>
        <time>2012-07-18T19:07:44Z</time>
      </trkpt>
      <trkpt lat="59.9499382" lon="17.6682694">
        <ele>16.9604</ele>
        <time>2012-07-18T19:07:52Z</time>
      </trkpt>
      <trkpt lat="59.9503948" lon="17.6683848">
        <ele>14.0764</ele>
        <time>2012-07-18T19:07:59Z</time>
      </trkpt>
      <trkpt lat="59.950832" lon="17.6683449">
        <ele>12.1538</ele>
        <time>2012-07-18T19:08:06Z</time>
      </trkpt>
      <trkpt lat="59.9513487" lon="17.6681816">
        <ele>6.86646</ele>
        <time>2012-07-18T19:08:14Z</time>
      </trkpt>
      <trkpt lat="59.9514893" lon="17.6681651">
        <ele>7.82788</ele>
        <time>2012-07-18T19:08:16Z</time>
      </trkpt>
      <trkpt lat="59.9516756" lon="17.6683332">
        <ele>9.75061</ele>
        <time>2012-07-18T19:08:19Z</time>
      </trkpt>
      <trkpt lat="59.9517158" lon="17.6684553">
        <ele>10.7118</ele>
        <time>2012-07-18T19:08:20Z</time>
      </trkpt>
      <trkpt lat="59.9517784" lon="17.6687077">
        <ele>11.6732</ele>
        <time>2012-07-18T19:08:22Z</time>
      </trkpt>
      <trkpt lat="59.9517965" lon="17.6693005">
        <ele>13.5958</ele>
        <time>2012-07-18T19:08:27Z</time>
      </trkpt>
      <trkpt lat="59.9517197" lon="17.67039">
        <ele>15.0377</ele>
        <time>2012-07-18T19:08:37Z</time>
      </trkpt>
      <trkpt lat="59.951696" lon="17.6706781">
        <ele>15.5184</ele>
        <time>2012-07-18T19:08:40Z</time>
      </trkpt>
      <trkpt lat="59.9517466" lon="17.6712131">
        <ele>16.4797</ele>
        <time>2012-07-18T19:08:46Z</time>
      </trkpt>
      <trkpt lat="59.9517852" lon="17.671456">
        <ele>17.9218</ele>
        <time>2012-07-18T19:08:50Z</time>
      </trkpt>
      <trkpt lat="59.951765" lon="17.6718222">
        <ele>19.8444</ele>
        <time>2012-07-18T19:08:56Z</time>
      </trkpt>
      <trkpt lat="59.9518136" lon="17.6722901">
        <ele>20.325</ele>
        <time>2012-07-18T19:09:01Z</time>
      </trkpt>
      <trkpt lat="59.9518657" lon="17.6728206">
        <ele>19.3638</ele>
        <time>2012-07-18T19:09:08Z</time>
      </trkpt>
      <trkpt lat="59.951946" lon="17.6734256">
        <ele>19.8444</ele>
        <time>2012-07-18T19:09:16Z</time>
      </trkpt>
      <trkpt lat="59.9520321" lon="17.6740492">
        <ele>17.9218</ele>
        <time>2012-07-18T19:09:24Z</time>
      </trkpt>
      <trkpt lat="59.9521326" lon="17.6746569">
        <ele>14.557</ele>
        <time>2012-07-18T19:09:32Z</time>
      </trkpt>
      <trkpt lat="59.9521978" lon="17.6749813">
        <ele>15.999</ele>
        <time>2012-07-18T19:09:37Z</time>
      </trkpt>
      <trkpt lat="59.9523009" lon="17.6753755">
        <ele>18.8831</ele>
        <time>2012-07-18T19:09:43Z</time>
      </trkpt>
      <trkpt lat="59.9524777" lon="17.675805">
        <ele>20.8057</ele>
        <time>2012-07-18T19:09:48Z</time>
      </trkpt>
      <trkpt lat="59.9527526" lon="17.6765403">
        <ele>22.2476</ele>
        <time>2012-07-18T19:09:55Z</time>
      </trkpt>
      <trkpt lat="59.9530496" lon="17.6772629">
        <ele>18.4023</ele>
        <time>2012-07-18T19:10:02Z</time>
      </trkpt>
      <trkpt lat="59.9532832" lon="17.6779721">
        <ele>9.75061</ele>
        <time>2012-07-18T19:10:09Z</time>
      </trkpt>
      <trkpt lat="59.9536197" lon="17.6790855">
        <ele>2.54065</ele>
        <time>2012-07-18T19:10:19Z</time>
      </trkpt>
      <trkpt lat="59.953986" lon="17.6801214">
        <ele>7.34717</ele>
        <time>2012-07-18T19:10:28Z</time>
      </trkpt>
      <trkpt lat="59.9543459" lon="17.6811517">
        <ele>11.1925</ele>
        <time>2012-07-18T19:10:37Z</time>
      </trkpt>
      <trkpt lat="59.9545596" lon="17.6817911">
        <ele>13.5958</ele>
        <time>2012-07-18T19:10:43Z</time>
      </trkpt>
      <trkpt lat="59.9545959" lon="17.6818859">
        <ele>14.0764</ele>
        <time>2012-07-18T19:10:44Z</time>
      </trkpt>
      <trkpt lat="59.9548414" lon="17.6822493">
        <ele>16.4797</ele>
        <time>2012-07-18T19:10:49Z</time>
      </trkpt>
      <trkpt lat="59.9548724" lon="17.6823534">
        <ele>16.4797</ele>
        <time>2012-07-18T19:10:50Z</time>
      </trkpt>
      <trkpt lat="59.9551605" lon="17.6834662">
        <ele>17.9218</ele>
        <time>2012-07-18T19:11:00Z</time>
      </trkpt>
      <trkpt lat="59.9553857" lon="17.6846072">
        <ele>19.8444</ele>
        <time>2012-07-18T19:11:10Z</time>
      </trkpt>
      <trkpt lat="59.9555058" lon="17.6855314">
        <ele>21.2864</ele>
        <time>2012-07-18T19:11:18Z</time>
      </trkpt>
      <trkpt lat="59.9556495" lon="17.6865784">
        <ele>21.2864</ele>
        <time>2012-07-18T19:11:27Z</time>
      </trkpt>
      <trkpt lat="59.9557654" lon="17.6873537">
        <ele>16.9604</ele>
        <time>2012-07-18T19:11:34Z</time>
      </trkpt>
      <trkpt lat="59.9559174" lon="17.68825">
        <ele>13.5958</ele>
        <time>2012-07-18T19:11:42Z</time>
      </trkpt>
      <trkpt lat="59.9559798" lon="17.6887955">
        <ele>11.6732</ele>
        <time>2012-07-18T19:11:47Z</time>
      </trkpt>
      <trkpt lat="59.9561576" lon="17.6893544">
        <ele>15.0377</ele>
        <time>2012-07-18T19:11:53Z</time>
      </trkpt>
      <trkpt lat="59.9563217" lon="17.6900609">
        <ele>20.8057</ele>
        <time>2012-07-18T19:12:01Z</time>
      </trkpt>
      <trkpt lat="59.9565621" lon="17.6907244">
        <ele>20.8057</ele>
        <time>2012-07-18T19:12:09Z</time>
      </trkpt>
      <trkpt lat="59.9568001" lon="17.6913781">
        <ele>24.1703</ele>
        <time>2012-07-18T19:12:15Z</time>
      </trkpt>
      <trkpt lat="59.9571432" lon="17.6923245">
        <ele>24.1703</ele>
        <time>2012-07-18T19:12:23Z</time>
      </trkpt>
      <trkpt lat="59.957398" lon="17.6930906">
        <ele>21.767</ele>
        <time>2012-07-18T19:12:30Z</time>
      </trkpt>
      <trkpt lat="59.9577764" lon="17.6941723">
        <ele>18.8831</ele>
        <time>2012-07-18T19:12:40Z</time>
      </trkpt>
      <trkpt lat="59.958079" lon="17.6950119">
        <ele>22.2476</ele>
        <time>2012-07-18T19:12:48Z</time>
      </trkpt>
      <trkpt lat="59.9584533" lon="17.6959778">
        <ele>22.7283</ele>
        <time>2012-07-18T19:12:58Z</time>
      </trkpt>
      <trkpt lat="59.9587315" lon="17.6967326">
        <ele>24.651</ele>
        <time>2012-07-18T19:13:06Z</time>
      </trkpt>
      <trkpt lat="59.9588912" lon="17.6974167">
        <ele>27.5349</ele>
        <time>2012-07-18T19:13:13Z</time>
      </trkpt>
      <trkpt lat="59.9589301" lon="17.6975971">
        <ele>28.0155</ele>
        <time>2012-07-18T19:13:15Z</time>
      </trkpt>
      <trkpt lat="59.9589914" lon="17.6982469">
        <ele>28.0155</ele>
        <time>2012-07-18T19:13:23Z</time>
      </trkpt>
      <trkpt lat="59.9589922" lon="17.6985546">
        <ele>29.4575</ele>
        <time>2012-07-18T19:13:27Z</time>
      </trkpt>
      <trkpt lat="59.9589813" lon="17.6992221">
        <ele>29.4575</ele>
        <time>2012-07-18T19:13:35Z</time>
      </trkpt>
      <trkpt lat="59.9590197" lon="17.6998347">
        <ele>28.9769</ele>
        <time>2012-07-18T19:13:41Z</time>
      </trkpt>
      <trkpt lat="59.9590932" lon="17.7006231">
        <ele>25.1317</ele>
        <time>2012-07-18T19:13:48Z</time>
      </trkpt>
      <trkpt lat="59.9591634" lon="17.7013721">
        <ele>23.6896</ele>
        <time>2012-07-18T19:13:55Z</time>
      </trkpt>
      <trkpt lat="59.9592067" lon="17.7016604">
        <ele>22.2476</ele>
        <time>2012-07-18T19:13:58Z</time>
      </trkpt>
      <trkpt lat="59.9594141" lon="17.702371">
        <ele>15.999</ele>
        <time>2012-07-18T19:14:05Z</time>
      </trkpt>
      <trkpt lat="59.9595091" lon="17.7026719">
        <ele>16.9604</ele>
        <time>2012-07-18T19:14:08Z</time>
      </trkpt>
      <trkpt lat="59.9597858" lon="17.7035831">
        <ele>19.3638</ele>
        <time>2012-07-18T19:14:17Z</time>
      </trkpt>
      <trkpt lat="59.9599883" lon="17.7041756">
        <ele>21.767</ele>
        <time>2012-07-18T19:14:23Z</time>
      </trkpt>
      <trkpt lat="59.9600839" lon="17.7043964">
        <ele>20.325</ele>
        <time>2012-07-18T19:14:26Z</time>
      </trkpt>
      <trkpt lat="59.9603866" lon="17.7047652">
        <ele>19.3638</ele>
        <time>2012-07-18T19:14:32Z</time>
      </trkpt>
      <trkpt lat="59.9607266" lon="17.7051629">
        <ele>24.651</ele>
        <time>2012-07-18T19:14:38Z</time>
      </trkpt>
      <trkpt lat="59.9610496" lon="17.7056521">
        <ele>23.209</ele>
        <time>2012-07-18T19:14:44Z</time>
      </trkpt>
      <trkpt lat="59.9613777" lon="17.7062902">
        <ele>23.209</ele>
        <time>2012-07-18T19:14:51Z</time>
      </trkpt>
      <trkpt lat="59.9617089" lon="17.7067269">
        <ele>22.2476</ele>
        <time>2012-07-18T19:14:57Z</time>
      </trkpt>
      <trkpt lat="59.9617609" lon="17.7067847">
        <ele>21.767</ele>
        <time>2012-07-18T19:14:58Z</time>
      </trkpt>
      <trkpt lat="59.9622964" lon="17.7071087">
        <ele>22.2476</ele>
        <time>2012-07-18T19:15:07Z</time>
      </trkpt>
      <trkpt lat="59.9627121" lon="17.7072512">
        <ele>20.325</ele>
        <time>2012-07-18T19:15:14Z</time>
      </trkpt>
      <trkpt lat="59.9631263" lon="17.7073009">
        <ele>22.2476</ele>
        <time>2012-07-18T19:15:20Z</time>
      </trkpt>
      <trkpt lat="59.963548" lon="17.7072746">
        <ele>18.8831</ele>
        <time>2012-07-18T19:15:27Z</time>
      </trkpt>
      <trkpt lat="59.963925" lon="17.7072948">
        <ele>15.5184</ele>
        <time>2012-07-18T19:15:33Z</time>
      </trkpt>
      <trkpt lat="59.9644026" lon="17.7074107">
        <ele>22.2476</ele>
        <time>2012-07-18T19:15:40Z</time>
      </trkpt>
      <trkpt lat="59.9647673" lon="17.7076134">
        <ele>27.0543</ele>
        <time>2012-07-18T19:15:46Z</time>
      </trkpt>
      <trkpt lat="59.9652632" lon="17.7079806">
        <ele>28.0155</ele>
        <time>2012-07-18T19:15:54Z</time>
      </trkpt>
      <trkpt lat="59.9656852" lon="17.70846">
        <ele>28.4962</ele>
        <time>2012-07-18T19:16:01Z</time>
      </trkpt>
      <trkpt lat="59.9658982" lon="17.7089803">
        <ele>27.0543</ele>
        <time>2012-07-18T19:16:06Z</time>
      </trkpt>
      <trkpt lat="59.9661313" lon="17.7097547">
        <ele>23.6896</ele>
        <time>2012-07-18T19:16:13Z</time>
      </trkpt>
      <trkpt lat="59.9663966" lon="17.7107243">
        <ele>22.2476</ele>
        <time>2012-07-18T19:16:22Z</time>
      </trkpt>
      <trkpt lat="59.9666493" lon="17.7116072">
        <ele>20.8057</ele>
        <time>2012-07-18T19:16:31Z</time>
      </trkpt>
      <trkpt lat="59.9669261" lon="17.7124023">
        <ele>15.5184</ele>
        <time>2012-07-18T19:16:40Z</time>
      </trkpt>
      <trkpt lat="59.9671478" lon="17.713099">
        <ele>16.4797</ele>
        <time>2012-07-18T19:16:47Z</time>
      </trkpt>
      <trkpt lat="59.9673031" lon="17.7139836">
        <ele>17.4412</ele>
        <time>2012-07-18T19:16:54Z</time>
      </trkpt>
      <trkpt lat="59.9674238" lon="17.7148528">
        <ele>10.7118</ele>
        <time>2012-07-18T19:17:00Z</time>
      </trkpt>
      <trkpt lat="59.9675228" lon="17.7156402">
        <ele>11.1925</ele>
        <time>2012-07-18T19:17:05Z</time>
      </trkpt>
      <trkpt lat="59.9675971" lon="17.715977">
        <ele>10.2312</ele>
        <time>2012-07-18T19:17:08Z</time>
      </trkpt>
      <trkpt lat="59.9677274" lon="17.7163655">
        <ele>11.1925</ele>
        <time>2012-07-18T19:17:12Z</time>
      </trkpt>
      <trkpt lat="59.9680511" lon="17.7168624">
        <ele>17.9218</ele>
        <time>2012-07-18T19:17:20Z</time>
      </trkpt>
      <trkpt lat="59.968161" lon="17.7170002">
        <ele>18.8831</ele>
        <time>2012-07-18T19:17:23Z</time>
      </trkpt>
      <trkpt lat="59.9682766" lon="17.7171114">
        <ele>19.8444</ele>
        <time>2012-07-18T19:17:26Z</time>
      </trkpt>
      <trkpt lat="59.9686038" lon="17.7173078">
        <ele>18.4023</ele>
        <time>2012-07-18T19:17:34Z</time>
      </trkpt>
      <trkpt lat="59.9689349" lon="17.7174534">
        <ele>15.999</ele>
        <time>2012-07-18T19:17:41Z</time>
      </trkpt>
      <trkpt lat="59.9694042" lon="17.7176559">
        <ele>22.2476</ele>
        <time>2012-07-18T19:17:50Z</time>
      </trkpt>
      <trkpt lat="59.9698184" lon="17.7179247">
        <ele>27.5349</ele>
        <time>2012-07-18T19:17:57Z</time>
      </trkpt>
      <trkpt lat="59.9702459" lon="17.7183459">
        <ele>16.9604</ele>
        <time>2012-07-18T19:18:05Z</time>
      </trkpt>
      <trkpt lat="59.9707658" lon="17.7188225">
        <ele>17.4412</ele>
        <time>2012-07-18T19:18:14Z</time>
      </trkpt>
      <trkpt lat="59.9712079" lon="17.7192151">
        <ele>15.5184</ele>
        <time>2012-07-18T19:18:21Z</time>
      </trkpt>
      <trkpt lat="59.9718874" lon="17.7197911">
        <ele>20.8057</ele>
        <time>2012-07-18T19:18:31Z</time>
      </trkpt>
      <trkpt lat="59.9726068" lon="17.720433">
        <ele>17.9218</ele>
        <time>2012-07-18T19:18:42Z</time>
      </trkpt>
      <trkpt lat="59.9730468" lon="17.7209277">
        <ele>18.4023</ele>
        <time>2012-07-18T19:18:49Z</time>
      </trkpt>
      <trkpt lat="59.973385" lon="17.7215063">
        <ele>19.8444</ele>
        <time>2012-07-18T19:18:55Z</time>
      </trkpt>
      <trkpt lat="59.9737174" lon="17.7223202">
        <ele>19.8444</ele>
        <time>2012-07-18T19:19:02Z</time>
      </trkpt>
      <trkpt lat="59.9739824" lon="17.7233562">
        <ele>20.325</ele>
        <time>2012-07-18T19:19:10Z</time>
      </trkpt>
      <trkpt lat="59.9740942" lon="17.7240916">
        <ele>15.5184</ele>
        <time>2012-07-18T19:19:16Z</time>
      </trkpt>
      <trkpt lat="59.9742201" lon="17.7250438">
        <ele>14.557</ele>
        <time>2012-07-18T19:19:25Z</time>
      </trkpt>
      <trkpt lat="59.97429" lon="17.7256584">
        <ele>15.999</ele>
        <time>2012-07-18T19:19:31Z</time>
      </trkpt>
      <trkpt lat="59.9743465" lon="17.7264072">
        <ele>20.8057</ele>
        <time>2012-07-18T19:19:38Z</time>
      </trkpt>
      <trkpt lat="59.97436" lon="17.7272988">
        <ele>21.2864</ele>
        <time>2012-07-18T19:19:46Z</time>
      </trkpt>
      <trkpt lat="59.9743741" lon="17.7283799">
        <ele>20.8057</ele>
        <time>2012-07-18T19:19:54Z</time>
      </trkpt>
      <trkpt lat="59.9743903" lon="17.7292598">
        <ele>19.3638</ele>
        <time>2012-07-18T19:20:01Z</time>
      </trkpt>
      <trkpt lat="59.9743601" lon="17.7301071">
        <ele>19.3638</ele>
        <time>2012-07-18T19:20:08Z</time>
      </trkpt>
      <trkpt lat="59.9742921" lon="17.731003">
        <ele>17.9218</ele>
        <time>2012-07-18T19:20:16Z</time>
      </trkpt>
      <trkpt lat="59.9742746" lon="17.7320716">
        <ele>15.999</ele>
        <time>2012-07-18T19:20:25Z</time>
      </trkpt>
      <trkpt lat="59.9742759" lon="17.7330548">
        <ele>14.557</ele>
        <time>2012-07-18T19:20:33Z</time>
      </trkpt>
      <trkpt lat="59.9742326" lon="17.7338732">
        <ele>13.5958</ele>
        <time>2012-07-18T19:20:40Z</time>
      </trkpt>
      <trkpt lat="59.9742153" lon="17.7346815">
        <ele>12.6344</ele>
        <time>2012-07-18T19:20:47Z</time>
      </trkpt>
      <trkpt lat="59.974274" lon="17.7354635">
        <ele>11.6732</ele>
        <time>2012-07-18T19:20:54Z</time>
      </trkpt>
      <trkpt lat="59.9744066" lon="17.7361824">
        <ele>12.1538</ele>
        <time>2012-07-18T19:21:01Z</time>
      </trkpt>
      <trkpt lat="59.9746422" lon="17.7369394">
        <ele>15.0377</ele>
        <time>2012-07-18T19:21:09Z</time>
      </trkpt>
      <trkpt lat="59.9748764" lon="17.7375112">
        <ele>17.9218</ele>
        <time>2012-07-18T19:21:16Z</time>
      </trkpt>
      <trkpt lat="59.9751887" lon="17.7380594">
        <ele>19.3638</ele>
        <time>2012-07-18T19:21:24Z</time>
      </trkpt>
      <trkpt lat="59.9755253" lon="17.7386637">
        <ele>19.3638</ele>
        <time>2012-07-18T19:21:32Z</time>
      </trkpt>
      <trkpt lat="59.9758373" lon="17.7392358">
        <ele>21.2864</ele>
        <time>2012-07-18T19:21:40Z</time>
      </trkpt>
      <trkpt lat="59.9760849" lon="17.7396382">
        <ele>24.651</ele>
        <time>2012-07-18T19:21:47Z</time>
      </trkpt>
      <trkpt lat="59.9761697" lon="17.739749">
        <ele>25.1317</ele>
        <time>2012-07-18T19:21:50Z</time>
      </trkpt>
      <trkpt lat="59.9763881" lon="17.739805">
        <ele>25.6123</ele>
        <time>2012-07-18T19:21:57Z</time>
      </trkpt>
      <trkpt lat="59.9765812" lon="17.7396069">
        <ele>26.0929</ele>
        <time>2012-07-18T19:22:03Z</time>
      </trkpt>
      <trkpt lat="59.9768146" lon="17.7395005">
        <ele>26.0929</ele>
        <time>2012-07-18T19:22:09Z</time>
      </trkpt>
      <trkpt lat="59.9770656" lon="17.73942">
        <ele>28.4962</ele>
        <time>2012-07-18T19:22:16Z</time>
      </trkpt>
      <trkpt lat="59.9773489" lon="17.7392471">
        <ele>28.4962</ele>
        <time>2012-07-18T19:22:24Z</time>
      </trkpt>
      <trkpt lat="59.9776488" lon="17.7391513">
        <ele>35.2255</ele>
        <time>2012-07-18T19:22:32Z</time>
      </trkpt>
      <trkpt lat="59.9777931" lon="17.7391713">
        <ele>29.9381</ele>
        <time>2012-07-18T19:22:38Z</time>
      </trkpt>
      <trkpt lat="59.9779638" lon="17.7392313">
        <ele>26.0929</ele>
        <time>2012-07-18T19:22:44Z</time>
      </trkpt>
      <trkpt lat="59.9781544" lon="17.7393269">
        <ele>31.3801</ele>
        <time>2012-07-18T19:22:49Z</time>
      </trkpt>
      <trkpt lat="59.9783243" lon="17.739378">
        <ele>34.7449</ele>
        <time>2012-07-18T19:22:53Z</time>
      </trkpt>
      <trkpt lat="59.9784204" lon="17.7393962">
        <ele>35.7061</ele>
        <time>2012-07-18T19:22:55Z</time>
      </trkpt>
      <trkpt lat="59.978662" lon="17.7394253">
        <ele>38.5901</ele>
        <time>2012-07-18T19:23:00Z</time>
      </trkpt>
      <trkpt lat="59.9788573" lon="17.7394402">
        <ele>37.1481</ele>
        <time>2012-07-18T19:23:04Z</time>
      </trkpt>
      <trkpt lat="59.9789013" lon="17.7394486">
        <ele>37.1481</ele>
        <time>2012-07-18T19:23:05Z</time>
      </trkpt>
    </trkseg>
  </trk>
</gpx>